[[{"header":{"parameterUnit":"m.s-1","parameterCategory":1,"la1":30.6,"la2":29.2853,"lo1":-89.7004,"lo2":-87.6739,"dy":0.0162,"dx":0.0183,"nx":112,"ny":82,"refTime":"2023-10-30T06:00:00:Z","depth":0,"parameterNumber":2,"parameterNumberName":"U-component_of_WINDS"},"data":[0.0,0.0,0.0,0.0,0.0,0.0,0.0,0.0,0.0,0.0,0.0,0.0,0.0,0.0,0.0,0.0,0.0,0.0,0.0,0.0,0.0,0.0,0.0,0.0,0.0,0.0,0.0,0.0,0.0,0.0,0.0,0.0,0.0,0.0,0.0,0.0,0.0,0.0,0.0,0.0,0.0,0.0,0.0,0.0,0.0,0.0,0.0,0.0,0.0,0.0,0.0,0.0,0.0,0.0,0.0,0.0,0.0,0.0,0.0,0.0,0.0,0.0,0.0,0.0,0.0,0.0,0.0,0.0,0.0,0.0,0.0,0.0,0.0,0.0,0.0,0.0,0.0,0.0,0.0,0.0,0.0,0.0,0.0,0.0,0.0,0.0,0.0,0.0,0.0,0.0,10.2866,11.3124,12.9181,13.8587,13.7192,13.3834,12.4533,10.7504,0.0,0.0,0.0,0.0,0.0,0.0,0.0,0.0,0.0,0.0,0.0,0.0,0.0,0.0,0.0,0.0,0.0,0.0,0.0,0.0,0.0,0.0,0.0,0.0,0.0,0.0,0.0,0.0,0.0,0.0,0.0,0.0,0.0,0.0,0.0,0.0,0.0,0.0,0.0,0.0,0.0,0.0,0.0,0.0,0.0,0.0,0.0,0.0,0.0,0.0,0.0,0.0,0.0,0.0,0.0,0.0,0.0,0.0,0.0,0.0,0.0,0.0,0.0,0.0,0.0,0.0,0.0,0.0,0.0,0.0,0.0,0.0,0.0,0.0,0.0,0.0,0.0,0.0,0.0,0.0,0.0,0.0,0.0,0.0,0.0,0.0,0.0,0.0,0.0,0.0,0.0,0.0,0.0,0.0,0.0,0.0,0.0,0.0,0.0,0.0,0.0,0.0,0.0,0.0,10.7015,12.8039,13.6672,14.0871,14.0591,13.3562,12.4033,11.1686,0.0,0.0,0.0,0.0,0.0,0.0,0.0,0.0,0.0,0.0,0.0,0.0,0.0,0.0,0.0,0.0,0.0,0.0,0.0,0.0,0.0,0.0,0.0,0.0,0.0,0.0,0.0,0.0,0.0,0.0,0.0,0.0,0.0,0.0,0.0,0.0,0.0,0.0,0.0,0.0,0.0,0.0,0.0,0.0,0.0,0.0,0.0,0.0,0.0,0.0,0.0,0.0,0.0,0.0,0.0,0.0,0.0,0.0,0.0,0.0,0.0,0.0,0.0,0.0,0.0,0.0,0.0,0.0,0.0,0.0,0.0,0.0,0.0,0.0,0.0,0.0,0.0,0.0,0.0,0.0,0.0,0.0,0.0,0.0,0.0,0.0,0.0,0.0,0.0,0.0,0.0,0.0,0.0,0.0,0.0,0.0,0.0,0.0,0.0,0.0,0.0,0.0,0.0,10.4823,11.539,13.4492,14.0715,14.3126,14.2208,13.5883,12.6519,11.341,10.4901,0.0,0.0,0.0,0.0,0.0,0.0,0.0,0.0,0.0,0.0,0.0,0.0,0.0,0.0,0.0,0.0,0.0,0.0,0.0,0.0,0.0,0.0,0.0,0.0,0.0,0.0,0.0,0.0,0.0,0.0,0.0,0.0,0.0,0.0,0.0,0.0,0.0,0.0,0.0,0.0,0.0,0.0,0.0,0.0,0.0,0.0,0.0,0.0,0.0,0.0,0.0,0.0,0.0,0.0,0.0,0.0,0.0,0.0,0.0,0.0,0.0,0.0,0.0,0.0,0.0,0.0,0.0,0.0,0.0,0.0,0.0,0.0,0.0,0.0,0.0,0.0,0.0,0.0,0.0,0.0,0.0,0.0,0.0,0.0,0.0,0.0,0.0,0.0,0.0,0.0,0.0,0.0,0.0,0.0,0.0,0.0,0.0,0.0,0.0,0.0,0.0,0.0,11.5698,12.4372,13.8312,14.3292,14.4922,14.3232,13.7288,12.7932,11.3977,10.4506,0.0,0.0,0.0,0.0,0.0,0.0,0.0,0.0,0.0,0.0,0.0,0.0,0.0,0.0,0.0,0.0,0.0,0.0,0.0,0.0,0.0,0.0,0.0,0.0,0.0,0.0,0.0,0.0,0.0,0.0,0.0,0.0,0.0,0.0,0.0,0.0,0.0,0.0,0.0,0.0,0.0,0.0,0.0,0.0,0.0,0.0,0.0,0.0,0.0,0.0,0.0,0.0,0.0,0.0,0.0,0.0,0.0,0.0,0.0,0.0,0.0,0.0,0.0,0.0,0.0,0.0,0.0,0.0,0.0,0.0,0.0,0.0,0.0,0.0,0.0,0.0,0.0,0.0,0.0,0.0,0.0,0.0,0.0,0.0,0.0,0.0,0.0,0.0,0.0,0.0,0.0,0.0,0.0,0.0,0.0,0.0,0.0,0.0,0.0,0.0,0.0,0.0,12.0308,13.2422,14.1484,14.4887,14.5809,14.4139,13.5468,12.539,11.3811,10.281,0.0,0.0,0.0,0.0,0.0,0.0,0.0,0.0,0.0,0.0,0.0,0.0,0.0,0.0,0.0,0.0,0.0,0.0,0.0,0.0,0.0,0.0,0.0,0.0,0.0,0.0,0.0,0.0,0.0,0.0,0.0,0.0,0.0,0.0,0.0,0.0,0.0,0.0,0.0,0.0,0.0,0.0,0.0,0.0,0.0,0.0,0.0,0.0,0.0,0.0,0.0,0.0,0.0,0.0,0.0,0.0,0.0,0.0,0.0,0.0,0.0,0.0,0.0,0.0,0.0,0.0,0.0,0.0,0.0,0.0,0.0,0.0,0.0,0.0,0.0,0.0,0.0,0.0,0.0,0.0,0.0,0.0,0.0,0.0,0.0,0.0,0.0,0.0,0.0,0.0,0.0,0.0,0.0,0.0,0.0,0.0,0.0,0.0,0.0,0.0,0.0,0.0,12.0367,13.1789,0.0,14.6713,14.7498,14.5831,13.942,12.9578,11.5597,0.0,0.0,0.0,0.0,0.0,0.0,0.0,0.0,0.0,0.0,0.0,0.0,0.0,0.0,0.0,0.0,0.0,0.0,0.0,0.0,0.0,0.0,0.0,0.0,0.0,0.0,0.0,0.0,0.0,0.0,0.0,0.0,0.0,0.0,0.0,0.0,0.0,0.0,0.0,0.0,0.0,0.0,0.0,0.0,0.0,0.0,0.0,0.0,0.0,0.0,0.0,0.0,0.0,0.0,0.0,0.0,0.0,0.0,0.0,0.0,0.0,0.0,0.0,0.0,0.0,0.0,0.0,0.0,0.0,0.0,0.0,0.0,0.0,0.0,0.0,0.0,0.0,0.0,0.0,0.0,0.0,0.0,0.0,0.0,0.0,0.0,0.0,0.0,0.0,0.0,0.0,0.0,0.0,0.0,0.0,0.0,0.0,0.0,0.0,0.0,0.0,0.0,11.0274,12.232,13.3898,0.0,14.82,14.881,14.6816,14.0393,13.0321,11.5832,0.0,0.0,0.0,0.0,0.0,0.0,0.0,0.0,0.0,0.0,0.0,0.0,0.0,0.0,0.0,0.0,0.0,0.0,0.0,0.0,0.0,0.0,0.0,0.0,0.0,0.0,0.0,0.0,0.0,0.0,0.0,0.0,0.0,0.0,0.0,0.0,0.0,0.0,0.0,0.0,0.0,0.0,0.0,0.0,0.0,0.0,0.0,0.0,0.0,0.0,0.0,0.0,0.0,0.0,0.0,0.0,0.0,0.0,0.0,0.0,0.0,0.0,0.0,0.0,0.0,0.0,0.0,0.0,0.0,0.0,0.0,0.0,0.0,0.0,0.0,0.0,0.0,0.0,0.0,0.0,0.0,0.0,0.0,0.0,0.0,0.0,0.0,0.0,0.0,0.0,0.0,0.0,0.0,0.0,0.0,0.0,0.0,0.0,0.0,0.0,0.0,0.0,11.0827,12.687,14.0234,14.7109,14.9424,14.9383,14.6774,13.721,12.6104,0.0,0.0,0.0,0.0,0.0,0.0,0.0,0.0,0.0,0.0,0.0,0.0,0.0,0.0,0.0,0.0,0.0,0.0,0.0,0.0,0.0,0.0,0.0,0.0,0.0,0.0,0.0,0.0,0.0,0.0,0.0,0.0,0.0,0.0,0.0,0.0,0.0,0.0,0.0,0.0,0.0,0.0,0.0,0.0,0.0,0.0,0.0,0.0,0.0,0.0,0.0,0.0,0.0,0.0,0.0,0.0,0.0,0.0,0.0,0.0,0.0,0.0,0.0,0.0,0.0,0.0,0.0,0.0,0.0,0.0,0.0,0.0,0.0,0.0,0.0,0.0,0.0,0.0,0.0,0.0,0.0,0.0,0.0,0.0,0.0,0.0,0.0,0.0,0.0,0.0,0.0,0.0,0.0,0.0,0.0,0.0,0.0,0.0,0.0,0.0,0.0,0.0,0.0,11.1794,12.7265,13.9765,14.5468,14.82,14.8498,14.5878,13.8988,12.8915,11.4894,0.0,0.0,0.0,0.0,0.0,0.0,0.0,0.0,0.0,0.0,0.0,0.0,0.0,0.0,0.0,0.0,0.0,0.0,0.0,0.0,0.0,0.0,0.0,0.0,0.0,0.0,0.0,0.0,0.0,0.0,0.0,0.0,0.0,0.0,0.0,0.0,0.0,0.0,0.0,0.0,0.0,0.0,0.0,0.0,0.0,0.0,0.0,0.0,0.0,0.0,0.0,0.0,0.0,0.0,0.0,0.0,0.0,0.0,0.0,0.0,0.0,0.0,0.0,0.0,0.0,0.0,0.0,0.0,0.0,0.0,0.0,0.0,0.0,0.0,0.0,0.0,0.0,0.0,0.0,0.0,0.0,0.0,0.0,0.0,0.0,0.0,0.0,0.0,0.0,0.0,0.0,0.0,0.0,0.0,0.0,0.0,0.0,0.0,0.0,0.0,0.0,0.0,11.2187,12.8125,14.0468,14.5312,14.8828,14.9371,14.6065,14.0559,13.1482,11.7921,0.0,0.0,0.0,0.0,0.0,0.0,0.0,0.0,0.0,0.0,0.0,0.0,0.0,0.0,0.0,0.0,0.0,0.0,0.0,0.0,0.0,0.0,0.0,0.0,0.0,0.0,0.0,0.0,0.0,0.0,0.0,0.0,0.0,0.0,0.0,0.0,0.0,0.0,0.0,0.0,0.0,0.0,0.0,0.0,0.0,0.0,0.0,0.0,0.0,0.0,0.0,0.0,0.0,0.0,0.0,0.0,0.0,0.0,0.0,0.0,0.0,0.0,0.0,0.0,0.0,0.0,0.0,0.0,0.0,0.0,0.0,0.0,0.0,0.0,0.0,0.0,0.0,0.0,0.0,0.0,0.0,0.0,0.0,0.0,0.0,0.0,0.0,0.0,0.0,0.0,0.0,0.0,0.0,0.0,0.0,0.0,0.0,0.0,0.0,0.0,0.0,0.0,11.2265,12.8984,14.1718,14.6015,15.0234,15.1015,14.6875,14.1769,13.3668,12.1713,0.0,0.0,0.0,0.0,0.0,0.0,0.0,0.0,0.0,0.0,0.0,0.0,0.0,0.0,0.0,0.0,0.0,0.0,0.0,0.0,0.0,0.0,0.0,0.0,0.0,0.0,0.0,0.0,0.0,0.0,0.0,0.0,0.0,0.0,0.0,0.0,0.0,0.0,0.0,0.0,0.0,0.0,0.0,0.0,0.0,0.0,0.0,0.0,0.0,0.0,0.0,0.0,0.0,0.0,0.0,0.0,0.0,0.0,0.0,0.0,8.2378,8.0141,0.0,0.0,0.0,0.0,0.0,0.0,0.0,0.0,0.0,0.0,0.0,0.0,0.0,0.0,0.0,0.0,0.0,0.0,0.0,0.0,0.0,0.0,0.0,0.0,0.0,0.0,0.0,0.0,0.0,0.0,0.0,0.0,0.0,0.0,0.0,0.0,0.0,0.0,0.0,0.0,11.3281,12.8828,14.0781,14.5078,14.818,14.9112,14.6796,14.117,13.3031,12.1566,11.4399,0.0,0.0,0.0,0.0,0.0,0.0,0.0,0.0,0.0,0.0,0.0,0.0,0.0,0.0,0.0,0.0,0.0,0.0,0.0,0.0,0.0,0.0,0.0,0.0,0.0,0.0,0.0,0.0,0.0,0.0,0.0,0.0,0.0,0.0,0.0,0.0,0.0,0.0,0.0,0.0,0.0,0.0,0.0,0.0,0.0,0.0,0.0,0.0,0.0,0.0,0.0,0.0,0.0,0.0,0.0,0.0,0.0,0.0,0.0,8.967,8.66,0.0,0.0,0.0,0.0,0.0,0.0,0.0,0.0,0.0,0.0,0.0,0.0,0.0,0.0,0.0,0.0,0.0,0.0,0.0,0.0,0.0,0.0,0.0,0.0,0.0,0.0,0.0,0.0,0.0,0.0,0.0,0.0,0.0,0.0,0.0,0.0,0.0,0.0,0.0,0.0,11.4687,12.9297,14.0468,14.4765,14.8402,14.9383,14.6774,14.2179,13.5375,12.5782,11.7975,0.0,0.0,0.0,0.0,0.0,0.0,0.0,0.0,0.0,0.0,0.0,0.0,0.0,0.0,0.0,0.0,0.0,0.0,0.0,0.0,0.0,0.0,0.0,0.0,0.0,0.0,0.0,0.0,0.0,0.0,0.0,0.0,0.0,0.0,0.0,0.0,0.0,0.0,0.0,0.0,0.0,0.0,0.0,0.0,0.0,0.0,0.0,0.0,0.0,0.0,0.0,0.0,0.0,9.9351,10.1328,10.3885,10.3417,10.3998,10.5038,9.9134,9.5766,9.4196,9.1952,0.0,0.0,0.0,0.0,0.0,0.0,0.0,0.0,0.0,0.0,0.0,0.0,0.0,0.0,0.0,0.0,0.0,0.0,0.0,0.0,0.0,0.0,9.4294,9.726,9.9946,10.0278,9.4778,0.0,0.0,0.0,0.0,0.0,0.0,0.0,0.0,0.0,0.0,0.0,11.6484,13.0078,14.0624,14.5075,14.9027,14.9997,14.7097,14.3466,13.8163,13.0779,12.2122,11.4399,0.0,0.0,0.0,0.0,0.0,0.0,0.0,0.0,0.0,0.0,0.0,0.0,0.0,0.0,0.0,0.0,0.0,0.0,0.0,0.0,0.0,0.0,0.0,0.0,0.0,0.0,0.0,0.0,0.0,0.0,0.0,0.0,7.7481,7.7854,0.0,0.0,0.0,0.0,0.0,0.0,0.0,0.0,0.0,0.0,0.0,0.0,0.0,9.6184,10.1006,10.2577,10.4363,10.6191,10.7777,10.8831,10.9193,10.9895,11.0676,11.1601,11.219,0.0,10.0996,9.6934,0.0,0.0,0.0,0.0,0.0,0.0,0.0,0.0,0.0,0.0,0.0,0.0,0.0,0.0,0.0,0.0,0.0,0.0,0.0,0.0,0.0,0.0,10.2811,10.3904,10.6177,10.8059,10.7903,10.0712,9.392,9.2756,9.1843,9.0146,0.0,0.0,0.0,0.0,0.0,0.0,11.9218,13.1172,14.0776,14.5878,14.8238,14.9019,14.7811,14.3829,13.8675,13.2497,12.6682,11.982,11.153,10.7535,0.0,0.0,0.0,0.0,0.0,0.0,0.0,0.0,0.0,0.0,0.0,0.0,0.0,0.0,0.0,0.0,0.0,0.0,0.0,0.0,0.0,0.0,0.0,0.0,0.0,0.0,0.0,0.0,0.0,7.9125,8.2412,8.1399,8.2961,8.3044,0.0,0.0,0.0,0.0,0.0,0.0,0.0,0.0,0.0,9.9172,10.1172,10.4225,10.8432,10.9602,11.1807,11.4926,11.6116,11.7403,11.8695,11.9197,11.9492,11.9941,12.0733,11.8342,11.3437,10.6832,10.1434,9.6945,0.0,0.0,0.0,0.0,9.3493,9.5387,9.7809,9.9453,10.0228,9.7689,0.0,0.0,0.0,0.0,0.0,0.0,0.0,9.4453,9.8594,10.3425,10.7918,11.1104,11.3125,11.4383,11.4774,11.0635,10.5084,9.9931,9.7838,9.5352,9.0442,9.108,0.0,0.0,0.0,11.2886,12.1875,13.2265,14.0932,14.6015,14.7665,14.7675,14.5926,14.2569,13.7884,13.1404,12.6972,12.1904,11.5727,11.08,10.5802,0.0,0.0,0.0,0.0,0.0,0.0,0.0,0.0,0.0,0.0,0.0,0.0,0.0,0.0,0.0,0.0,0.0,0.0,0.0,0.0,0.0,0.0,0.0,0.0,0.0,0.0,0.0,0.0,8.3349,8.6715,8.4844,8.8047,8.8672,0.0,0.0,0.0,0.0,0.0,0.0,9.5284,9.9154,10.3095,10.7091,10.9426,11.2305,11.6071,11.6687,11.8735,12.2104,12.2895,12.4422,12.6257,12.6625,12.6834,12.6879,12.7034,12.6024,12.3771,11.5586,10.8843,10.3407,10.0319,9.804,9.6774,9.9098,10.0721,10.2382,10.6575,10.8724,10.8904,10.5594,10.3233,10.0584,9.47,0.0,0.0,0.0,0.0,9.992,10.4921,10.8893,11.2695,11.696,11.8834,11.9614,11.9927,11.8365,11.4774,10.72,10.4623,10.1883,9.6488,9.6992,0.0,9.9541,10.6981,11.5681,12.4602,13.32,14.0538,14.541,14.6718,14.6395,14.4209,14.1398,13.727,13.1431,12.751,12.3527,11.9412,11.4094,10.987,10.713,0.0,0.0,0.0,0.0,0.0,0.0,0.0,0.0,0.0,0.0,0.0,0.0,0.0,0.0,0.0,0.0,0.0,0.0,0.0,0.0,0.0,0.0,0.0,0.0,0.0,0.0,0.0,0.0,0.0,8.7578,9.3906,0.0,0.0,0.0,0.0,9.3122,9.6994,10.0789,10.4133,10.6843,11.0919,11.6825,11.8009,12.0501,12.4662,12.4908,12.5403,12.6286,12.7219,12.8073,12.8977,12.9939,13.0716,13.1385,13.1385,13.0375,12.8277,12.0529,11.5741,11.2891,10.8589,10.6916,10.6982,10.7109,10.8283,11.0029,11.1835,11.3092,11.4062,11.5507,11.2665,10.8293,10.5404,10.3374,0.0,0.0,10.5895,10.8963,11.0994,11.4719,11.8287,12.0229,12.1879,12.3362,12.4221,12.2425,11.9224,11.4695,11.3134,11.1338,10.7825,0.0,10.6682,10.8371,11.1876,11.7662,12.7197,13.3789,13.9275,14.3728,14.4863,14.4989,14.4131,14.0773,13.7609,13.4686,12.9884,12.5589,12.2031,11.8508,11.3884,10.8026,10.5263,0.0,0.0,0.0,0.0,0.0,0.0,0.0,0.0,0.0,0.0,0.0,0.0,0.0,0.0,0.0,0.0,0.0,0.0,0.0,0.0,0.0,0.0,0.0,0.0,0.0,0.0,0.0,0.0,9.6561,10.2261,0.0,9.8606,9.8928,9.9904,10.0827,10.4365,10.8131,11.191,11.5118,11.8526,12.2273,12.3811,12.5904,12.8728,12.919,13.0462,13.2512,13.2717,13.3639,13.4882,13.5193,13.5892,13.6591,13.6125,13.5503,13.4571,13.0811,12.4787,11.7931,11.5707,11.4002,11.2788,11.4339,11.5318,11.6338,11.9007,12.0193,12.0317,11.878,11.5607,11.2018,10.9909,10.9374,10.9522,10.9714,11.1971,11.479,11.7133,12.0014,12.2884,12.4611,12.5835,12.6403,12.6169,12.4917,12.3184,12.1171,11.7889,11.4212,11.0331,11.0682,11.1396,11.1034,11.5701,12.1677,12.8281,13.4601,13.9831,14.3436,14.4196,14.3662,14.171,13.9836,13.6498,13.1134,12.908,12.5991,12.1396,11.8505,11.5675,11.2888,11.0384,10.5464,0.0,0.0,0.0,0.0,0.0,0.0,0.0,0.0,0.0,0.0,0.0,0.0,0.0,0.0,0.0,0.0,0.0,0.0,0.0,0.0,0.0,0.0,0.0,0.0,0.0,9.6075,10.2515,10.3115,10.9212,11.1422,10.6498,10.6927,10.7869,10.9105,11.2143,11.5356,11.8873,12.2081,12.4982,12.7493,12.9574,13.1634,13.35,13.4631,13.5905,13.7417,13.7615,13.83,13.9388,13.9388,13.9932,14.0709,14.0087,13.9699,13.931,13.7912,13.3028,12.6081,12.3516,12.0921,11.9006,12.0663,12.1468,12.1979,12.468,12.5583,12.5123,12.2942,11.9874,11.693,11.5671,11.5563,11.6002,11.6328,11.7967,12.0312,12.2264,12.453,12.6561,12.7967,12.8664,12.8862,12.8713,12.778,12.6871,12.6199,12.1934,11.7499,11.4509,11.5073,11.5624,11.4514,11.8896,12.4061,12.8905,13.4276,13.8972,14.239,14.2882,14.2104,14.0072,13.7562,13.4129,12.9062,12.6872,12.4138,12.0298,11.6919,11.4685,11.3825,11.1406,10.6562,9.9453,0.0,0.0,0.0,0.0,0.0,0.0,0.0,0.0,0.0,0.0,0.0,0.0,0.0,0.0,0.0,0.0,0.0,0.0,0.0,0.0,0.0,0.0,0.0,9.2937,10.109,10.7085,10.6866,11.4481,11.7294,11.1188,11.4494,11.7322,11.802,12.0324,12.2691,12.517,12.7648,13.0204,13.2683,13.5383,13.7703,13.941,14.122,14.1719,14.0864,14.1797,14.2185,14.2185,14.2185,14.2729,14.3506,14.3428,14.2962,14.2108,14.1175,13.9777,13.7601,13.1696,12.7811,12.5713,12.649,12.6879,12.7063,12.8898,12.8884,12.826,12.8168,12.5961,12.3331,12.3139,12.2502,12.2125,12.2814,12.4204,12.5657,12.6437,12.7919,12.9416,13.0274,13.0508,13.0742,13.1523,13.1117,13.0181,12.9323,12.5323,12.1789,12.0936,12.0078,11.9607,11.9521,12.1497,0.0,12.8994,13.3083,13.6871,14.0347,14.0693,14.0413,13.9489,13.418,13.0494,12.9272,12.3878,12.0133,11.8929,11.429,11.129,11.0377,10.7888,10.4609,10.039,0.0,0.0,0.0,0.0,0.0,0.0,0.0,0.0,0.0,0.0,0.0,0.0,0.0,0.0,0.0,0.0,0.0,0.0,0.0,0.0,0.0,9.4253,9.9046,9.9922,10.8535,11.5677,11.8252,12.2704,12.458,12.2402,12.3333,12.4269,12.4877,12.6816,12.922,13.2252,13.3104,13.4691,13.74,13.9375,14.0997,14.223,14.3895,14.4982,14.5293,14.5604,14.5992,14.6614,14.6614,14.708,14.7935,14.6614,14.6303,14.6381,14.3739,14.1874,14.0476,13.5736,13.3017,13.1774,13.2023,13.2424,13.2934,13.2939,13.2659,13.227,13.1006,12.9688,12.8157,12.6939,12.626,12.6234,12.6406,12.6818,12.731,12.7466,12.8402,12.9275,12.9509,12.9936,13.0176,12.9787,12.989,12.9662,12.8391,12.7496,12.6117,12.3632,12.3516,12.3317,12.1981,12.458,12.7807,13.0643,13.4376,13.678,13.7021,13.7171,13.6811,13.5336,13.1993,12.901,12.6729,12.3866,12.0473,11.63,11.4916,11.3317,11.119,10.7728,10.4609,0.0,0.0,0.0,0.0,0.0,0.0,0.0,0.0,0.0,0.0,0.0,0.0,0.0,0.0,0.0,0.0,0.0,0.0,0.0,0.0,0.0,0.0,10.2583,10.8595,11.1411,11.6398,12.131,12.5297,12.7907,12.9598,12.9785,12.9918,13.0517,13.1991,13.2968,13.4753,13.74,13.7788,13.891,14.0807,14.2861,14.4371,14.5303,14.7357,14.8522,14.872,14.8988,14.9333,14.9411,14.9376,14.9652,15.0118,14.9108,14.872,14.872,14.6347,14.4905,14.3739,0.0,0.0,0.0,0.0,13.5296,13.5451,13.4864,13.4508,13.412,13.2968,13.1867,13.0841,12.9739,12.921,12.9012,12.9296,12.9377,12.9475,12.9787,13.0332,13.0721,13.0721,13.0984,13.1122,13.0578,13.0504,13.0282,12.9895,12.9506,0.0,12.642,12.5871,12.5193,12.358,12.5627,12.8128,13.0237,13.3578,13.5782,13.6011,13.6764,13.6504,13.4496,13.1022,0.0,0.0,0.0,11.7527,11.258,11.2375,0.0,0.0,0.0,10.6324,10.6015,10.3594,0.0,0.0,9.8047,9.7109,0.0,0.0,0.0,0.0,0.0,0.0,0.0,0.0,0.0,0.0,0.0,0.0,0.0,0.0,0.0,0.0,11.1385,11.9103,12.4477,12.4693,12.5695,12.9503,13.159,13.3322,13.4786,13.5084,13.6125,13.8533,13.8624,13.941,14.1196,14.1894,0.0,0.0,0.0,14.7943,14.8647,15.1127,15.1904,15.1131,15.1904,15.1862,15.1163,15.1091,15.1131,15.1131,15.0976,15.051,14.9734,14.891,14.7901,14.658,14.1719,13.9323,13.8324,13.747,13.6682,13.5969,13.5969,0.0,0.0,13.4631,13.3498,13.2318,13.2069,13.1415,13.0872,13.1726,13.1736,13.1667,13.252,13.2598,13.2365,13.252,13.252,13.2365,13.2365,13.1828,13.1481,13.2287,13.1211,12.9973,12.9079,12.7674,12.6159,12.4708,12.574,12.7452,12.9275,13.2102,13.4542,13.601,13.7597,0.0,13.5219,13.0703,12.7316,12.5529,11.9073,11.3475,10.9477,10.9117,10.8824,10.8503,10.8406,10.9114,11.0702,11.0703,10.9922,10.8125,10.1172,9.9453,0.0,0.0,0.0,0.0,0.0,0.0,0.0,0.0,0.0,0.0,0.0,0.0,0.0,0.0,0.0,10.9888,11.6437,12.301,13.0974,13.307,13.4184,13.5348,13.7442,13.8874,13.9434,14.0087,14.102,14.2185,14.2196,14.3214,14.562,14.5081,14.5819,14.799,14.9309,15.0317,15.1248,15.2411,15.2877,15.2722,15.2877,0.0,15.2799,15.2761,15.2839,15.2839,15.2063,15.1675,15.1364,14.9889,14.83,14.6632,14.3672,14.203,14.1065,14.021,13.9356,13.8689,13.8689,13.8067,13.729,13.6559,13.6203,13.5736,13.4941,13.4132,0.0,13.3486,13.2633,13.1745,13.2411,13.1673,13.0814,13.1404,13.1089,13.0659,13.0659,13.1124,13.1279,13.0814,13.1477,13.1709,13.0262,12.9065,12.7988,12.7023,12.841,13.0107,13.1787,13.3943,13.4786,13.3809,13.4726,13.4476,13.2688,12.9705,12.7363,12.6306,11.968,11.5306,11.3724,11.2514,11.2115,11.2572,11.2197,11.1787,11.1368,11.1636,11.1093,11.0,10.7812,10.6406,0.0,0.0,0.0,0.0,0.0,0.0,0.0,0.0,0.0,0.0,0.0,9.0802,9.7264,0.0,10.9978,11.8129,12.4395,13.0127,13.5661,13.8684,13.9849,13.8838,14.0115,14.1506,14.2496,14.3317,14.4293,14.5691,14.5972,14.6943,14.8727,14.8301,14.8571,14.989,15.082,15.1555,15.2443,15.326,15.3958,15.438,15.4423,15.4195,15.377,15.3803,15.3493,15.3069,15.2681,15.2293,15.1673,15.0085,14.9193,14.8572,14.6588,14.4371,14.2585,14.2585,14.1531,14.0087,14.0476,13.9777,13.8611,13.7834,13.7213,13.6746,13.5751,13.5207,13.4819,13.4287,13.3477,13.2823,13.2823,13.2512,13.228,13.2667,13.2857,13.289,13.2823,13.2512,13.2202,13.2202,13.178,13.1314,13.1027,13.0073,12.9383,12.9031,12.9263,13.0306,13.2512,13.4021,13.4708,13.4307,13.5426,13.527,13.3232,13.0327,12.7626,12.5361,12.1216,11.8004,11.6297,11.5134,11.4513,11.4493,11.4208,11.3886,11.3485,11.4136,11.3669,11.25,11.25,11.1406,0.0,0.0,0.0,0.0,0.0,0.0,0.0,0.0,8.9015,9.4403,9.7137,10.08,10.8011,11.4428,12.042,12.5871,13.1824,13.6703,13.9577,14.2597,14.3878,14.2096,14.2712,14.387,14.557,14.6277,14.725,14.861,14.9231,14.9927,15.0779,15.0779,15.0893,15.128,15.1978,15.271,15.3474,15.4182,15.488,15.5488,15.5577,15.5353,15.4578,15.4448,15.4138,15.3209,15.3131,15.2589,15.1892,15.0583,15.0277,15.0589,14.9425,14.6903,14.4109,14.4689,14.3206,14.102,14.1686,14.0787,13.931,13.8611,13.7912,13.729,13.6591,13.6125,13.5736,13.5037,13.4819,13.4631,13.3918,13.4275,13.4864,13.4773,13.5348,13.5783,13.5485,13.4398,13.3621,13.432,13.2624,13.1271,13.2191,13.1537,13.0728,13.0606,12.9806,13.0314,13.3045,13.3909,13.4719,13.6016,13.7226,13.7148,13.4695,13.1666,12.8481,12.5296,12.3373,12.1324,11.8714,11.7414,11.6482,11.5891,11.5583,11.5522,11.5627,11.6522,11.6089,11.4524,11.5312,11.4375,8.6321,8.3723,8.2056,8.6203,8.6259,8.8263,0.0,0.0,9.9674,10.6189,10.7813,10.9703,11.5222,11.9255,12.417,13.1715,13.5352,13.8679,14.2907,14.5076,14.663,14.7213,14.8104,14.8958,14.9967,15.02,15.024,15.0317,15.0273,15.0653,15.1505,15.1494,15.2222,15.3693,15.3847,15.4312,15.5086,15.524,15.5318,15.5395,15.5395,15.5364,15.5378,15.5287,15.49,15.4061,15.3286,15.2899,15.2822,15.2667,15.1693,15.041,15.1118,14.9808,14.7525,14.6825,14.4604,14.1874,14.1774,14.0798,13.9388,13.931,13.9233,13.9077,13.9,13.7912,13.6669,13.6591,13.6591,13.6482,13.6339,13.6993,13.7492,13.6572,13.6605,13.6513,13.5705,13.5394,13.5317,13.5394,13.4617,13.4074,13.5006,13.3699,13.2313,13.1469,13.1279,13.209,13.483,13.5219,13.5873,13.7601,13.799,13.7336,13.5407,13.3621,13.1292,12.8621,12.6913,12.477,12.2295,11.9858,11.8693,11.8643,11.7193,11.6442,11.652,11.6594,11.6223,11.5257,11.5533,11.4687,9.1494,8.9818,8.8941,9.2425,9.5367,9.9071,10.5429,10.7618,10.9569,11.3838,11.6736,11.979,12.4008,12.7921,13.2102,13.6865,14.0119,14.3098,14.601,14.7098,14.7719,14.8104,14.9424,15.0433,15.0821,15.121,15.1363,15.128,15.208,15.2732,15.3119,15.3615,15.411,15.4806,15.4884,15.5271,15.6122,15.6199,15.6431,15.6895,15.6895,15.6633,15.6216,15.6246,15.5705,15.49,15.459,15.4126,15.3584,15.3119,15.219,15.1184,15.1461,15.0505,14.8649,14.7912,14.6545,14.4905,14.4327,14.3395,14.2341,14.1797,14.1331,14.0787,14.032,13.9699,13.8922,13.7912,13.788,13.8003,13.6372,13.6993,13.8003,13.7614,13.788,13.8191,13.777,13.7414,13.687,13.6294,13.5627,13.5193,13.5503,13.5006,13.432,13.3788,13.2866,13.3211,13.5906,13.6184,13.6882,13.8689,13.799,13.6902,13.5595,13.4353,13.2799,13.0703,12.946,12.7704,12.5092,12.3538,12.1984,12.0508,11.9809,11.9187,11.8721,11.9265,11.9214,11.8264,11.8868,11.8573,9.4202,9.4102,9.5243,9.8919,10.3907,10.8763,11.1941,11.543,11.873,12.1381,12.4669,12.8072,13.1285,13.5005,13.8493,14.1397,14.415,14.6667,14.8494,14.8611,14.8339,14.7912,14.8688,14.9386,14.9581,15.1208,15.221,15.239,15.3693,15.4497,15.4497,15.5271,15.5812,15.5812,15.5967,15.6508,15.7359,15.7592,15.7901,15.8288,15.852,15.8133,15.6973,15.6818,15.6431,15.5657,15.5503,15.4961,15.442,15.3336,15.2377,15.1693,15.1693,15.0851,14.9462,14.8999,14.7912,14.6623,14.5889,14.5147,14.4405,14.3784,14.3007,14.223,14.1641,14.1065,14.0366,13.9233,13.9434,13.9634,13.7492,13.8035,13.9012,13.8611,13.8922,13.9278,13.8979,13.8501,13.788,13.7193,13.6482,13.5969,13.628,13.6125,13.6016,13.6106,13.4762,13.4649,13.7193,13.778,13.8479,13.9589,13.8424,13.7103,13.5969,13.5193,13.3872,13.2162,13.1308,12.9909,12.7811,12.6413,12.4703,12.2606,12.1906,12.1207,12.0585,12.1001,12.1001,12.038,12.1105,12.1067,9.3004,9.4613,9.8634,10.5197,10.9956,11.4886,12.1462,12.448,12.6684,13.0204,13.1676,13.3223,13.5961,13.8564,14.1397,14.4999,14.6748,14.8526,15.0277,14.973,14.8604,14.7021,14.609,14.5896,14.6744,15.0498,15.3319,15.3955,15.4884,15.5425,15.5425,15.6199,15.6663,15.6663,15.7437,15.821,15.9139,15.999,15.999,15.9216,15.999,15.9526,15.7824,15.7127,15.6663,15.6586,15.5812,15.5425,15.5193,15.3491,15.2331,15.1557,15.1557,15.1107,15.042,15.0266,14.8335,14.5547,14.5427,14.4927,14.4378,14.4378,14.3835,14.3094,14.3162,14.1886,14.0532,14.0599,14.1175,14.1719,14.0787,14.1175,14.1486,13.9777,13.9388,13.9233,13.83,13.8067,13.8067,13.8067,13.7368,13.7135,13.7912,13.7368,13.7135,13.7912,13.7082,13.7095,13.8801,14.0507,14.132,14.0497,13.9721,13.859,13.698,13.6125,13.4804,13.3095,13.2085,13.1308,13.0375,12.7889,12.6102,12.517,12.2839,12.1518,12.1518,12.0585,12.0197,12.0197,12.0371,12.0494,9.9207,10.3316,10.85,11.4138,11.9487,12.4402,12.7806,13.1289,13.3574,13.307,13.3408,13.3654,13.3405,13.5503,13.8191,14.1097,14.473,14.8103,15.0851,15.1125,14.9498,14.5505,14.7209,14.7483,14.4423,14.6899,14.999,15.3027,15.4574,15.5889,15.6973,15.8365,15.8984,15.8365,15.9216,15.9526,15.9216,16.0609,16.0918,16.0067,16.0377,16.0222,15.9603,15.8675,15.8365,15.8288,15.7437,15.6818,15.6199,15.558,15.3878,15.1712,15.2176,15.0783,14.8662,14.9901,14.9326,14.7822,14.7328,14.6594,14.6086,14.6086,14.5501,14.4793,14.4216,14.3637,14.2826,14.1703,14.1584,14.1696,14.0764,14.0443,14.032,14.032,13.9777,13.931,13.9,13.9,13.8767,13.8223,13.7802,13.7692,13.799,13.8202,13.8599,13.953,13.8444,13.7907,13.888,13.9616,14.0274,14.1165,14.0074,13.8789,13.7659,13.6404,13.5115,13.3872,13.3017,13.2162,13.1308,13.0531,12.9132,12.7112,12.5636,12.4315,12.3227,12.2373,12.1906,12.1906,12.2039,12.2297,10.6187,11.141,11.6683,12.2428,12.7806,13.2216,13.3572,13.6594,13.8299,13.5508,13.432,13.3183,13.119,13.2201,13.4223,13.6767,14.1097,14.5583,14.989,15.0007,14.8611,14.5731,14.697,14.7012,14.4033,14.5231,14.8131,15.301,15.4931,15.6586,15.8259,16.0299,16.0996,16.0067,16.0918,16.1305,16.0996,16.2079,16.2388,16.1924,16.1537,16.1228,16.0918,16.0299,15.9835,15.9216,15.8597,15.7901,15.7127,15.6508,15.4806,15.2485,15.2718,15.1093,14.8772,15.0165,15.0165,14.9436,14.8639,14.8144,14.768,14.737,14.671,14.6008,14.5465,14.5118,14.4575,14.3488,14.2981,14.255,14.2084,14.1142,14.0476,14.102,14.032,13.9466,13.9777,13.9356,13.8779,13.8579,13.8168,13.7901,13.7969,13.8409,13.8879,13.9849,13.8801,13.8413,13.9654,14.0236,14.0778,14.198,14.0699,13.9375,13.8479,13.6993,13.5581,13.4416,13.3794,13.3095,13.2162,13.1929,13.0764,12.8899,12.7734,12.6413,12.5014,12.4082,12.3693,12.3693,12.3698,12.4035,11.3562,11.8485,12.3388,13.0012,13.4692,13.8138,13.8917,14.0274,14.0508,13.697,13.4182,13.1501,12.878,12.8624,12.9816,13.2581,13.6794,14.1751,14.771,14.7167,14.667,0.0,0.0,0.0,0.0,0.0,14.8165,15.419,15.5875,15.7485,15.9483,16.1818,16.2698,16.1924,16.2698,16.3471,16.4322,16.4322,16.44,16.44,16.3471,16.2698,16.1769,16.1769,16.0918,15.9294,15.9216,15.8675,15.7824,15.6199,15.4961,15.4033,15.3182,15.1789,15.0319,15.117,15.1016,15.0087,14.9314,14.9171,14.9104,14.8329,14.74,14.6822,14.6865,14.6322,14.5586,14.5691,14.5104,14.4483,14.4516,14.3195,14.203,14.203,14.0709,13.9699,14.0476,13.9401,13.8401,13.9177,13.8564,13.7871,13.7871,13.7871,13.8066,13.8957,13.8415,13.8725,14.1126,14.205,14.2626,14.283,14.1283,14.0079,13.9375,13.777,13.6203,13.4493,13.4338,13.3872,13.3095,13.2162,13.1385,13.0608,12.8899,12.7578,12.6724,12.5869,12.5403,12.5403,12.5512,12.5627,12.0487,12.6945,13.2334,13.6007,13.9566,14.2007,14.1085,14.0818,13.8915,13.2442,12.7198,12.1966,11.6296,11.9338,12.3979,12.8521,13.7381,14.6128,15.2589,15.3829,0.0,15.0861,0.0,15.1958,15.0222,15.1061,15.3584,15.7911,15.6726,15.7592,16.1896,16.3316,16.3935,16.3626,16.4477,16.4709,16.4322,16.4941,16.5328,16.5328,16.5019,16.409,16.2698,16.2698,16.1769,16.0067,15.9526,15.8675,15.7901,15.7437,15.5967,15.411,15.3878,15.2021,14.9391,15.0319,15.0087,14.9391,14.9778,15.0023,15.0111,14.9801,14.9224,14.8531,14.7793,14.6977,14.6202,14.5463,14.4848,14.419,14.4305,14.31,14.1851,14.203,14.1175,14.0398,14.0709,14.0288,14.0133,14.0288,13.96,13.876,13.8607,13.8647,13.9189,14.0614,14.0614,14.0537,14.0537,14.0571,14.119,14.2471,14.1162,14.0198,14.0079,13.7978,13.6605,13.628,13.5037,13.4182,13.4027,13.3095,13.2318,13.1385,13.0375,12.9365,12.8511,12.7596,12.7177,12.7177,12.7238,12.7501,12.8212,13.4193,13.8989,14.1577,14.3632,14.3795,13.8841,13.74,13.4275,12.4139,11.8773,11.4208,10.8093,11.3143,11.9488,12.3925,13.5394,14.6323,15.3407,15.5499,15.6152,0.0,15.6431,0.0,15.5132,15.5782,15.7562,16.08,15.8925,15.9187,16.2951,16.4604,16.5405,16.5405,16.587,16.587,16.5405,16.6334,16.6334,16.5637,16.6334,16.5405,16.3007,16.3781,16.2775,16.0531,15.999,15.9139,15.7901,15.7901,15.6586,15.4729,15.4729,15.2795,15.0165,15.0706,15.0629,15.0165,15.0706,15.1139,15.1262,15.0565,14.9757,14.9104,14.8561,14.7597,14.6589,14.6083,14.539,14.4733,14.4307,14.3607,14.2981,14.2973,14.2317,14.1774,14.2196,14.1661,14.0891,14.0467,13.9732,13.9306,13.984,13.9376,13.9495,14.1113,14.1113,14.0881,14.119,14.15,14.1809,14.2119,14.1585,14.1088,14.043,13.9148,13.8056,13.7381,13.6527,13.5394,13.4338,13.3794,13.3017,13.1696,13.1308,13.0608,12.9831,12.9149,12.8994,12.8994,12.8885,12.9196,13.5932,14.043,14.395,14.6341,14.6617,14.411,13.5185,13.252,12.7974,11.4567,11.0232,10.7327,10.2269,10.8156,11.5404,12.0215,13.2539,14.4336,15.2567,15.5204,15.7524,16.0503,16.0299,15.9912,15.999,15.999,16.0996,16.3316,16.2311,16.2128,16.3618,16.5688,16.6875,16.703,16.703,16.703,16.703,16.7726,16.7262,16.5637,16.7262,16.6411,16.3162,16.4864,16.3935,16.0841,16.0609,15.9603,15.8133,15.7901,15.6895,15.5425,15.5425,15.3801,15.1634,15.148,15.1402,15.1325,15.1402,15.1867,15.2331,15.1016,15.001,14.9359,14.9293,14.8216,14.6903,14.6903,14.6322,14.5501,14.4733,14.45,14.4497,14.4497,14.3917,14.3492,14.4419,14.3143,14.1513,14.0537,13.9685,13.9566,14.1036,14.0107,13.972,14.119,14.0803,14.1036,14.2428,14.3202,14.3124,14.1732,14.2204,14.1978,14.0274,14.0198,13.9576,13.8211,13.7935,13.6805,13.4462,13.4416,13.3483,13.1929,13.1929,13.1463,13.0764,13.0841,13.0841,13.0811,13.0671,13.0671,14.1437,14.4925,14.7322,14.8276,14.7004,14.3723,13.6582,13.0112,12.1936,10.9203,10.3492,9.9461,9.5074,10.1243,11.0536,12.1597,13.2489,14.3686,15.5364,15.8616,16.0348,0.0,16.3084,16.3703,16.44,16.4477,16.4864,16.6102,16.6488,16.6566,16.623,16.6566,16.7107,16.7881,16.7881,16.7881,16.7881,16.7958,16.7262,16.5637,16.7262,16.6721,16.409,16.5096,16.4477,16.2465,16.1073,15.9912,15.8907,15.821,15.6895,15.5425,15.5425,15.3801,15.148,15.0783,15.0087,14.9623,15.0319,15.0629,15.0861,15.2021,15.1789,15.1016,15.0288,14.8895,14.7502,14.7502,14.6462,14.5421,14.6005,14.5737,14.5235,14.5315,14.516,14.5082,14.5353,14.4539,14.3143,14.159,14.1085,14.093,14.0417,14.0726,14.1113,14.1422,14.1809,14.2273,14.2583,14.2196,14.1964,14.2428,14.1887,14.1353,14.0351,13.9577,13.9113,13.8879,13.7746,13.6383,13.5296,13.4617,13.3794,13.2784,13.2784,13.2706,13.2629,13.2489,13.2534,13.2534,13.2502,13.2502,14.64,14.9074,15.0738,15.1083,14.8025,14.19,13.0764,12.2713,11.3515,9.9461,9.5368,9.3348,9.0406,9.8213,10.7983,11.6685,12.685,13.8724,15.2788,15.5674,15.8829,16.4864,16.6024,16.6411,16.6875,16.6875,16.7185,16.8113,16.85,16.819,16.6875,16.7185,16.7726,16.8113,16.8113,16.8113,16.8113,16.8113,16.7494,16.6179,16.7494,16.703,16.5019,16.5405,16.4632,16.293,16.1692,16.0377,15.9216,15.8675,15.7592,15.5967,15.558,15.442,15.2795,15.1867,15.1093,15.0397,15.0783,15.0706,15.0397,15.117,15.148,15.1402,15.0629,14.9127,14.7701,14.7225,14.6617,14.6005,14.592,14.5886,14.6005,14.6088,14.6088,14.6047,14.6005,14.5308,14.4492,14.3598,14.3133,14.2824,14.2815,14.2273,14.2196,14.2583,14.2583,14.2815,14.3202,14.2505,14.1964,14.1964,14.1964,14.1654,14.0888,14.0501,14.0119,13.9809,13.8605,13.7202,13.5595,13.5161,13.4416,13.3017,13.3017,13.3017,13.3017,13.2986,13.3032,13.3032,13.3032,13.3032,15.0162,15.2489,15.3689,15.326,14.8456,13.991,12.4969,11.5829,10.6225,9.1484,8.8852,8.8774,8.7603,9.565,10.4619,11.129,12.0405,13.2114,14.8223,15.178,15.6479,16.6102,16.7804,16.819,16.8423,16.8423,16.8732,16.9583,16.966,16.8964,16.7417,16.7804,16.8113,16.8113,16.8113,16.8113,16.8113,16.8113,16.7572,16.6566,16.7572,16.7185,16.5637,16.5637,16.4864,16.3471,16.2079,16.0686,15.9371,15.9139,15.7978,15.6586,15.5889,15.4961,15.4033,15.3104,15.2331,15.1634,15.1634,15.1016,15.0319,15.0474,15.0861,15.117,15.0319,14.8972,14.7744,14.7037,14.6583,14.6279,14.5876,14.623,14.6583,14.6815,14.6815,14.6815,14.6451,14.5987,14.5368,14.5213,14.4594,14.4362,14.5136,14.4207,14.3666,14.4362,14.3898,14.3589,14.413,14.3434,14.2583,14.1732,14.2196,14.2273,14.1732,14.15,14.1198,14.0585,13.9694,13.8098,13.5906,13.586,13.5115,13.3328,13.3328,13.3172,13.3017,13.3017,13.3017,13.3017,13.3017,13.3017,15.179,15.4314,15.5206,15.3528,14.7486,13.8435,12.4576,11.394,10.3185,9.0157,8.6978,8.6666,8.729,9.0797,9.7632,10.967,11.5696,12.5302,14.3374,15.0085,15.6008,16.3753,16.6721,16.8423,16.9196,16.9274,16.9583,17.0511,17.0589,17.0202,16.9196,16.85,16.8113,16.8113,16.8113,16.8113,16.8113,16.8113,16.7262,16.5715,16.7262,16.7185,16.5637,16.5637,16.5483,16.5173,16.2001,16.0531,16.0299,15.8675,15.7514,15.6663,15.6586,15.558,15.4033,15.3104,15.2331,15.1634,15.1634,15.1016,15.0397,15.117,15.1016,15.0319,14.9391,14.8462,14.7689,14.7611,14.6451,14.5722,14.707,14.6993,14.6683,14.7379,14.7611,14.7379,14.6683,14.6374,14.6064,14.5368,14.5136,14.5136,14.5213,14.5677,14.6219,14.6219,14.6219,14.5909,14.5213,14.4285,14.3434,14.2583,14.2583,14.2583,14.2505,14.1809,14.1422,14.1311,13.9926,13.8258,13.6589,13.6727,13.5969,13.4182,13.4182,13.3794,13.3017,13.3017,13.3017,13.3017,13.3017,13.3017,15.1869,15.5244,15.6134,15.4268,14.5894,13.4804,12.2713,11.0576,9.8955,8.8759,8.5885,8.5573,8.6431,8.9477,9.4614,10.3318,10.6533,11.3515,12.9713,13.5673,14.3066,15.5267,16.117,16.556,16.9119,17.0279,17.0976,17.144,17.144,17.1285,17.0898,17.0125,16.9428,16.8887,16.8887,16.8577,16.8113,16.8113,16.7804,16.7107,16.7804,16.7804,16.7107,16.6102,16.5637,16.5483,16.3084,16.1382,16.0377,15.9835,15.8675,15.7282,15.6276,15.5503,15.4729,15.3336,15.2331,15.1634,15.1634,15.1016,15.0319,15.0087,15.0165,15.0087,14.9314,14.8772,14.8462,14.8462,14.7998,14.7611,14.8308,14.7921,14.7302,14.7611,14.7689,14.7611,14.7302,14.7611,14.7689,14.6915,14.7611,14.7921,14.6915,14.7379,14.7689,14.6683,14.6528,14.6219,14.5291,14.4904,14.4517,14.4207,14.3202,14.2815,14.3279,14.2196,14.162,14.2204,14.0196,13.8608,13.7478,13.7004,13.6216,13.5115,13.5115,13.4726,13.3794,13.3794,13.3483,13.3017,13.3017,13.3017,14.9501,15.4195,15.6093,15.4113,14.4533,13.2455,12.1183,10.8277,9.6274,8.751,8.526,8.5026,8.5573,8.8383,9.2365,9.7831,10.0207,10.6299,12.0331,12.5978,13.3608,14.694,15.3301,15.9141,16.5476,16.9789,17.2213,17.1904,17.2136,17.2213,17.1904,17.1594,17.0821,16.9428,16.9428,16.8964,16.8113,16.8113,16.7881,16.7417,16.7881,16.7726,16.6875,16.6024,16.5483,16.5096,16.3394,16.1769,16.0531,16.0222,15.9216,15.7824,15.6276,15.558,15.5193,15.3723,15.2718,15.2021,15.2021,15.1402,15.0629,15.001,15.001,15.0165,14.9623,14.9391,14.9391,14.9391,14.9391,14.9391,14.9391,14.8927,14.8385,14.8076,14.8076,14.7998,14.7766,14.8385,14.8772,14.823,14.9314,14.9932,14.8695,14.9236,14.9314,14.7766,14.7611,14.7225,14.6064,14.5909,14.5677,14.5291,14.4285,14.3975,14.4594,14.3124,14.2394,14.3098,14.1048,13.9345,13.8295,13.7823,13.7038,13.5938,13.5938,13.5472,13.4726,13.4384,13.3996,13.3405,13.3095,13.3095,14.3835,15.0703,15.5043,15.24,14.3488,13.2377,12.0329,10.7928,9.6118,8.673,8.4792,8.4792,8.4792,8.6978,9.0101,9.4473,9.869,10.5993,11.8712,12.4929,13.1179,13.9695,14.3088,14.8279,15.7375,16.7257,17.2832,17.1981,17.2678,17.2832,17.1904,17.2678,17.1981,16.9506,16.9428,16.8964,16.8113,16.8113,16.7262,16.5637,16.7262,16.6798,16.44,16.5173,16.5096,16.4168,16.2465,16.1305,16.0377,15.9603,15.8675,15.7824,15.6973,15.6199,15.5271,15.442,15.3491,15.2795,15.2795,15.2331,15.1634,15.1634,15.1016,15.0319,15.0319,15.0319,15.0319,15.0319,15.0319,15.0319,15.0319,15.0319,15.0087,14.9159,14.9004,14.8772,14.7921,14.8385,14.9004,14.9004,14.97,15.0319,15.0319,15.1016,15.1325,15.0397,15.0319,14.9623,14.7921,14.7689,14.6993,14.5368,14.5987,14.6528,14.6528,14.4904,14.3898,14.3898,14.2359,14.0738,13.9112,13.9226,13.8479,13.6693,13.6693,13.6261,13.5581,13.4708,13.4165,13.426,13.3405,13.3483,13.0803,13.6011,13.8596,13.5285,12.8001,11.9531,11.1043,10.1983,9.3513,8.7049,8.5182,8.4948,8.5573,8.7837,9.1741,9.8377,10.2125,10.6801,11.4411,12.4228,13.3293,14.057,15.5439,16.6393,17.0035,17.3091,17.4612,17.3683,17.3915,17.3993,17.3683,17.2832,17.1672,17.0279,17.0279,16.9583,16.8113,16.8113,16.7804,16.7262,16.7804,16.7417,16.6024,16.5715,16.4786,16.3316,16.2233,16.0918,15.9526,15.8675,15.7824,15.6895,15.5503,15.4806,15.442,15.3491,15.3027,15.2795,15.2795,15.264,15.2331,15.1789,15.1789,15.1867,15.1402,15.0783,15.0397,15.1016,15.117,15.117,15.117,15.0706,15.0165,15.001,14.9932,14.9778,14.9468,15.0165,15.0629,15.001,15.1016,15.1634,15.0474,15.148,15.1712,14.97,15.0397,15.0629,14.8772,14.9081,14.9004,14.7921,14.7998,14.7689,14.6606,14.4904,14.4207,14.4826,14.2704,14.1198,14.0738,14.0314,13.9805,13.9333,13.9401,13.8734,13.729,13.7025,13.6326,13.5193,13.4338,13.4416,12.0175,12.6081,12.8832,12.6575,12.0188,11.2693,10.652,9.8759,9.1507,8.6588,8.4948,8.4558,8.5416,0.0,9.0882,9.6738,10.072,10.5084,11.1211,12.1968,13.3007,14.2669,15.9237,17.0327,17.1508,17.4407,17.5927,17.5076,17.4689,17.438,17.3993,17.2987,17.1904,17.0666,17.0434,16.9506,16.8113,16.8113,16.7804,16.7185,16.7804,16.7107,16.5405,16.5483,16.4477,16.2465,16.1924,16.0686,0.0,15.8288,15.7437,15.6508,15.4806,15.411,15.4033,15.3104,15.2795,15.2795,15.3182,15.3104,15.2795,15.264,15.2718,15.2718,15.2176,15.1712,15.1402,15.1867,15.2099,15.2099,15.2099,15.1402,15.0783,15.0783,15.0474,15.0319,15.0319,15.1016,15.1402,15.0861,15.1867,15.2485,15.1402,15.2099,15.2021,14.9778,15.0397,15.0629,14.9159,14.9468,14.97,14.9468,14.9159,14.8617,14.7534,14.56,14.4594,14.5213,14.3124,14.1698,14.1513,14.1089,14.0777,14.0497,14.0643,13.9977,13.8611,13.799,13.687,13.5518,13.5006,13.527,0.0,11.9021,12.3258,12.2972,11.7174,11.0121,10.5134,0.0,0.0,0.0,0.0,0.0,0.0,0.0,0.0,9.1585,9.6269,10.209,10.939,12.0097,13.238,14.6401,15.6875,16.3615,16.4822,17.2291,17.6778,17.5927,17.5076,17.4225,17.3374,17.3219,17.2291,17.0666,16.9815,16.8887,16.8113,16.8113,16.7262,16.5715,16.7262,16.6334,16.3084,16.4709,16.4013,16.1614,16.146,16.0609,15.8984,15.8133,15.7282,15.6431,15.4729,15.4033,15.4033,15.3182,15.2872,15.3027,15.3801,15.3491,15.2872,15.3723,15.3491,15.2795,15.2795,15.2795,15.2795,15.2795,15.2795,15.2795,15.2795,15.2176,15.1712,15.1712,15.1093,15.0474,15.0474,15.1093,15.1712,15.1712,15.2331,15.2795,15.2795,15.2795,15.2331,15.0629,15.0397,15.0165,14.9314,14.9159,14.9623,15.0319,14.97,14.9081,14.9004,14.6683,14.5291,14.5291,14.3666,14.2394,14.1745,14.1787,14.1475,14.073,14.0575,14.0221,13.9466,13.7834,13.6482,13.5607,13.5673,13.6203,9.6675,0.0,10.353,10.0877,9.926,9.7241,0.0,0.0,0.0,0.0,0.0,0.0,0.0,0.0,0.0,0.0,10.2828,10.6783,11.2368,13.0232,0.0,15.7302,16.7354,17.2213,16.8764,17.4304,17.7629,17.6778,17.6004,17.5385,17.5231,17.2678,17.113,17.0666,16.9196,16.8268,16.8113,16.8113,16.7572,16.6488,16.6875,16.6024,16.4013,16.3703,16.262,16.0686,16.0067,15.9216,15.8133,15.6586,15.5889,15.5503,15.3801,15.3491,15.411,15.3878,15.3801,15.3801,15.4033,15.3491,15.2795,15.3027,15.3027,15.2795,15.2795,15.2795,15.2795,15.2795,15.2795,15.2795,15.2795,15.2718,15.2485,15.2485,15.2408,15.2176,15.2176,15.2408,15.2485,15.2485,15.2718,15.2795,15.2795,15.2795,15.2485,15.1402,15.1789,15.1867,15.1093,15.148,15.1712,15.1325,15.1093,15.0397,14.9081,14.7302,14.6219,14.6219,14.5213,14.4207,14.34,14.353,14.3221,14.2406,14.1929,14.122,14.0398,13.8689,13.7679,13.7414,13.6838,13.7271,8.954,9.3529,9.6738,9.5254,9.4317,9.3224,9.096,0.0,0.0,0.0,0.0,0.0,0.0,0.0,0.0,0.0,10.3619,11.0622,12.2299,13.6824,15.0783,16.3038,16.9475,17.3324,17.42,17.629,17.7706,17.7629,17.6082,17.5231,17.5231,17.2678,17.113,17.0666,16.9428,16.85,16.8113,16.7726,16.7262,16.6798,16.6411,16.556,16.4322,16.3394,16.2079,16.0377,15.9216,15.8133,15.7205,15.5503,15.4806,15.4729,15.3336,15.3104,15.3491,15.3491,15.3491,15.3569,15.4033,15.3801,15.3336,15.2872,15.2795,15.2795,15.2795,15.2795,15.2795,15.2795,15.2795,15.2795,15.2795,15.2485,15.2331,15.2718,15.2485,15.2408,15.2718,15.2795,15.2795,15.2795,15.2795,15.2795,15.2795,15.2795,15.2485,15.1712,15.2021,15.2099,15.1712,15.2021,15.2176,15.2176,15.148,15.0629,14.97,14.7998,14.6915,14.6528,14.5677,14.5025,14.4604,14.4652,14.4423,14.3607,14.2507,14.1686,14.1187,13.99,13.9045,13.8479,13.8091,13.8211,8.7681,9.2514,9.6644,9.6425,9.4864,9.3146,9.1975,0.0,0.0,0.0,0.0,0.0,0.0,9.0813,0.0,0.0,10.4276,11.5583,13.4611,14.2282,15.1089,16.5132,16.8361,17.1775,17.7683,17.7474,17.7319,17.8016,17.5927,17.438,17.4302,17.2678,17.1285,17.0511,16.9506,16.8732,16.8113,16.7185,16.6721,16.6566,16.5715,16.4709,16.3935,16.293,16.1614,16.0222,15.852,15.7282,15.646,15.4759,15.4062,15.3985,15.3057,15.2902,15.298,15.3027,15.3027,15.3104,15.3723,15.3878,15.3801,15.3027,15.2795,15.2795,15.2795,15.2795,15.2795,15.2795,15.2795,15.2795,15.2795,15.2331,15.2021,15.264,15.2331,15.2021,15.2718,15.2795,15.2795,15.2795,15.2795,15.2795,15.2795,15.2795,15.264,15.1867,15.1789,15.1789,15.1789,15.1789,15.2021,15.2718,15.148,15.0629,15.0319,14.8927,14.7689,14.6683,14.5987,14.5567,14.5541,14.5308,14.4888,14.4378,14.3007,14.2075,14.1774,14.122,14.041,13.9303,13.9375,13.9142,9.1194,9.5504,9.7019,9.1492,9.0882,9.1038,0.0,0.0,0.0,0.0,0.0,0.0,0.0,9.7544,10.0685,0.0,11.5113,12.6808,14.2826,14.9998,15.6525,16.3975,17.0692,17.3968,17.2291,17.5129,17.7087,17.7165,17.5463,17.4225,17.3374,17.1827,17.0511,16.9583,16.7958,16.7494,16.8113,16.7185,16.6488,16.5792,16.4168,16.293,16.2001,16.0531,15.9603,15.9294,15.7592,15.6692,15.6284,15.4583,15.3865,15.3736,15.2911,15.3115,15.3733,15.3908,15.3878,15.3801,15.3182,15.3027,15.3027,15.2795,15.2795,15.2795,15.2795,15.2795,15.2795,15.2795,15.2795,15.2795,15.2795,15.2718,15.264,15.2795,15.2718,15.264,15.2795,15.2795,15.2795,15.2795,15.2795,15.2795,15.2795,15.2795,15.2795,15.264,15.264,15.264,15.264,15.264,15.2718,15.2795,15.264,15.1789,15.0397,15.0087,14.9236,14.7611,14.7379,14.696,14.6393,14.508,14.4422,14.4378,14.3517,14.2729,14.203,14.1874,14.1331,14.0521,14.0376,14.0575,8.854,9.21,9.449,9.3621,9.5368,9.6419,0.0,0.0,0.0,0.0,0.0,0.0,0.0,0.0,10.9583,11.9991,12.7578,13.5783,14.5972,15.0934,15.6584,16.4966,16.8623,17.1311,17.3943,17.4587,17.5308,17.6314,17.4766,17.3606,17.3219,17.1594,17.0279,16.9428,16.7726,16.703,16.7417,16.6102,16.5715,16.6179,16.3626,16.2311,16.2311,16.0222,15.8858,15.8267,15.6643,15.5461,15.4817,15.3582,15.3067,15.3014,15.2604,15.2732,15.3118,15.3192,15.3289,15.3336,15.2872,15.2795,15.2795,15.2795,15.2795,15.2795,15.2795,15.2795,15.2795,15.2795,15.2795,15.2795,15.2795,15.2795,15.2795,15.2795,15.2795,15.2795,15.2795,15.2795,15.2795,15.2795,15.2795,15.2795,15.2795,15.2795,15.2795,15.2795,15.2795,15.2795,15.2795,15.2795,15.2795,15.2795,15.2408,15.1789,15.1093,15.0629,14.9623,14.7844,14.7689,14.7457,14.7236,14.6083,14.5585,14.5701,14.4419,14.3602,14.3284,14.2818,14.2049,14.1124,14.1124,14.1087,8.7446,9.0087,9.3018,9.6759,0.0,0.0,0.0,0.0,0.0,0.0,0.0,0.0,0.0,10.9933,11.9059,13.2019,13.8486,14.399,15.0085,15.3493,15.8488,16.7337,16.7973,17.0072,17.6082,17.4766,17.3993,17.5076,17.3761,17.2678,17.2291,17.113,16.9892,16.8809,16.7262,16.6488,16.636,16.4632,16.44,16.587,16.2802,16.1565,16.2029,15.9813,15.8371,15.7572,15.5873,15.474,15.3887,15.2807,15.2344,15.229,15.2344,15.2397,15.2397,15.2629,15.2574,15.27,15.2795,15.2795,15.2825,15.2795,15.2795,15.2795,15.2795,15.2795,15.2795,15.2795,15.2872,15.3104,15.2872,15.3027,15.3104,15.2795,15.3027,15.3027,15.2795,15.3027,15.3027,15.2795,15.3027,15.3027,15.2795,15.2795,15.2795,15.2795,15.2795,15.2795,15.2795,15.2795,15.2795,15.2795,15.2176,15.1789,15.1634,15.0783,14.97,14.8385,14.8076,14.7998,14.7998,14.7125,14.6667,14.6788,14.5276,14.4615,14.4724,14.3757,14.2986,14.2213,14.2019,14.1632,9.2678,9.449,9.5186,0.0,0.0,0.0,0.0,0.0,0.0,0.0,0.0,0.0,0.0,11.9287,12.8521,13.7517,14.4992,15.2138,15.8693,16.3134,16.7236,17.1105,17.291,17.438,17.5772,17.4999,17.407,17.3374,17.2523,17.1285,16.9815,16.9583,16.8732,16.703,16.6102,16.5586,16.5351,16.3111,16.2388,16.3316,16.1282,15.9942,15.9247,15.8137,15.7621,15.7412,15.5715,15.4889,15.4492,15.2874,15.2125,15.201,15.2202,15.229,15.2397,15.2629,15.2552,15.2449,15.27,15.27,15.2651,15.2825,15.2795,15.2795,15.2795,15.2795,15.2795,15.2795,15.3414,15.3801,15.3027,15.3414,15.3801,15.3027,15.3414,15.3801,15.3027,15.3414,15.3801,15.3027,15.3491,15.3723,15.2872,15.2795,15.2795,15.2795,15.2795,15.2795,15.2795,15.2795,15.2795,15.2795,15.2718,15.2408,15.1712,15.0783,15.0165,15.0087,14.9391,14.8927,14.8927,14.7434,14.6667,14.6788,14.6012,14.5578,14.5682,14.4802,14.43,14.4223,14.3181,14.2833,8.8618,9.1749,9.4938,0.0,0.0,0.0,0.0,0.0,0.0,0.0,0.0,0.0,0.0,0.0,13.6391,14.2895,15.0665,15.7578,16.2156,16.6102,16.9274,17.1594,17.2523,17.3374,17.4921,17.3683,17.2987,17.3219,17.2315,17.1333,17.0096,16.8982,16.7823,16.6641,16.5196,16.4447,16.4578,16.2438,16.128,16.1125,16.0019,15.9272,15.8832,15.7389,15.6355,15.576,15.4603,15.3721,15.2992,15.2241,15.201,15.2029,15.2087,15.2202,15.229,15.2344,15.2344,15.2449,15.2602,15.2574,15.2602,15.2825,15.2795,15.2795,15.2795,15.2795,15.2795,15.2795,15.3414,15.3878,15.3027,15.3801,15.4574,15.3104,15.3491,15.3878,15.3027,15.3491,15.3801,15.3027,15.3491,15.3801,15.3027,15.2795,15.2795,15.2795,15.2795,15.2795,15.2795,15.2795,15.2795,15.2795,15.2795,15.2718,15.2408,15.2021,15.1867,15.1867,15.0629,14.9623,14.9004,14.843,14.7899,14.7519,14.6708,14.6323,14.636,14.562,14.5195,14.5081,14.4074,14.3686,8.68,8.9564,9.3471,9.8042,0.0,0.0,0.0,0.0,0.0,0.0,0.0,0.0,0.0,0.0,14.0469,14.6517,15.4293,16.0918,16.4632,16.7804,17.0125,17.0976,17.1594,17.2291,17.3219,17.2213,17.1594,17.1928,17.1278,17.0528,16.9622,16.8119,16.6884,16.6223,16.4568,16.3642,16.3234,16.1635,16.0366,15.9538,15.8801,15.8316,15.7898,15.6608,15.5494,15.4589,15.3819,15.2992,15.2414,15.2106,15.2029,15.2029,15.2029,15.2087,15.2125,15.2257,15.2236,15.229,15.2501,15.2474,15.2552,15.27,15.2825,15.2795,15.2795,15.2795,15.2872,15.3104,15.3801,15.442,15.3801,15.4729,15.5425,15.3569,15.3878,15.4265,15.3414,15.3878,15.4265,15.3723,15.411,15.4187,15.3414,15.3027,15.2795,15.2795,15.2795,15.2795,15.2795,15.2795,15.2795,15.2795,15.2795,15.2795,15.2795,15.2795,15.2795,15.2795,15.1712,15.0706,14.9932,14.9314,14.8817,14.8329,14.7709,14.7405,14.7215,14.671,14.6322,14.5896,14.5043,14.4539,8.8784,8.9252,9.1092,9.6109,0.0,0.0,0.0,0.0,0.0,0.0,0.0,0.0,0.0,13.6814,14.0426,14.8107,15.561,16.2001,16.6179,16.8964,17.0434,16.9506,17.0898,17.1594,17.0821,17.0666,17.0304,16.9291,16.9214,16.8695,16.7675,16.6826,16.5978,16.5129,16.4203,16.2911,16.1119,16.0443,15.9404,15.8261,15.7593,15.6804,15.6033,15.5859,15.5338,15.4414,15.3568,15.326,15.3183,15.2414,15.2029,15.2029,15.2029,15.2029,15.1952,15.2125,15.2068,15.201,15.229,15.2397,15.2449,15.2552,15.27,15.2795,15.2795,15.2795,15.3027,15.3878,15.4729,15.5425,15.5425,15.6122,15.6276,15.4497,15.4806,15.5193,15.4342,15.4806,15.5425,15.5425,15.5425,15.5116,15.4187,15.3414,15.2795,15.2795,15.2795,15.2795,15.2795,15.2795,15.2795,15.2795,15.2795,15.2795,15.2795,15.2795,15.2795,15.2795,15.2795,15.2408,15.1634,14.9932,14.9049,14.9181,14.9181,14.8919,14.8182,14.8068,14.768,14.6862,14.5896,14.5043,8.7745,8.9988,0.0,0.0,0.0,0.0,0.0,0.0,0.0,0.0,0.0,14.3291,14.2705,14.4849,14.7555,15.0627,15.6772,16.262,16.6256,16.85,16.966,16.9428,17.0434,17.0923,17.0505,17.0505,17.0296,16.9894,16.8697,16.7558,16.665,16.4663,16.2985,16.2256,16.129,16.0597,16.0194,15.9288,15.8613,15.8261,15.6936,15.609,15.5782,15.5184,15.4414,15.3568,15.2799,15.2414,15.2414,15.2106,15.2029,15.2029,15.2029,15.2029,15.2029,15.201,15.201,15.1952,15.218,15.229,15.2449,15.2552,15.27,15.2795,15.2795,15.2795,15.3027,15.3878,15.4729,15.5503,15.6199,15.6895,15.7127,15.5425,15.5193,15.5271,15.5116,15.5735,15.5967,15.4729,15.4961,15.4884,15.3414,15.3027,15.2795,15.2795,15.2795,15.2795,15.2795,15.2795,15.2795,15.2795,15.2795,15.2795,15.2795,15.2795,15.2795,15.2795,15.2795,15.2408,15.1634,15.1093,15.0597,15.0111,14.9491,14.911,14.8999,14.8416,14.799,14.7793,14.6904,14.6284,8.952,0.0,0.0,0.0,0.0,0.0,0.0,0.0,0.0,0.0,0.0,14.8531,14.8494,14.9801,15.1681,15.426,15.9157,16.3781,16.6875,16.85,16.9274,16.8887,16.9608,16.9941,16.9523,16.939,16.9045,16.862,16.7575,16.6374,16.5018,16.3108,16.1647,16.0939,16.0108,15.9476,15.9152,15.8322,15.7569,15.7338,15.5876,15.5107,15.4799,15.4261,15.3568,15.2799,15.2183,15.2029,15.2029,15.2029,15.2029,15.2029,15.2029,15.2029,15.2029,15.2029,15.201,15.2145,15.2202,15.229,15.2501,15.2602,15.27,15.2795,15.2795,15.3027,15.3491,15.442,15.5193,15.6122,15.6973,15.7282,15.7205,15.6199,15.5889,15.5812,15.5503,15.5812,15.5889,15.4806,15.4806,15.4497,15.3491,15.3027,15.2795,15.2795,15.2795,15.2795,15.2795,15.2795,15.2795,15.2795,15.2795,15.2795,15.2795,15.2795,15.2795,15.2795,15.2795,15.264,15.2099,15.1789,15.1371,15.0874,15.01,14.9491,14.9265,14.88,14.8571,14.8725,14.7758,14.7525,9.3007,0.0,0.0,0.0,0.0,0.0,0.0,0.0,15.1848,15.4853,0.0,15.0783,15.3104,15.3027,15.411,15.8907,16.2311,16.5328,16.7804,16.8809,16.8964,16.819,16.865,16.8828,16.7845,16.781,16.7249,16.6204,16.6127,16.5157,16.2917,16.2199,16.1276,16.0227,15.9584,15.88,15.803,15.7184,15.6492,15.5722,15.4799,15.403,15.326,15.326,15.2799,15.2029,15.2029,15.2029,15.2029,15.2029,15.2029,15.2029,15.2029,15.2029,15.2029,15.2029,15.2145,15.2257,15.218,15.2421,15.2602,15.2602,15.27,15.2872,15.2795,15.3491,15.442,15.5193,15.5967,15.6895,15.7669,15.7359,15.6818,15.6818,15.6663,15.6431,15.558,15.5425,15.5425,15.5271,15.4574,15.411,15.4033,15.3336,15.2795,15.2795,15.2795,15.2795,15.2795,15.2795,15.2795,15.2795,15.2795,15.2795,15.2795,15.2795,15.2795,15.2795,15.2795,15.2795,15.2795,15.2099,15.1712,15.1712,15.0861,15.0055,14.9413,14.9336,14.9384,14.9579,14.8688,14.8726,9.4193,9.8549,0.0,0.0,13.1404,14.3366,14.8508,15.2609,15.5395,15.5425,15.7282,15.8907,15.8907,15.9216,16.0299,16.2775,16.44,16.6024,16.7804,16.8268,16.8293,16.7955,16.8673,16.8793,16.7558,16.8114,16.7514,16.5172,16.5018,16.3647,16.0507,16.0185,15.9108,15.6893,15.6723,15.6184,15.5261,15.5107,15.503,15.4799,15.3876,15.3491,15.326,15.326,15.2799,15.2029,15.2029,15.2029,15.2029,15.2029,15.2029,15.2029,15.2029,15.2029,15.2029,15.2029,15.1952,15.2087,15.2202,15.229,15.2449,15.2552,15.3241,15.3723,15.3027,15.3878,15.5193,15.5271,15.5967,15.6895,15.7669,15.7824,15.7592,15.7592,15.6586,15.558,15.5425,15.5425,15.5193,15.4497,15.4187,15.3878,15.3182,15.2872,15.2795,15.2795,15.2795,15.2795,15.2795,15.2795,15.2795,15.2795,15.2795,15.2795,15.2795,15.2795,15.2795,15.2795,15.2795,15.2795,15.2795,15.264,15.2609,15.27,15.1758,15.1294,15.1195,15.041,15.0188,15.0395,15.02,14.9774,9.7381,0.0,0.0,12.8495,0.0,15.0087,15.2331,15.5116,15.7127,15.6663,15.8675,16.0531,16.0531,16.1769,16.3394,16.4709,16.6024,16.7107,16.7958,16.7984,16.8008,16.7901,16.8176,16.808,16.7514,16.7375,16.662,16.4801,16.3878,16.2339,15.9599,15.92,15.7969,15.5678,15.5662,15.5415,15.4491,15.4107,15.3876,15.3876,15.3106,15.2722,15.2722,15.2722,15.2414,15.2029,15.2029,15.2029,15.2029,15.2029,15.2029,15.2029,15.2029,15.2029,15.2029,15.2029,15.201,15.2068,15.2202,15.2344,15.2578,15.3143,15.3318,15.3491,15.3414,15.4265,15.5271,15.4884,15.5735,15.6663,15.6663,15.6663,15.6663,15.6663,15.6431,15.5889,15.5503,15.5116,15.4497,15.3569,15.3491,15.3336,15.2872,15.2795,15.2795,15.2795,15.2795,15.2795,15.2795,15.2795,15.2795,15.2795,15.2795,15.2795,15.2795,15.2795,15.2795,15.2795,15.2795,15.2795,15.2795,15.2795,15.2841,15.2887,15.199,15.1603,15.1726,15.0675,15.0565,15.1125,15.0231,15.0118,9.9052,0.0,12.3975,13.9304,14.7689,0.0,15.3801,15.6122,15.7901,15.7669,15.8675,15.9912,16.0609,16.2775,16.4786,16.5715,16.7107,16.8113,16.8113,16.8008,16.7901,16.7845,16.7617,16.7283,16.699,16.6172,16.5186,16.3878,16.257,16.0969,15.8844,15.8431,15.7277,15.5232,15.5431,15.5107,15.4107,15.3414,15.3106,15.3106,15.2337,15.2029,15.2029,15.2029,15.2029,15.2029,15.2029,15.2029,15.2029,15.2029,15.2029,15.2029,15.2029,15.2029,15.2029,15.2029,15.2087,15.2202,15.218,15.2344,15.2706,15.3606,15.3501,15.3212,15.411,15.4806,15.5193,15.4497,15.5425,15.6276,15.558,15.5425,15.5425,15.558,15.6122,15.6199,15.5425,15.4497,15.3723,15.2872,15.2795,15.2795,15.2795,15.2795,15.2795,15.2795,15.2795,15.2795,15.2795,15.2872,15.3027,15.2795,15.2872,15.3027,15.2795,15.2795,15.2795,15.2795,15.2795,15.2795,15.2795,15.2795,15.2795,15.2795,15.2021,15.1712,15.1789,15.0861,15.0984,15.1892,15.041,15.0333,9.3648,11.0224,12.9306,14.1775,14.9932,15.4806,15.4187,15.6122,15.7669,15.6973,15.9294,16.1382,16.146,16.3703,16.5715,16.6488,16.7494,16.8113,16.8113,16.8008,16.7923,16.7733,16.7481,16.6759,16.5172,16.4878,16.357,16.0493,16.08,15.9723,15.6354,15.7646,15.6876,15.3722,15.4337,15.3876,15.2337,15.2183,15.2183,15.2183,15.2106,15.2029,15.2029,15.2029,15.2029,15.2029,15.2029,15.2029,15.2029,15.2029,15.2029,15.2029,15.2029,15.2029,15.2029,15.2029,15.1952,15.201,15.2202,15.218,15.2444,15.3505,15.3761,15.3888,15.4913,15.5271,15.5425,15.5271,15.5425,15.5503,15.5425,15.5425,15.558,15.6276,15.5967,15.5271,15.4497,15.3569,15.2872,15.2795,15.2795,15.2795,15.2795,15.2795,15.2795,15.2795,15.2795,15.2795,15.2795,15.3491,15.3569,15.2872,15.3491,15.3569,15.2872,15.2795,15.2795,15.2795,15.2795,15.2795,15.2795,15.2795,15.2795,15.2795,15.2021,15.1867,15.264,15.1789,15.1913,15.2822,15.2589,15.1815,10.4191,11.8099,13.1787,14.3555,15.001,15.3491,15.4574,15.6122,15.7282,15.7359,15.8907,16.0377,16.0918,16.3084,16.5019,16.5328,16.6102,16.6746,16.7235,16.7073,16.7192,16.7481,16.699,16.6172,16.5417,16.4493,16.3031,16.0493,15.98,15.8415,15.5876,15.603,15.5261,15.3414,15.3568,15.3183,15.2029,15.2029,15.1799,15.1337,15.1799,15.1722,15.1337,15.1799,15.2029,15.2029,15.2029,15.2029,15.2029,15.2029,15.2029,15.2029,15.2029,15.2029,15.2029,15.2029,15.2029,15.1952,15.2087,15.2125,15.2412,15.3424,15.3453,15.3196,15.4274,15.4633,15.4478,15.411,15.4265,15.4574,15.411,15.3878,15.4265,15.558,15.4884,15.411,15.4729,15.411,15.3414,15.2872,15.2795,15.2795,15.2795,15.2795,15.2795,15.2795,15.2795,15.2795,15.2795,15.3569,15.3801,15.2872,15.3569,15.3723,15.2872,15.2795,15.2795,15.2795,15.2795,15.2795,15.2795,15.2795,15.2795,15.2795,15.2021,15.1789,15.2099,15.1789,15.1835,15.219,15.219,15.1494,10.97,11.9474,12.7612,14.0893,14.7004,15.0642,15.3955,15.5812,15.6895,15.7514,15.852,15.9371,15.999,16.2311,16.4013,16.4322,16.4968,16.5766,16.651,16.6266,16.6093,16.6358,16.5927,16.534,16.4416,16.3416,16.1877,15.98,15.8415,15.6876,15.5338,15.4722,15.403,15.303,15.3183,15.2876,15.2029,15.2029,15.1568,15.0721,15.1568,15.1491,15.0721,15.1414,15.1799,15.2029,15.2029,15.2029,15.2029,15.2029,15.2029,15.2029,15.2029,15.2029,15.2029,15.2029,15.2029,15.2029,15.2029,15.2087,15.2279,15.3182,15.3061,15.2628,15.3813,15.3865,15.3529,15.3164,15.3366,15.3598,15.3027,15.2795,15.3182,15.4961,15.442,15.3723,15.4574,15.4187,15.3569,15.2872,15.2795,15.2795,15.2795,15.2795,15.2795,15.2795,15.2795,15.2795,15.2795,15.3569,15.3801,15.2872,15.3569,15.3723,15.2872,15.2795,15.2795,15.2795,15.2795,15.2795,15.2795,15.2795,15.2795,15.2795,15.2021,15.1634,15.1634,15.1402,15.1402,15.1634,15.1789,15.1402,9.9552,10.5958,11.2871,13.0296,13.9614,14.6128,15.1681,15.4884,15.6663,15.6818,15.8133,15.9216,15.9294,16.1305,16.3316,16.4168,16.4916,16.5583,16.651,16.5746,16.4663,16.3893,16.4387,16.3493,16.0185,16.0569,15.9569,15.6338,15.603,15.5184,15.3491,15.4107,15.3799,15.2106,15.2876,15.2876,15.2029,15.2029,15.1568,15.0721,15.1568,15.1491,15.0721,15.0721,15.1183,15.2029,15.2029,15.2029,15.2029,15.2029,15.2029,15.2029,15.2029,15.2029,15.2029,15.2029,15.2029,15.2029,15.2029,15.2029,15.2241,15.3203,15.2874,15.2621,15.4349,15.3786,15.2681,15.3556,15.3297,15.2728,15.2825,15.2795,15.3182,15.4961,15.5271,15.4806,15.3336,15.2872,15.2872,15.2795,15.2795,15.2795,15.2795,15.2795,15.2795,15.2795,15.2795,15.2795,15.2795,15.3569,15.3801,15.2872,15.3569,15.3723,15.2872,15.2795,15.2795,15.2795,15.2795,15.2795,15.2795,15.2795,15.2795,15.2795,15.2021,15.1634,15.1634,15.0783,15.0783,15.1634,15.2408,15.2331,9.62,10.3325,11.1237,12.2972,13.2968,14.1087,14.477,15.0532,15.5038,15.5038,15.6431,15.7824,15.8288,16.0404,16.1978,16.1924,16.2801,16.3697,16.395,16.3548,16.3293,16.354,16.2786,16.18,16.0569,15.9723,15.8338,15.603,15.5261,15.4184,15.2568,15.2722,15.2568,15.2029,15.2337,15.2337,15.2029,15.1414,15.0721,14.9875,15.0798,15.0721,14.9875,15.0491,15.0875,15.1183,15.1183,15.1491,15.2029,15.2029,15.2029,15.2029,15.2029,15.2029,15.2029,15.2029,15.2029,15.2029,15.2029,15.2029,15.2106,15.2395,15.2241,15.2222,15.3006,15.2775,15.2367,15.2835,15.2783,15.2602,15.2728,15.3212,15.3878,15.5116,15.5425,15.5116,15.3878,15.3569,15.3491,15.2872,15.2795,15.2795,15.2795,15.2795,15.2795,15.2795,15.2795,15.2795,15.2795,15.3569,15.4033,15.3723,15.3878,15.4033,15.3723,15.3104,15.2795,15.2795,15.2795,15.2795,15.2795,15.2795,15.2795,15.2795,15.2021,15.1634,15.1634,15.1325,15.1325,15.1634,15.2408,15.2408,9.1805,9.8176,10.6319,11.6763,12.4398,13.1588,13.9841,14.5468,14.9713,15.1867,15.4497,15.6508,15.7311,15.9221,16.0612,16.0482,16.1256,16.1811,16.2119,16.1717,16.1461,16.1647,16.1031,16.0108,15.9338,15.8415,15.7107,15.5107,15.4414,15.3491,15.2106,15.2029,15.1875,15.1568,15.1568,15.1568,15.1568,15.0721,15.0029,14.949,15.0029,14.9875,14.9106,14.9567,15.0029,15.0337,15.0029,15.0414,15.1183,15.1491,15.1568,15.1568,15.1875,15.2029,15.2029,15.2029,15.2029,15.2029,15.2029,15.2029,15.2029,15.2029,15.2029,15.1952,15.2068,15.2125,15.2202,15.229,15.2449,15.2629,15.2911,15.4014,15.5116,15.5735,15.5812,15.558,15.4729,15.411,15.3491,15.2872,15.2795,15.2795,15.2795,15.2795,15.2795,15.2795,15.2795,15.2795,15.2795,15.3336,15.3723,15.3723,15.3723,15.3723,15.3723,15.3104,15.2872,15.3182,15.3027,15.2872,15.3182,15.3182,15.3182,15.3182,15.2718,15.2408,15.2408,15.1867,15.1634,15.1634,15.2408,15.2485,0.0,0.0,0.0,11.109,11.3629,11.7506,13.6527,13.9572,14.0547,14.7269,15.2099,15.53,15.6156,15.7701,15.9221,16.0172,16.0198,16.0267,16.1116,16.0289,15.9185,15.8415,15.9031,15.8492,15.603,15.6492,15.603,15.3491,15.326,15.2876,15.2029,15.2029,15.1568,15.0721,15.0721,15.0721,15.0721,14.9875,14.949,14.949,14.949,14.9029,14.8182,14.8182,14.8721,14.9413,14.8567,14.8721,14.949,15.0414,15.0721,15.0798,15.1722,15.2029,15.2029,15.2029,15.2029,15.2029,15.2029,15.2029,15.2029,15.2029,15.2029,15.2029,15.2029,15.2029,15.201,15.2202,15.229,15.2604,15.371,15.5329,15.674,15.6663,15.6663,15.6431,15.558,15.4033,15.2795,15.2795,15.2795,15.2795,15.2795,15.2795,15.2795,15.2795,15.2795,15.2795,15.2795,15.2795,15.2795,15.2795,15.2795,15.2795,15.2795,15.2795,15.3182,15.4033,15.3336,15.3182,15.411,15.411,15.411,15.411,15.411,15.411,15.411,15.2408,15.1634,15.1712,15.2408,15.2795,8.4693,0.0,0.0,0.0,0.0,0.0,11.7085,12.3092,12.9771,13.9691,14.3632,14.7411,15.4302,15.5924,15.6542,15.7288,15.8746,15.9713,15.9327,15.8921,15.8415,15.7492,15.7107,15.6338,15.503,15.4568,15.4107,15.3414,15.2722,15.226,15.2029,15.2029,15.1568,15.0721,15.0106,14.9798,14.9798,14.9029,14.8567,14.8567,14.8567,14.8413,14.8182,14.8182,14.8259,14.849,14.8259,14.8259,14.8721,15.0106,15.0721,15.0798,15.1722,15.2029,15.2029,15.2029,15.2029,15.2029,15.2029,15.2029,15.2029,15.2029,15.2029,15.2029,15.2029,15.2029,15.1952,15.201,15.2202,15.2676,15.4405,15.5743,15.672,15.7437,15.6586,15.5657,15.5503,15.4033,15.2795,15.2795,15.2795,15.2795,15.2795,15.2795,15.2795,15.2795,15.2795,15.2795,15.2795,15.3414,15.3723,15.3723,15.3723,15.3723,15.3723,15.3182,15.3182,15.4033,15.3336,15.3182,15.411,15.411,15.411,15.411,15.4729,15.4729,15.411,15.3027,15.2485,15.2485,15.2718,15.2795,0.0,0.0,0.0,9.4918,0.0,0.0,11.1081,11.5898,12.1682,13.3806,13.8715,14.2912,15.008,15.2269,15.3298,15.424,15.5956,15.7189,15.742,15.6996,15.6492,15.6107,15.5568,15.4876,15.4107,15.3568,15.3106,15.2799,15.226,15.2029,15.2029,15.1722,15.1106,15.0183,14.9413,14.9029,14.9029,14.8106,14.7798,14.8182,14.7798,14.7721,14.7721,14.7721,14.7721,14.7721,14.7721,14.7721,14.7798,14.9106,15.0106,15.0798,15.1337,15.1722,15.2029,15.2029,15.2029,15.2029,15.2029,15.2029,15.2029,15.2029,15.2029,15.2029,15.2029,15.2029,15.2106,15.2414,15.3069,15.4008,15.4919,15.5796,15.6465,15.7107,15.5996,15.4884,15.4884,15.3801,15.2795,15.2795,15.2795,15.2795,15.2795,15.2795,15.2795,15.2795,15.2795,15.2795,15.2795,15.3569,15.4033,15.3569,15.3878,15.4033,15.3569,15.3414,15.3569,15.411,15.3569,15.3723,15.4574,15.4574,15.4806,15.5193,15.5735,15.5271,15.411,15.3569,15.3182,15.2795,15.2795,15.2795,0.0,0.0,0.0,0.0,9.6401,0.0,11.1293,11.3016,11.4914,12.7379,13.3722,13.8385,14.2878,14.5915,14.8024,14.9009,15.0892,15.3105,15.5494,15.5148,15.4491,15.4414,15.4414,15.403,15.3183,15.3183,15.2799,15.2106,15.1875,15.1875,15.1875,15.0875,15.0106,14.9183,14.849,14.8029,14.7875,14.7182,14.7259,14.8029,14.7259,14.6875,14.6875,14.6875,14.6875,14.6875,14.6875,14.7028,14.7105,14.7798,14.9029,15.0414,15.0568,15.1183,15.1875,15.2029,15.2029,15.2029,15.2029,15.2029,15.2029,15.2029,15.2029,15.2029,15.2029,15.2029,15.2183,15.2876,15.4532,15.5802,15.5121,15.5691,15.6491,15.6542,15.5406,15.4187,15.4187,15.3491,15.2795,15.2795,15.2795,15.2795,15.2795,15.2795,15.2795,15.2795,15.2795,15.2795,15.2795,15.3569,15.3801,15.3027,15.3569,15.3801,15.3104,15.3569,15.4033,15.4187,15.411,15.442,15.5425,15.5425,15.5812,15.6508,15.6586,15.5735,15.411,15.4033,15.3569,15.2795,15.2795,15.2795,0.0,0.0,0.0,0.0,9.6831,0.0,9.6764,10.0531,10.6271,11.2884,11.6638,12.0916,12.8375,13.1884,13.3152,13.1963,13.8773,14.6733,15.3781,15.4568,15.4261,15.3568,15.3491,15.3183,15.2337,15.226,15.2183,15.2029,15.1414,15.1029,15.1029,14.949,14.8336,14.7413,14.7182,14.6798,14.6182,14.6721,14.7028,14.7182,14.7028,14.6875,14.6875,14.6875,14.6875,14.6875,14.6875,14.7259,14.7875,14.7413,14.7798,14.8798,15.0183,15.0798,15.1029,15.1722,15.2029,15.2029,15.2029,15.2029,15.2029,15.2029,15.2029,15.2029,15.2029,15.2029,15.2029,15.2183,15.3953,15.5705,15.4877,15.5858,15.7203,15.7418,15.6156,15.497,15.5116,15.3878,15.2795,15.2795,15.2795,15.2795,15.2795,15.2795,15.2795,15.2795,15.2795,15.2795,15.2795,15.3569,15.4033,15.3878,15.4033,15.4265,15.4806,15.3801,15.3723,15.5116,15.3801,15.3801,15.5271,15.5425,15.5503,15.5657,15.5657,15.5116,15.411,15.3414,15.3027,15.2795,15.2795,15.2795,0.0,0.0,0.0,9.8213,9.7901,0.0,0.0,9.835,10.139,10.8877,10.9973,11.2014,11.9995,12.1692,12.2766,12.5346,13.1992,13.8568,14.3267,14.9317,15.3106,15.2722,15.2722,15.2491,15.2029,15.2029,15.2029,15.2029,15.1183,15.0721,15.0721,14.9106,14.7798,14.6875,14.6875,14.649,14.572,14.649,14.6875,14.6875,14.6875,14.6875,14.6875,14.7413,14.7259,14.6875,14.7413,14.749,14.749,14.7105,14.7413,14.8259,14.9567,15.0337,15.0798,15.1722,15.2029,15.2029,15.2029,15.2029,15.2029,15.2029,15.2029,15.2029,15.2029,15.2337,15.2568,15.2568,15.3876,15.5184,15.5225,15.5591,15.6167,15.6772,15.6105,15.5124,15.4759,15.411,15.3336,15.2872,15.2795,15.2795,15.2795,15.2795,15.2795,15.2795,15.2795,15.2795,15.2795,15.3569,15.411,15.411,15.411,15.4497,15.5271,15.4187,15.3801,15.4729,15.3878,15.3801,15.4729,15.5193,15.558,15.5967,15.558,15.4961,15.411,15.411,15.3569,15.2795,15.3182,15.3182,0.0,0.0,0.0,10.3336,10.0671,9.8227,0.0,0.0,0.0,10.5668,10.5216,10.5403,11.1687,11.1808,11.2581,11.7982,12.4145,12.8495,12.9126,13.9698,14.77,14.8316,14.949,15.0183,15.0106,14.9567,14.9875,15.1183,14.9337,14.849,14.9721,14.849,14.7182,14.6182,14.6336,14.6105,14.549,14.6336,14.6721,14.6875,14.6875,14.7028,14.7182,14.7875,14.7798,14.7182,14.7875,14.7721,14.6875,14.7105,14.749,14.8106,14.9106,15.0029,15.0798,15.1491,15.1875,15.2029,15.1799,15.1875,15.2029,15.2029,15.2029,15.2029,15.2029,15.2568,15.326,15.3106,15.3722,15.4568,15.5184,15.4994,15.4877,15.5837,15.546,15.4842,15.4449,15.411,15.3569,15.2872,15.2795,15.2795,15.2795,15.2795,15.2795,15.2795,15.2795,15.2795,15.2795,15.3414,15.3878,15.411,15.3878,15.4265,15.5503,15.4729,15.4187,15.4342,15.442,15.4265,15.411,15.4806,15.558,15.6431,15.558,15.4729,15.3878,15.4884,15.4497,15.2795,15.3723,15.3569,0.0,11.219,11.258,10.479,10.7282,10.8143,9.4505,0.0,9.8199,9.3935,0.0,9.6178,9.7634,0.0,0.0,9.8764,10.8019,11.5051,11.4433,12.3881,13.1963,13.4871,14.0465,14.3797,14.3105,14.1027,14.2181,14.8182,14.2258,14.0719,14.6028,14.6105,14.5182,14.3566,14.4336,14.4643,14.4489,14.5413,14.6182,14.6875,14.6875,14.7259,14.8106,14.8182,14.8106,14.8106,14.8182,14.7721,14.7028,14.7721,14.7721,14.7182,14.8875,15.0029,15.0721,15.0798,15.1337,15.1875,15.1106,15.1414,15.2029,15.2029,15.2029,15.2029,15.2029,15.2568,15.3106,15.2414,15.326,15.4414,15.3722,15.4107,15.4781,15.5802,15.4912,15.407,15.492,15.4014,15.2872,15.2795,15.2795,15.2795,15.2795,15.2795,15.2795,15.2795,15.2795,15.2795,15.2795,15.2872,15.3182,15.4033,15.3414,15.3878,15.6276,15.5038,15.442,15.5193,15.5271,15.4884,15.411,15.4187,15.4729,15.5503,15.4729,15.3801,15.3027,15.4574,15.4497,15.2795,15.3723,15.3569,11.1126,11.2316,11.2682,10.6935,10.6616,10.5381,9.6157,9.3979,9.3667,9.2992,0.0,0.0,0.0,0.0,0.0,0.0,10.2411,10.6979,10.6199,11.3777,12.1909,12.8726,13.1482,13.4077,13.718,13.8719,14.0873,14.4259,14.0566,13.9796,14.3335,14.3874,14.3874,14.3105,14.3874,14.4182,14.372,14.549,14.6336,14.6182,14.7182,14.7798,14.8182,14.8182,14.8182,14.8182,14.8182,14.7721,14.6875,14.7259,14.7798,14.849,14.9183,14.9721,15.0106,15.1106,15.1722,15.1875,15.1568,15.1722,15.2029,15.2029,15.2029,15.2029,15.2029,15.226,15.2568,15.2722,15.2876,15.3183,15.3799,15.3876,15.4243,15.5591,15.5473,15.5198,15.5796,15.497,15.4091,15.3646,15.3104,15.2795,15.2795,15.2795,15.2795,15.2795,15.2795,15.2795,15.2795,15.2795,15.3104,15.4033,15.3336,15.3878,15.6508,15.4574,15.3878,15.5271,15.4497,15.4033,15.411,15.3569,15.3801,15.4574,15.4265,15.3878,15.3569,15.5271,15.5503,15.4265,15.4187,15.3569,11.2806,11.3611,11.3999,10.8076,10.5282,10.2488,9.6733,9.3603,9.2449,9.4394,9.3413,0.0,0.0,0.0,9.16,9.5468,0.0,10.0711,9.9878,10.4387,11.096,11.9448,12.202,12.5196,13.0564,13.3333,13.5719,13.8181,13.618,13.6411,14.0027,14.1412,14.2181,14.2412,14.3489,14.372,14.3105,14.4874,14.5797,14.572,14.6875,14.7798,14.8182,14.8182,14.8182,14.8182,14.849,14.8106,14.7259,14.7798,14.8567,14.949,14.9721,14.9721,14.9721,15.1106,15.1799,15.2029,15.1722,15.1799,15.2029,15.2029,15.2029,15.2029,15.2029,15.2029,15.2106,15.2799,15.2491,15.226,15.3491,15.3568,15.3704,15.5148,15.5591,15.5704,15.5923,15.5281,15.4611,15.3782,15.3212,15.2825,15.2795,15.2795,15.2795,15.2795,15.2795,15.2795,15.2795,15.2795,15.3027,15.3723,15.3414,15.4033,15.6199,15.4806,15.4497,15.5967,15.4033,15.3491,15.5116,15.3569,15.3336,15.442,15.4033,15.3878,15.411,15.5116,15.5425,15.4961,15.4574,15.4033,11.8474,11.998,12.0324,10.8026,10.5412,10.3236,9.327,9.4598,9.7471,9.5972,9.9425,10.2199,10.0729,9.8253,0.0,0.0,9.5081,0.0,0.0,9.4617,9.7062,10.3074,11.1577,11.8574,12.287,12.1177,12.2485,12.9102,12.5794,12.7025,13.5334,13.8104,13.9796,14.0719,14.2258,14.3105,14.3105,14.3181,14.4105,14.572,14.5797,14.6567,14.8182,14.8182,14.8182,14.8182,14.9106,14.9029,14.8259,14.9875,15.0183,14.9567,15.0414,15.0183,14.9644,15.0414,15.1337,15.1875,15.1029,15.1337,15.2029,15.2029,15.2029,15.2029,15.2029,15.2029,15.2029,15.2029,15.2029,15.2029,15.2106,15.2722,15.3491,15.4261,15.4609,15.4723,15.48,15.4218,15.353,15.2834,15.2602,15.2574,15.2748,15.2795,15.2795,15.2795,15.2795,15.2795,15.2795,15.2795,15.2795,15.2795,15.3569,15.442,15.5425,15.6122,15.6895,15.7824,15.4729,15.4265,15.7592,15.4574,15.3569,15.5271,15.3723,15.3336,15.411,15.3336,15.3336,15.4187,15.4961,15.4884,12.3123,12.5089,12.4935,11.4577,11.1293,10.7822,9.718,9.7363,9.8806,9.5399,9.9676,10.3127,10.0264,0.0,0.0,0.0,0.0,9.4385,0.0,8.9406,8.9784,9.394,10.3208,11.0186,11.256,11.6638,12.0331,12.3101,12.3101,12.5409,13.1025,13.4334,13.6873,13.8873,14.0566,14.172,14.2258,14.3412,14.4336,14.4874,14.6028,14.7105,14.8182,14.7567,14.7721,14.8182,14.7875,14.7875,14.8182,14.8798,14.949,15.0337,15.0568,15.0875,15.1106,15.0798,15.0875,15.1183,15.1491,15.1799,15.2029,15.2029,15.2029,15.2029,15.2029,15.2029,15.2029,15.2029,15.2029,15.2029,15.2029,15.2183,15.2799,15.4184,15.4089,15.407,15.534,15.4548,15.3501,15.3478,15.2988,15.2574,15.2748,15.2795,15.2795,15.2795,15.2795,15.2795,15.2795,15.2795,15.3027,15.3569,15.3878,15.4729,15.6122,15.6508,15.6586,15.6276,15.5193,15.4961,15.6199,15.5116,15.4497,15.4497,15.4033,15.411,15.4961,15.411,15.4729,15.6586,15.5193,15.411,12.5919,12.8109,12.8602,11.9988,11.7211,11.3893,10.3571,10.3913,10.5382,10.1671,10.4023,10.6807,10.7281,10.2753,0.0,0.0,0.0,9.2837,0.0,8.5898,8.6279,8.9355,9.6772,10.302,10.602,11.0483,11.4176,11.6484,11.7484,12.0408,12.6178,13.0333,13.4103,13.7488,13.9873,14.1335,14.1874,14.3028,14.3797,14.4412,14.549,14.649,14.7259,14.7028,14.6875,14.6875,14.6875,14.7413,14.8182,14.849,14.949,15.0721,15.0414,15.0414,15.0721,15.1029,15.1183,15.1183,15.1799,15.2029,15.2029,15.2029,15.2029,15.2029,15.2029,15.2029,15.2337,15.3799,15.3183,15.2337,15.3876,15.3414,15.2722,15.3799,15.3876,15.4012,15.4763,15.4204,15.3413,15.3427,15.2938,15.2602,15.2748,15.2795,15.2795,15.2795,15.2795,15.2795,15.2795,15.2795,15.3104,15.4033,15.442,15.5271,15.6973,15.6895,15.6586,15.6276,15.5657,15.5657,15.6276,15.5657,15.5812,15.6818,15.5271,15.558,15.7592,15.558,15.5425,15.6973,15.5271,15.3878]},{"header":{"parameterUnit":"m.s-1","parameterCategory":1,"la1":30.6,"la2":29.2853,"lo1":-89.7004,"lo2":-87.6739,"dy":0.0162,"dx":0.0183,"nx":112,"ny":82,"refTime":"2023-10-30T06:00:00:Z","depth":0,"parameterNumber":3,"parameterNumberName":"V-component_of_WINDS"},"data":[0.0,0.0,0.0,0.0,0.0,0.0,0.0,0.0,0.0,0.0,0.0,0.0,0.0,0.0,0.0,0.0,0.0,0.0,0.0,0.0,0.0,0.0,0.0,0.0,0.0,0.0,0.0,0.0,0.0,0.0,0.0,0.0,0.0,0.0,0.0,0.0,0.0,0.0,0.0,0.0,0.0,0.0,0.0,0.0,0.0,0.0,0.0,0.0,0.0,0.0,0.0,0.0,0.0,0.0,0.0,0.0,0.0,0.0,0.0,0.0,0.0,0.0,0.0,0.0,0.0,0.0,0.0,0.0,0.0,0.0,0.0,0.0,0.0,0.0,0.0,0.0,0.0,0.0,0.0,0.0,0.0,0.0,0.0,0.0,0.0,0.0,0.0,0.0,0.0,0.0,-0.2245,0.0494,0.3101,0.484,0.4491,0.4381,0.4349,0.3989,0.0,0.0,0.0,0.0,0.0,0.0,0.0,0.0,0.0,0.0,0.0,0.0,0.0,0.0,0.0,0.0,0.0,0.0,0.0,0.0,0.0,0.0,0.0,0.0,0.0,0.0,0.0,0.0,0.0,0.0,0.0,0.0,0.0,0.0,0.0,0.0,0.0,0.0,0.0,0.0,0.0,0.0,0.0,0.0,0.0,0.0,0.0,0.0,0.0,0.0,0.0,0.0,0.0,0.0,0.0,0.0,0.0,0.0,0.0,0.0,0.0,0.0,0.0,0.0,0.0,0.0,0.0,0.0,0.0,0.0,0.0,0.0,0.0,0.0,0.0,0.0,0.0,0.0,0.0,0.0,0.0,0.0,0.0,0.0,0.0,0.0,0.0,0.0,0.0,0.0,0.0,0.0,0.0,0.0,0.0,0.0,0.0,0.0,0.0,0.0,0.0,0.0,0.0,0.0,-0.1868,0.1397,0.3579,0.4304,0.3068,0.2914,0.2706,0.2681,0.0,0.0,0.0,0.0,0.0,0.0,0.0,0.0,0.0,0.0,0.0,0.0,0.0,0.0,0.0,0.0,0.0,0.0,0.0,0.0,0.0,0.0,0.0,0.0,0.0,0.0,0.0,0.0,0.0,0.0,0.0,0.0,0.0,0.0,0.0,0.0,0.0,0.0,0.0,0.0,0.0,0.0,0.0,0.0,0.0,0.0,0.0,0.0,0.0,0.0,0.0,0.0,0.0,0.0,0.0,0.0,0.0,0.0,0.0,0.0,0.0,0.0,0.0,0.0,0.0,0.0,0.0,0.0,0.0,0.0,0.0,0.0,0.0,0.0,0.0,0.0,0.0,0.0,0.0,0.0,0.0,0.0,0.0,0.0,0.0,0.0,0.0,0.0,0.0,0.0,0.0,0.0,0.0,0.0,0.0,0.0,0.0,0.0,0.0,0.0,0.0,0.0,0.0,-0.2058,-0.0252,0.3228,0.4299,0.4685,0.4034,0.3855,0.3313,0.2475,0.206,0.0,0.0,0.0,0.0,0.0,0.0,0.0,0.0,0.0,0.0,0.0,0.0,0.0,0.0,0.0,0.0,0.0,0.0,0.0,0.0,0.0,0.0,0.0,0.0,0.0,0.0,0.0,0.0,0.0,0.0,0.0,0.0,0.0,0.0,0.0,0.0,0.0,0.0,0.0,0.0,0.0,0.0,0.0,0.0,0.0,0.0,0.0,0.0,0.0,0.0,0.0,0.0,0.0,0.0,0.0,0.0,0.0,0.0,0.0,0.0,0.0,0.0,0.0,0.0,0.0,0.0,0.0,0.0,0.0,0.0,0.0,0.0,0.0,0.0,0.0,0.0,0.0,0.0,0.0,0.0,0.0,0.0,0.0,0.0,0.0,0.0,0.0,0.0,0.0,0.0,0.0,0.0,0.0,0.0,0.0,0.0,0.0,0.0,0.0,0.0,0.0,0.0,-0.101,0.0814,0.3622,0.4378,0.4744,0.3751,0.3895,0.3071,0.1243,0.228,0.0,0.0,0.0,0.0,0.0,0.0,0.0,0.0,0.0,0.0,0.0,0.0,0.0,0.0,0.0,0.0,0.0,0.0,0.0,0.0,0.0,0.0,0.0,0.0,0.0,0.0,0.0,0.0,0.0,0.0,0.0,0.0,0.0,0.0,0.0,0.0,0.0,0.0,0.0,0.0,0.0,0.0,0.0,0.0,0.0,0.0,0.0,0.0,0.0,0.0,0.0,0.0,0.0,0.0,0.0,0.0,0.0,0.0,0.0,0.0,0.0,0.0,0.0,0.0,0.0,0.0,0.0,0.0,0.0,0.0,0.0,0.0,0.0,0.0,0.0,0.0,0.0,0.0,0.0,0.0,0.0,0.0,0.0,0.0,0.0,0.0,0.0,0.0,0.0,0.0,0.0,0.0,0.0,0.0,0.0,0.0,0.0,0.0,0.0,0.0,0.0,0.0,-0.105,0.0,0.0309,0.3161,0.3818,0.0629,0.0296,-0.0274,-0.1987,-0.0673,0.0,0.0,0.0,0.0,0.0,0.0,0.0,0.0,0.0,0.0,0.0,0.0,0.0,0.0,0.0,0.0,0.0,0.0,0.0,0.0,0.0,0.0,0.0,0.0,0.0,0.0,0.0,0.0,0.0,0.0,0.0,0.0,0.0,0.0,0.0,0.0,0.0,0.0,0.0,0.0,0.0,0.0,0.0,0.0,0.0,0.0,0.0,0.0,0.0,0.0,0.0,0.0,0.0,0.0,0.0,0.0,0.0,0.0,0.0,0.0,0.0,0.0,0.0,0.0,0.0,0.0,0.0,0.0,0.0,0.0,0.0,0.0,0.0,0.0,0.0,0.0,0.0,0.0,0.0,0.0,0.0,0.0,0.0,0.0,0.0,0.0,0.0,0.0,0.0,0.0,0.0,0.0,0.0,0.0,0.0,0.0,0.0,0.0,0.0,0.0,0.0,0.0,-0.2364,-0.1438,0.0,0.128,0.0644,-0.2864,-0.3042,-0.2827,-0.2522,0.0,0.0,0.0,0.0,0.0,0.0,0.0,0.0,0.0,0.0,0.0,0.0,0.0,0.0,0.0,0.0,0.0,0.0,0.0,0.0,0.0,0.0,0.0,0.0,0.0,0.0,0.0,0.0,0.0,0.0,0.0,0.0,0.0,0.0,0.0,0.0,0.0,0.0,0.0,0.0,0.0,0.0,0.0,0.0,0.0,0.0,0.0,0.0,0.0,0.0,0.0,0.0,0.0,0.0,0.0,0.0,0.0,0.0,0.0,0.0,0.0,0.0,0.0,0.0,0.0,0.0,0.0,0.0,0.0,0.0,0.0,0.0,0.0,0.0,0.0,0.0,0.0,0.0,0.0,0.0,0.0,0.0,0.0,0.0,0.0,0.0,0.0,0.0,0.0,0.0,0.0,0.0,0.0,0.0,0.0,0.0,0.0,0.0,0.0,0.0,0.0,0.0,-0.2888,-0.2402,-0.1461,0.0,-0.097,-0.2273,-0.4165,-0.4596,-0.4266,-0.2527,0.0,0.0,0.0,0.0,0.0,0.0,0.0,0.0,0.0,0.0,0.0,0.0,0.0,0.0,0.0,0.0,0.0,0.0,0.0,0.0,0.0,0.0,0.0,0.0,0.0,0.0,0.0,0.0,0.0,0.0,0.0,0.0,0.0,0.0,0.0,0.0,0.0,0.0,0.0,0.0,0.0,0.0,0.0,0.0,0.0,0.0,0.0,0.0,0.0,0.0,0.0,0.0,0.0,0.0,0.0,0.0,0.0,0.0,0.0,0.0,0.0,0.0,0.0,0.0,0.0,0.0,0.0,0.0,0.0,0.0,0.0,0.0,0.0,0.0,0.0,0.0,0.0,0.0,0.0,0.0,0.0,0.0,0.0,0.0,0.0,0.0,0.0,0.0,0.0,0.0,0.0,0.0,0.0,0.0,0.0,0.0,0.0,0.0,0.0,0.0,0.0,0.0,-0.266,-0.1107,0.0,0.0,-0.2934,-0.4564,-0.2562,-0.3893,-0.4128,0.0,0.0,0.0,0.0,0.0,0.0,0.0,0.0,0.0,0.0,0.0,0.0,0.0,0.0,0.0,0.0,0.0,0.0,0.0,0.0,0.0,0.0,0.0,0.0,0.0,0.0,0.0,0.0,0.0,0.0,0.0,0.0,0.0,0.0,0.0,0.0,0.0,0.0,0.0,0.0,0.0,0.0,0.0,0.0,0.0,0.0,0.0,0.0,0.0,0.0,0.0,0.0,0.0,0.0,0.0,0.0,0.0,0.0,0.0,0.0,0.0,0.0,0.0,0.0,0.0,0.0,0.0,0.0,0.0,0.0,0.0,0.0,0.0,0.0,0.0,0.0,0.0,0.0,0.0,0.0,0.0,0.0,0.0,0.0,0.0,0.0,0.0,0.0,0.0,0.0,0.0,0.0,0.0,0.0,0.0,0.0,0.0,0.0,0.0,0.0,0.0,0.0,0.0,-0.0732,-0.0278,0.0,0.0,-0.097,-0.2268,-0.4138,-0.455,-0.422,-0.2507,0.0,0.0,0.0,0.0,0.0,0.0,0.0,0.0,0.0,0.0,0.0,0.0,0.0,0.0,0.0,0.0,0.0,0.0,0.0,0.0,0.0,0.0,0.0,0.0,0.0,0.0,0.0,0.0,0.0,0.0,0.0,0.0,0.0,0.0,0.0,0.0,0.0,0.0,0.0,0.0,0.0,0.0,0.0,0.0,0.0,0.0,0.0,0.0,0.0,0.0,0.0,0.0,0.0,0.0,0.0,0.0,0.0,0.0,0.0,0.0,0.0,0.0,0.0,0.0,0.0,0.0,0.0,0.0,0.0,0.0,0.0,0.0,0.0,0.0,0.0,0.0,0.0,0.0,0.0,0.0,0.0,0.0,0.0,0.0,0.0,0.0,0.0,0.0,0.0,0.0,0.0,0.0,0.0,0.0,0.0,0.0,0.0,0.0,0.0,0.0,0.0,0.0,0.0,0.0,0.0,0.0,0.0,-0.0978,-0.2868,-0.4294,-0.4591,-0.3345,0.0,0.0,0.0,0.0,0.0,0.0,0.0,0.0,0.0,0.0,0.0,0.0,0.0,0.0,0.0,0.0,0.0,0.0,0.0,0.0,0.0,0.0,0.0,0.0,0.0,0.0,0.0,0.0,0.0,0.0,0.0,0.0,0.0,0.0,0.0,0.0,0.0,0.0,0.0,0.0,0.0,0.0,0.0,0.0,0.0,0.0,0.0,0.0,0.0,0.0,0.0,0.0,0.0,0.0,0.0,0.0,0.0,0.0,0.0,0.0,0.0,0.0,0.0,0.0,0.0,0.0,0.0,0.0,0.0,0.0,0.0,0.0,0.0,0.0,0.0,0.0,0.0,0.0,0.0,0.0,0.0,0.0,0.0,0.0,0.0,0.0,0.0,0.0,0.0,0.0,0.0,0.0,0.0,0.0,0.0,0.0,0.0,0.0,0.0,0.0,0.0,0.0,0.0,0.0,0.0,0.0,-0.0328,-0.0329,-0.0,-0.2784,-0.4668,-0.4516,0.0,0.0,0.0,0.0,0.0,0.0,0.0,0.0,0.0,0.0,0.0,0.0,0.0,0.0,0.0,0.0,0.0,0.0,0.0,0.0,0.0,0.0,0.0,0.0,0.0,0.0,0.0,0.0,0.0,0.0,0.0,0.0,0.0,0.0,0.0,0.0,0.0,0.0,0.0,0.0,0.0,0.0,0.0,0.0,0.0,0.0,0.0,0.0,0.0,0.0,0.0,0.0,0.0,0.0,0.0,0.0,0.0,0.0,0.0,0.0,-0.2697,-0.1574,0.0,0.0,0.0,0.0,0.0,0.0,0.0,0.0,0.0,0.0,0.0,0.0,0.0,0.0,0.0,0.0,0.0,0.0,0.0,0.0,0.0,0.0,0.0,0.0,0.0,0.0,0.0,0.0,0.0,0.0,0.0,0.0,0.0,0.0,0.0,0.0,0.0,0.0,0.0,0.0,0.0,0.0,0.0,0.0,-0.2586,-0.2928,-0.032,-0.0616,-0.2032,-0.4245,-0.3495,0.0,0.0,0.0,0.0,0.0,0.0,0.0,0.0,0.0,0.0,0.0,0.0,0.0,0.0,0.0,0.0,0.0,0.0,0.0,0.0,0.0,0.0,0.0,0.0,0.0,0.0,0.0,0.0,0.0,0.0,0.0,0.0,0.0,0.0,0.0,0.0,0.0,0.0,0.0,0.0,0.0,0.0,0.0,0.0,0.0,0.0,0.0,0.0,0.0,0.0,0.0,0.0,0.0,0.0,0.0,0.0,0.0,0.0,0.0,-0.1761,-0.2646,0.0,0.0,0.0,0.0,0.0,0.0,0.0,0.0,0.0,0.0,0.0,0.0,0.0,0.0,0.0,0.0,0.0,0.0,0.0,0.0,0.0,0.0,0.0,0.0,0.0,0.0,0.0,0.0,0.0,0.0,0.0,0.0,0.0,0.0,0.0,0.0,0.0,0.0,0.0,0.0,0.0,0.0,0.0,0.0,-0.3238,-0.4564,-0.2562,-0.1551,-0.2068,-0.4392,-0.412,0.0,0.0,0.0,0.0,0.0,0.0,0.0,0.0,0.0,0.0,0.0,0.0,0.0,0.0,0.0,0.0,0.0,0.0,0.0,0.0,0.0,0.0,0.0,0.0,0.0,0.0,0.0,0.0,0.0,0.0,0.0,0.0,0.0,0.0,0.0,0.0,0.0,0.0,0.0,0.0,0.0,0.0,0.0,0.0,0.0,0.0,0.0,0.0,0.0,0.0,0.0,0.0,0.0,0.2168,0.0,0.4536,0.4515,0.545,0.6424,0.1081,-0.1672,-0.2055,-0.0401,0.0,0.0,0.0,0.0,0.0,0.0,0.0,0.0,0.0,0.0,0.0,0.0,0.0,0.0,0.0,0.0,0.0,0.0,0.0,0.0,0.0,0.0,-0.3911,-0.4034,-0.3272,-0.2626,-0.3517,0.0,0.0,0.0,0.0,0.0,0.0,0.0,0.0,0.0,0.0,0.0,0.0,0.0,-0.0307,-0.095,-0.3252,-0.491,-0.5137,-0.3757,-0.3316,-0.4567,-0.3998,-0.3495,0.0,0.0,0.0,0.0,0.0,0.0,0.0,0.0,0.0,0.0,0.0,0.0,0.0,0.0,0.0,0.0,0.0,0.0,0.0,0.0,0.0,0.0,0.0,0.0,0.0,0.0,0.0,0.0,0.0,0.0,0.0,0.0,-0.1691,-0.2379,0.0,0.0,0.0,0.0,0.0,0.0,0.0,0.0,0.0,0.0,0.0,0.0,0.0,0.3569,1.0616,0.6948,0.5926,0.7891,0.4941,0.4038,0.4767,0.4798,0.4832,0.5117,0.588,0.0,0.1983,0.1904,0.0,0.0,0.0,0.0,0.0,0.0,0.0,0.0,0.0,0.0,0.0,0.0,0.0,0.0,0.0,0.0,0.0,0.0,0.0,0.0,0.0,0.0,-0.4039,-0.4082,-0.394,-0.3773,-0.3768,-0.3737,-0.3485,-0.3239,-0.2405,-0.1377,0.0,0.0,0.0,0.0,0.0,0.0,0.0,0.0,-0.1229,-0.4138,-0.3558,-0.3577,-0.4839,-0.4708,-0.454,-0.4627,-0.3041,-0.2353,-0.2677,-0.3051,0.0,0.0,0.0,0.0,0.0,0.0,0.0,0.0,0.0,0.0,0.0,0.0,0.0,0.0,0.0,0.0,0.0,0.0,0.0,0.0,0.0,0.0,0.0,0.0,0.0,0.0,0.0,0.0,0.0,-0.1554,-0.1259,-0.1066,-0.1086,-0.0725,0.0,0.0,0.0,0.0,0.0,0.0,0.0,0.0,0.0,0.498,0.3975,0.3867,0.426,0.5984,0.7083,0.7281,0.5577,0.641,0.9342,0.7813,0.8094,0.944,1.0297,0.9833,0.843,0.7705,0.5094,0.1269,0.0,0.0,0.0,0.0,0.204,0.0832,0.0854,0.0,-0.1093,-0.2985,0.0,0.0,0.0,0.0,0.0,0.0,0.0,0.0,0.0,-0.158,-0.3297,-0.388,-0.4198,-0.3994,-0.4008,-0.3863,-0.3899,-0.3708,-0.3203,-0.2705,-0.2171,-0.159,0.0,0.0,0.0,-0.0985,-0.0,0.0,-0.123,-0.478,-0.4512,-0.4189,-0.5096,-0.4979,-0.4815,-0.4589,-0.3879,-0.3458,-0.3536,-0.3627,-0.3464,0.0,0.0,0.0,0.0,0.0,0.0,0.0,0.0,0.0,0.0,0.0,0.0,0.0,0.0,0.0,0.0,0.0,0.0,0.0,0.0,0.0,0.0,0.0,0.0,0.0,0.0,0.0,0.0,-0.1273,-0.0757,-0.0,0.0,0.0,0.0,0.0,0.0,0.0,0.0,0.0,1.3603,1.5705,1.4718,1.102,0.9573,0.6623,0.2279,0.6626,0.8824,0.8806,0.7517,0.9246,1.327,1.1078,1.1375,1.3336,1.3352,1.3246,1.3009,1.2404,0.9044,0.4741,0.5477,0.4066,0.2112,0.6278,0.6602,0.4918,0.3722,0.2372,0.0713,-0.2535,-0.3154,-0.2853,-0.3514,0.0,0.0,0.0,0.0,-0.0654,-0.0458,-0.1663,-0.2951,-0.4084,-0.415,-0.4177,-0.4188,-0.4133,-0.4008,-0.3744,-0.3654,-0.378,-0.3791,-0.2752,0.0,-0.3693,-0.3269,-0.2272,-0.1359,-0.0872,-0.1533,-0.4125,-0.4803,-0.5112,-0.5036,-0.4938,-0.4494,-0.3729,-0.4174,-0.4044,-0.3127,-0.3237,-0.3357,-0.3507,0.0,0.0,0.0,0.0,0.0,0.0,0.0,0.0,0.0,0.0,0.0,0.0,0.0,0.0,0.0,0.0,0.0,0.0,0.0,0.0,0.0,0.0,0.0,0.0,0.0,0.0,0.0,0.0,0.0,-0.0,0.0,0.0,0.0,0.0,0.0,1.4333,1.5362,1.3717,0.911,1.3829,1.6824,1.6939,1.5798,1.4796,1.4203,1.3404,1.318,1.2995,1.3091,1.3179,1.3556,1.3371,1.3451,1.3809,1.3809,1.3703,1.3483,1.32,1.242,1.1119,0.8308,0.8649,1.0537,0.8195,0.7097,0.673,0.5127,0.2715,-0.0,-0.3025,-0.3934,-0.3782,-0.3681,-0.361,0.0,0.0,-0.3004,-0.214,-0.218,-0.3254,-0.4131,-0.4461,-0.4256,-0.4308,-0.4338,-0.4275,-0.4163,-0.4005,-0.3951,-0.3888,-0.3765,0.0,-0.2794,-0.3784,-0.4151,-0.4109,-0.4164,-0.3211,-0.2431,-0.2509,-0.411,-0.5063,-0.5033,-0.4916,-0.3603,-0.0588,-0.3118,-0.3014,-0.0266,-0.1293,-0.2236,-0.2121,-0.3216,0.0,0.0,0.0,0.0,0.0,0.0,0.0,0.0,0.0,0.0,0.0,0.0,0.0,0.0,0.0,0.0,0.0,0.0,0.0,0.0,0.0,0.0,0.0,0.0,0.0,0.0,0.0,0.0,0.0421,-0.0892,0.0,0.9495,0.6484,0.5892,1.082,1.4668,1.5919,1.4237,1.6179,1.7185,1.6912,1.6025,1.4345,1.2112,1.3009,1.2849,1.1011,1.3071,1.4046,1.4177,1.4209,1.4283,1.4356,1.4307,1.4242,1.4144,1.4037,1.229,1.0058,1.0377,0.9222,0.764,1.0758,1.0343,0.839,0.9366,0.8141,0.6042,0.337,0.2018,0.1711,0.1679,0.0477,-0.1434,-0.3352,-0.3666,-0.3507,-0.3579,-0.3929,-0.456,-0.4352,-0.2471,-0.0827,-0.0826,0.109,0.215,-0.0264,-0.0514,-0.1246,-0.3612,-0.2174,-0.1458,-0.3635,-0.4293,-0.3186,0.028,-0.1468,-0.183,0.0626,-0.2517,-0.5017,-0.4949,-0.4883,-0.417,-0.3148,-0.3944,-0.2474,0.1589,-0.1551,-0.2524,-0.0739,-0.1204,-0.092,0.0,0.0,0.0,0.0,0.0,0.0,0.0,0.0,0.0,0.0,0.0,0.0,0.0,0.0,0.0,0.0,0.0,0.0,0.0,0.0,0.0,0.0,0.0,0.0,0.0,0.1887,0.5373,0.5855,0.4291,0.5596,1.1428,1.0296,0.9437,1.0506,1.4266,1.6726,1.6971,1.7157,1.7287,1.6785,1.591,1.4416,1.2267,1.3557,1.3385,1.1418,1.3554,1.4536,1.465,1.465,1.4707,1.4789,1.4724,1.4683,1.4642,1.4495,1.3102,1.1031,1.2437,1.0845,0.8322,1.2682,1.2499,1.0404,1.0908,1.0435,0.9298,0.6712,0.5496,0.485,0.505,0.3783,0.1772,-0.0,-0.0515,-0.0262,-0.0533,-0.0543,-0.0552,-0.0558,0.1404,0.3374,0.3089,0.53,0.6372,0.358,0.2128,0.0513,-0.2249,-0.1004,-0.0252,-0.1999,-0.1556,0.0541,0.4501,0.2344,0.1819,0.5595,0.1559,-0.124,-0.1222,-0.2101,-0.1756,-0.0282,-0.083,0.0812,0.4727,0.2806,0.0751,-0.0745,-0.0243,0.0,0.0,0.0,0.0,0.0,0.0,0.0,0.0,0.0,0.0,0.0,0.0,0.0,0.0,0.0,0.0,0.0,0.0,0.0,0.0,0.0,0.0,0.0,0.0,0.0,-0.2434,-0.0882,0.4675,1.6448,1.5072,1.1036,0.5584,1.0772,1.4405,1.4491,1.5574,1.6153,1.6479,1.6805,1.7142,1.7468,1.6024,1.5689,1.5884,1.5154,1.4895,1.4805,1.4903,1.4944,1.4944,1.4944,1.5001,1.5083,1.5075,1.5026,1.4936,1.4838,1.4691,1.4462,1.3842,1.3434,1.3213,1.3295,1.3336,1.3075,1.0144,0.9295,0.925,0.6997,0.5775,0.5115,0.5915,0.6152,0.5866,0.6168,0.6509,0.7135,0.718,0.7264,0.7066,0.7112,0.7125,0.7138,0.7181,0.7445,0.7392,0.7343,0.4103,0.1329,0.0528,0.0262,0.0783,0.1565,0.3977,0.0,0.7607,0.7266,0.8072,1.1046,0.8297,0.6131,0.5785,0.3221,0.3702,0.819,0.6763,0.6559,0.936,1.1257,0.7782,-0.1686,-0.0706,0.0,0.0,0.0,0.0,0.0,0.0,0.0,0.0,0.0,0.0,0.0,0.0,0.0,0.0,0.0,0.0,0.0,0.0,0.0,0.0,0.0,0.0,0.0,0.288,0.4324,-0.0,0.3553,0.885,1.452,1.3438,1.1996,1.1786,1.1061,1.1966,1.5056,1.529,1.558,1.6531,1.6638,1.6538,1.6262,1.6188,1.5753,1.5263,1.5124,1.5238,1.5271,1.5304,1.5344,1.541,1.541,1.5459,1.5549,1.541,1.5377,1.5385,1.5108,1.4912,1.4765,1.4266,1.3981,1.385,1.4459,1.5088,1.544,1.3972,1.365,1.361,1.2903,1.1917,1.1494,1.1943,1.0769,0.9104,0.9948,0.859,0.6951,0.6959,0.701,0.6775,0.6787,0.8801,1.0817,1.0784,1.3079,1.4487,1.1515,1.0034,0.8543,0.5398,0.6203,0.7002,0.5592,0.5167,0.6419,1.0856,0.7925,0.6869,1.0483,0.6889,0.418,0.3839,0.3168,0.366,0.6087,0.5408,0.605,0.8898,0.9549,0.7924,0.364,0.1175,0.0,0.0,0.0,0.0,0.0,0.0,0.0,0.0,0.0,0.0,0.0,0.0,0.0,0.0,0.0,0.0,0.0,0.0,0.0,0.0,0.0,0.0,0.0,1.0556,1.1653,0.8279,0.865,1.088,1.483,1.4008,1.3621,1.4787,1.2796,1.228,1.4747,1.515,1.5353,1.6262,1.6308,1.6134,1.6043,1.5961,1.5811,1.5913,1.5813,1.5938,1.6287,1.5988,1.5696,1.5704,1.603,1.639,1.6441,1.633,1.6287,1.6287,1.5705,1.523,1.5108,0.0,0.0,0.0,0.0,1.5415,1.5433,1.5068,1.4731,1.4688,1.515,1.4442,1.3752,1.4495,1.3581,1.2422,1.2735,1.1888,1.0759,1.0784,1.083,1.0862,1.0862,1.2324,1.4071,1.4012,1.6024,1.7152,1.4513,1.4469,0.0,1.1616,1.0736,1.0403,0.9997,0.9887,1.0928,1.4263,1.2274,1.1283,1.3096,1.0764,0.8947,0.8521,0.7727,0.0,0.0,0.0,0.925,1.1088,1.1563,0.0,0.0,0.0,0.0928,0.0,0.0,0.0,0.0,0.0,0.0,0.0,0.0,0.0,0.0,0.0,0.0,0.0,0.0,0.0,0.0,0.0,0.0,0.0,0.0,0.0,0.0,1.7891,1.8598,1.8603,1.3931,1.1826,1.6475,1.6157,1.5485,1.5059,1.4496,1.4307,1.456,1.5182,1.5884,1.6087,1.6167,0.0,0.0,0.0,1.6202,1.6936,1.6551,1.6636,1.7219,1.6636,1.6296,1.6221,1.6881,1.7219,1.7219,1.7202,1.7148,1.706,1.598,1.5871,1.573,1.4895,1.5258,1.576,1.5663,1.4969,1.4291,1.4291,0.0,0.0,1.5042,1.462,1.3907,1.4756,1.4973,1.4911,1.5008,1.5592,1.6167,1.6271,1.6281,1.6252,1.6271,1.6271,1.6252,1.6252,1.6771,1.7018,1.6243,1.7274,1.7689,1.6707,1.3983,1.2704,1.4484,1.5717,1.6497,1.7019,1.7685,1.7713,1.67,1.659,0.0,1.5406,1.4314,1.3662,1.3471,1.3567,1.3682,1.417,1.5093,1.0958,0.1657,0.2602,0.2381,0.0483,0.0242,0.0,0.0,0.0,0.0,0.0,0.0,0.0,0.0,0.0,0.0,0.0,0.0,0.0,0.0,0.0,0.0,0.0,0.0,0.0,1.1307,1.4555,1.7836,1.899,1.7519,1.6179,1.6319,1.6571,1.6437,1.4963,1.4724,1.4822,1.4944,1.5573,1.6317,1.6591,1.7171,1.7581,1.7843,1.8002,1.8124,1.8236,1.8376,1.8432,1.8414,1.8432,0.0,1.7072,1.8081,1.809,1.7414,1.7325,1.7281,1.7246,1.7078,1.7224,1.7355,1.5735,1.4928,1.5138,1.5046,1.4954,1.4577,1.4577,1.4511,1.443,1.4654,1.4315,1.4266,1.5076,1.5282,0.0,1.6094,1.5992,1.6176,1.7138,1.6751,1.6062,1.7008,1.6386,1.6043,1.6043,1.61,1.6119,1.6062,1.6435,1.6464,1.5418,1.5561,1.5998,1.6159,1.5767,1.5399,1.6473,1.5557,1.5059,1.4654,1.416,1.3541,1.3361,1.3347,1.3949,1.4949,1.443,1.4158,1.4215,1.3815,1.2526,1.0344,0.3918,0.1463,0.2916,0.0974,0.0,0.0,0.0,0.0,0.0,0.0,0.0,0.0,0.0,0.0,0.0,0.0,0.0,0.0,0.0,1.1149,1.1727,0.0,1.5701,1.4243,1.6377,1.8288,1.8764,1.8566,1.8101,1.674,1.6584,1.6123,1.4977,1.5379,1.5803,1.5956,1.6954,1.7392,1.7603,1.7881,1.8242,1.8404,1.8518,1.8944,1.9393,1.9157,1.9245,1.964,1.9303,1.8591,1.82,1.9225,1.9187,1.8794,1.8747,1.8699,1.8623,1.8096,1.7658,1.7585,1.6378,1.5811,1.5616,1.5616,1.5188,1.4724,1.4765,1.4691,1.4569,1.4487,1.4422,1.4373,1.4867,1.4808,1.4765,1.53,1.5503,1.5721,1.5721,1.5684,1.5656,1.5702,1.5431,1.5141,1.5721,1.5684,1.5647,1.5647,1.5889,1.5833,1.4929,1.5683,1.6173,1.5843,1.5872,1.5711,1.5684,1.5566,1.505,1.4413,1.4234,1.4217,1.3416,1.3411,1.3696,1.4283,1.4079,1.3967,1.3765,1.3627,1.3554,1.3045,0.7486,0.4723,0.4955,0.0996,-0.0744,0.0,0.0,0.0,0.0,0.0,0.0,0.0,0.0,0.0,0.0,0.0,1.4298,1.4741,1.4951,1.529,1.5661,1.6591,1.7728,1.825,1.9114,1.9212,1.8376,1.8773,1.8623,1.7133,1.6575,1.6074,1.5621,1.6343,1.6777,1.726,1.7993,1.8741,1.8847,1.8847,1.9196,1.9245,1.9334,1.9766,2.0546,1.9956,2.0047,2.0816,2.0137,1.9419,1.9322,2.0333,2.0293,2.017,2.016,2.0089,1.9997,1.9157,1.8452,1.7823,1.7686,1.7062,1.6738,1.6485,1.5684,1.4822,1.5204,1.4797,1.4642,1.4569,1.4495,1.443,1.4356,1.4307,1.4266,1.4193,1.4765,1.5042,1.4371,1.4705,1.5068,1.4463,1.4226,1.4571,1.5137,1.5016,1.4929,1.5007,1.5404,1.5537,1.5061,1.5278,1.5473,1.5169,1.5938,1.6289,1.5159,1.5849,1.5647,1.4596,1.5029,1.502,1.4454,1.4129,1.3787,1.3446,1.3784,1.3823,1.3263,1.3637,1.3529,1.3204,1.0875,0.8838,0.7325,0.3051,0.1013,0.1249,0.0252,0.0,0.9073,1.0465,1.1167,0.9441,0.8116,0.8499,0.0,0.0,1.4896,1.516,1.5392,1.5418,1.5425,1.6495,1.7451,1.7633,1.8721,1.9182,1.8814,1.91,1.8654,1.7098,1.6874,1.6972,1.7087,1.7113,1.745,1.8124,1.9117,1.9834,1.9946,2.0617,2.1055,2.1258,2.128,2.1344,2.1451,2.1472,2.1483,2.1494,2.1494,2.1144,2.0456,2.1134,2.1081,2.0282,2.0181,2.013,2.0119,2.0099,2.0308,2.047,1.9895,1.9058,1.7787,1.7053,1.5837,1.4912,1.584,1.542,1.465,1.4642,1.4634,1.4618,1.4609,1.4495,1.4364,1.4356,1.4356,1.4646,1.5233,1.5003,1.4754,1.5259,1.4961,1.4348,1.4563,1.4529,1.4521,1.4529,1.4446,1.4388,1.4488,1.4938,1.5368,1.5851,1.6119,1.5926,1.5362,1.5406,1.5181,1.4462,1.4503,1.4738,1.5129,1.4929,1.4669,1.4654,1.446,1.394,1.2854,1.2862,1.2737,1.247,1.2059,1.1725,1.1733,1.097,0.8892,0.5536,0.1765,0.0,1.0627,1.0829,1.0921,1.0735,1.0444,1.1069,1.3179,1.3929,1.4668,1.5746,1.5887,1.6037,1.6326,1.7125,1.7685,1.7411,1.8447,1.9157,1.8575,1.8061,1.7484,1.6874,1.7025,1.714,1.7184,1.7897,1.8585,1.9245,2.0359,2.0786,2.0839,2.1248,2.1659,2.1757,2.1767,2.1822,2.1941,2.1952,2.1985,2.205,2.205,2.1665,2.126,2.1612,2.1537,2.1081,2.1039,2.0976,2.0902,2.0839,2.0712,2.0575,2.0276,1.9147,1.8252,1.7179,1.6049,1.523,1.5488,1.5388,1.4961,1.4903,1.4854,1.4797,1.4748,1.4683,1.4601,1.4495,1.4796,1.5114,1.4935,1.5003,1.5114,1.5071,1.4796,1.4829,1.5088,1.4746,1.4688,1.4927,1.4554,1.4209,1.4242,1.4488,1.5007,1.5539,1.602,1.5767,1.4884,1.5215,1.5293,1.4577,1.4503,1.4389,1.485,1.4714,1.4544,1.4314,1.4178,1.3704,1.3148,1.2984,1.2821,1.2666,1.2592,1.2527,1.2478,1.2535,1.1479,0.9827,0.8052,0.6474,1.0317,1.0514,1.0852,1.1708,1.2758,1.3595,1.3993,1.4429,1.5104,1.6519,1.669,1.6577,1.6702,1.7175,1.7619,1.7048,1.8338,1.8984,1.8233,1.7918,1.7557,1.7179,1.7269,1.7351,1.7704,1.8566,1.9364,2.0401,2.1258,2.1713,2.1713,2.1822,2.1898,2.1898,2.192,2.1996,2.2115,2.2148,2.2192,2.2246,2.2279,2.2224,2.2061,2.2039,2.1985,2.1876,2.1854,2.1778,2.1702,2.155,2.1076,2.0308,2.0308,1.9525,1.8683,1.7965,1.7179,1.6058,1.63,1.5896,1.5496,1.5429,1.5346,1.5263,1.4887,1.5138,1.5063,1.4634,1.4963,1.5292,1.4754,1.4813,1.5224,1.4569,1.4601,1.4946,1.5528,1.4863,1.4796,1.5328,1.4646,1.4291,1.4324,1.4307,1.4596,1.5207,1.595,1.6235,1.5328,1.5698,1.5778,1.4979,1.4854,1.4713,1.4291,1.4209,1.407,1.3891,1.3801,1.3654,1.3434,1.3287,1.3107,1.2886,1.2813,1.2739,1.2674,1.2451,1.2451,1.2387,1.1395,1.006,0.8137,1.0153,1.2111,1.315,1.472,1.6146,1.707,1.7494,1.7523,1.7142,1.7335,1.6948,1.5791,1.64,1.7048,1.6521,1.8343,1.9224,1.8452,1.9048,1.9234,1.8052,1.7938,1.8237,1.8994,1.9813,2.0525,2.1637,2.1767,2.1844,2.1844,2.1952,2.2018,2.2018,2.2126,2.2235,2.2366,2.2485,2.2485,2.2376,2.2485,2.242,2.2181,2.2083,2.2018,2.2007,2.1898,2.1844,2.1811,2.1572,2.1409,2.13,2.13,2.0565,1.9803,1.9783,1.8871,1.7871,1.8823,1.7795,1.645,1.645,1.6388,1.5987,1.5363,1.5539,1.5701,1.5088,1.4838,1.4895,1.4797,1.4838,1.4871,1.4691,1.465,1.4634,1.4536,1.4511,1.4511,1.4511,1.4438,1.4413,1.4495,1.4438,1.4413,1.4495,1.5618,1.6833,1.7043,1.7252,1.7039,1.6008,1.5919,1.5484,1.4397,1.4307,1.4168,1.3989,1.3883,1.3801,1.3703,1.3442,1.3254,1.3156,1.2911,1.2772,1.2772,1.2674,1.2633,1.2633,0.8945,0.7106,0.9771,1.1771,1.3803,1.528,1.6527,1.7484,1.7962,1.7868,1.7882,1.7519,1.6085,1.4637,1.4021,1.4242,1.4829,1.483,1.681,1.8841,1.9525,1.9226,1.9019,1.8833,1.9054,1.8762,1.8053,1.9014,2.008,2.1507,2.1724,2.1909,2.2061,2.2257,2.2344,2.2257,2.2376,2.242,2.2376,2.2572,2.2616,2.2496,2.2539,2.2518,2.2431,2.23,2.2257,2.2246,2.2126,2.2039,2.1952,2.1865,2.1626,2.1322,2.1387,2.1191,2.0563,2.0734,2.0322,1.9789,1.8742,1.7675,1.6644,1.6644,1.6256,1.5538,1.5794,1.6048,1.6273,1.6458,1.6131,1.5831,1.5727,1.5071,1.4748,1.4748,1.4691,1.4642,1.4609,1.4609,1.4585,1.4528,1.4788,1.508,1.4503,1.5441,1.6098,1.6206,1.608,1.6628,1.7668,1.7452,1.7224,1.702,1.6269,1.5813,1.538,1.4638,1.4201,1.407,1.3981,1.3891,1.3801,1.3719,1.3572,1.336,1.3205,1.3066,1.2952,1.2862,1.2813,1.2813,1.1482,1.1238,1.1395,1.3186,1.5103,1.6934,1.7962,1.8582,1.8475,1.8286,1.7901,1.6938,1.5007,1.3117,1.2632,1.2729,1.2924,1.2567,1.483,1.6909,1.8404,1.8086,1.7918,1.9509,1.9675,1.9355,1.8643,1.912,1.9831,2.0484,2.143,2.2007,2.189,2.2529,2.2626,2.2496,2.2616,2.267,2.2626,2.2779,2.2822,2.2757,2.2703,2.2659,2.2616,2.2529,2.2463,2.2376,2.2289,2.2192,2.2083,2.1996,2.1757,2.143,2.1463,2.1235,2.0909,2.1104,2.1104,2.067,1.9569,1.8518,1.7806,1.7768,1.7364,1.6636,1.6574,1.6855,1.6792,1.6666,1.6291,1.5927,1.5875,1.5146,1.4765,1.4822,1.4748,1.4658,1.4691,1.4954,1.5199,1.4871,1.5742,1.6017,1.5415,1.6382,1.7052,1.7481,1.7043,1.6995,1.8386,1.8151,1.8221,1.8062,1.6964,1.6188,1.5778,1.5003,1.425,1.4128,1.4062,1.3989,1.3891,1.3866,1.3744,1.3548,1.3425,1.3287,1.314,1.3042,1.3001,1.3001,1.2183,1.1943,1.2939,1.4548,1.6244,1.7983,1.893,1.9107,1.8597,1.8467,1.7875,1.5908,1.4103,1.2662,1.155,1.1536,1.1357,1.0143,1.2269,1.4586,1.6177,1.6117,1.7035,0.0,0.0,0.0,0.0,0.0,2.0164,1.9274,2.0867,2.1783,2.0996,2.2382,2.2866,2.2757,2.2866,2.2974,2.3094,2.3094,2.3105,2.3105,2.2974,2.2866,2.2735,2.2735,2.2616,2.2387,2.2376,2.23,2.2181,2.1952,2.1778,2.1648,2.1528,2.1333,2.1126,2.1246,2.1224,2.1093,2.0985,2.0301,1.963,1.9528,1.9406,1.9004,1.7383,1.7318,1.7553,1.5956,1.5571,1.5505,1.5189,1.505,1.4928,1.4928,1.4789,1.4683,1.4765,1.5267,1.5769,1.5857,1.64,1.6928,1.6928,1.6928,1.7258,1.8294,1.8223,1.8263,1.858,1.9332,1.9728,1.8804,1.7973,1.6889,1.6188,1.5088,1.4315,1.4136,1.4119,1.407,1.3989,1.3891,1.3809,1.3727,1.3548,1.3409,1.3319,1.3229,1.318,1.318,1.1257,0.9887,1.4261,1.6149,1.8304,1.9115,1.9615,1.9642,1.8887,1.7914,1.6749,1.4212,1.1688,0.9599,0.7877,0.913,1.0847,1.1809,1.5046,1.8266,2.0089,2.0252,0.0,2.1202,0.0,2.0681,2.0111,2.0894,2.0902,1.9739,2.0981,2.2148,2.2393,2.2953,2.304,2.2996,2.3116,2.3148,2.3094,2.3181,2.3235,2.3235,2.3192,2.3061,2.2866,2.2866,2.2735,2.2496,2.242,2.23,2.2192,2.2126,2.192,2.1659,2.1626,2.1365,2.0996,2.1126,2.1093,2.0996,2.105,2.0417,1.9762,1.9722,1.9315,1.8566,1.8802,1.9024,1.8923,1.9151,1.8427,1.8024,1.708,1.6621,1.5849,1.4928,1.4838,1.4756,1.4789,1.5054,1.5038,1.5054,1.5597,1.673,1.8556,1.8253,1.8325,1.9449,1.9449,1.9439,1.9439,1.9756,1.9843,1.9706,1.8898,1.7835,1.6889,1.6026,1.4961,1.4324,1.4193,1.4103,1.4087,1.3989,1.3907,1.3809,1.3703,1.3597,1.3507,1.3974,1.4209,1.4209,1.3654,1.3401,1.5459,1.7369,1.9225,1.9897,1.9867,1.925,1.7355,1.6262,1.4705,1.168,0.9348,0.7486,0.6375,0.816,1.0191,1.057,1.4529,1.7966,1.9856,2.0127,2.0558,0.0,2.1985,0.0,2.1113,2.1547,2.1793,2.117,2.1629,2.2018,2.2177,2.2768,2.3246,2.3246,2.3311,2.3311,2.3246,2.3377,2.3377,2.3279,2.3377,2.3246,2.2909,2.3018,2.2877,2.2561,2.2485,2.2366,2.2192,2.2192,2.2007,2.1746,2.1746,2.1474,2.1104,2.118,2.1169,2.1104,2.118,2.0905,2.0586,2.0491,2.0048,1.963,1.9558,1.9104,1.8974,1.9232,1.8496,1.7451,1.7719,1.6997,1.6291,1.5658,1.5901,1.584,1.5573,1.614,1.6676,1.6936,1.7157,1.8031,1.9342,1.9278,1.8984,1.9832,1.9832,1.98,1.9843,1.9886,1.993,1.9973,1.9269,1.8262,1.7865,1.6777,1.6035,1.5046,1.4952,1.4529,1.4119,1.4062,1.3981,1.3842,1.3801,1.3727,1.3646,1.4144,1.4127,1.4127,1.44,1.4435,1.669,1.7865,1.9271,2.0241,1.9954,1.8653,1.5701,1.4221,1.2604,0.9017,0.7225,0.6094,0.5583,0.78,0.9336,0.8934,1.247,1.6126,1.8395,1.8713,1.969,2.22,2.2529,2.2474,2.2485,2.2485,2.2626,2.2953,2.2811,2.2425,2.1904,2.2917,2.3453,2.3475,2.3475,2.3475,2.3475,2.3572,2.3507,2.3279,2.3507,2.3388,2.2931,2.317,2.304,2.2605,2.2572,2.2431,2.2224,2.2192,2.205,2.1844,2.1844,2.1615,2.1311,2.1289,2.1278,2.1267,2.1278,2.1343,2.1409,2.1224,2.1083,2.0659,1.9986,1.9184,1.8363,1.8363,1.7318,1.6256,1.7451,1.7422,1.6783,1.6783,1.7034,1.7301,1.6774,1.7576,1.8631,1.9439,1.9321,1.9615,1.9821,1.9691,1.9636,1.9843,1.9789,1.9821,2.0017,2.0126,2.0115,1.9919,1.9353,1.8692,1.8467,1.7835,1.7138,1.6053,1.5716,1.5285,1.4429,1.4128,1.403,1.3866,1.3866,1.3817,1.3744,1.3752,1.3752,1.4037,1.4599,1.4599,1.7366,1.8437,1.9395,2.0509,2.0006,1.8603,1.5863,1.3962,1.1741,0.7397,0.6103,0.543,0.3943,0.5749,0.8457,1.1173,1.451,1.7642,2.1144,2.1587,2.2179,0.0,2.292,2.3007,2.3105,2.3116,2.317,2.3344,2.3398,2.3409,2.2992,2.3409,2.3485,2.3594,2.3594,2.3594,2.3594,2.3605,2.3507,2.3279,2.3507,2.3431,2.3061,2.3203,2.3116,2.2833,2.2637,2.2474,2.2333,2.2235,2.205,2.1844,2.1844,2.1615,2.1289,2.1191,2.1093,2.1028,2.1126,2.1169,2.1202,2.1365,2.1333,2.1224,2.0787,2.0595,2.0402,2.0402,1.9933,1.9468,1.9222,1.8863,1.8476,1.7842,1.7823,1.7814,1.7525,1.7747,1.821,1.8641,1.8887,1.8867,1.9734,1.9778,1.9832,1.9876,1.993,1.9995,2.0039,1.9984,1.9952,2.0017,1.9941,1.9237,1.8478,1.8376,1.7697,1.7052,1.5999,1.5539,1.5415,1.4446,1.4062,1.3956,1.3956,1.3948,1.394,1.451,1.4808,1.4808,1.5097,1.5097,1.7976,1.8634,1.9176,1.9555,1.8831,1.6795,1.3744,1.1816,0.9432,0.543,0.4372,0.4076,0.3355,0.5362,0.8025,0.9952,1.3612,1.7033,1.9776,2.1186,2.2322,2.317,2.3333,2.3388,2.3453,2.3453,2.3496,2.3627,2.3681,2.3638,2.3453,2.3496,2.3572,2.3627,2.3627,2.3627,2.3627,2.3627,2.354,2.3355,2.354,2.3475,2.3192,2.3246,2.3137,2.2898,2.2724,2.2539,2.2376,2.23,2.2148,2.192,2.1865,2.1702,2.1474,2.1343,2.1235,2.1137,2.1191,2.118,2.1137,2.1246,2.1289,2.1278,2.1169,2.0627,2.0101,2.0691,1.9954,1.9222,1.9859,1.953,1.9222,1.8585,1.8585,1.8903,1.9222,1.913,1.9344,1.9543,1.948,1.9437,2.0071,1.9995,1.9984,2.0039,2.0039,2.0071,2.0126,2.0028,1.9952,1.9952,1.9952,1.9908,1.9174,1.9121,1.8447,1.7166,1.6712,1.5936,1.485,1.4504,1.4128,1.3981,1.3981,1.3981,1.3981,1.4271,1.4569,1.4569,1.4569,1.4569,1.8105,1.8386,1.8871,1.9157,1.7899,1.5632,1.2033,0.9879,0.7428,0.3794,0.3103,0.31,0.3059,0.5013,0.6857,0.7782,1.1329,1.5052,1.7871,1.9645,2.1644,2.3344,2.3583,2.3638,2.367,2.367,2.3714,2.3833,2.3844,2.3746,2.3529,2.3583,2.3627,2.3627,2.3627,2.3627,2.3627,2.3627,2.3551,2.3409,2.3551,2.3496,2.3279,2.3279,2.317,2.2974,2.2779,2.2583,2.2398,2.2366,2.2202,2.2007,2.1909,2.1778,2.1648,2.1517,2.1409,2.1311,2.1311,2.1224,2.1126,2.1148,2.1202,2.1246,2.1126,2.0605,1.9779,2.0338,1.9623,1.8933,2.0177,1.9901,1.9623,1.9654,1.9654,1.9654,2.0582,2.0517,2.043,2.0408,2.0321,2.0289,2.0398,2.0267,2.0191,2.0289,2.0224,2.018,2.0256,2.0158,2.0039,1.9919,1.9984,1.9995,1.9919,1.9886,1.9216,1.7885,1.7462,1.6345,1.4884,1.4579,1.4201,1.4013,1.4013,1.3997,1.3981,1.3981,1.3981,1.3981,1.3981,1.3981,1.6959,1.7582,1.8027,1.9531,1.8109,1.5467,1.2819,0.9968,0.7215,0.3739,0.3037,0.3026,0.3048,0.3369,0.4476,0.7428,0.8598,1.0963,1.6969,1.8096,1.9847,2.265,2.3431,2.367,2.3779,2.379,2.3833,2.3964,2.3975,2.392,2.3779,2.3681,2.3627,2.3627,2.3627,2.3627,2.3627,2.3627,2.3507,2.329,2.3507,2.3496,2.3279,2.3279,2.3257,2.3214,2.2768,2.2561,2.2529,2.23,2.2137,2.2018,2.2007,2.1865,2.1648,2.1517,2.1409,2.1311,2.1311,2.1224,2.1137,2.1246,2.1224,2.1126,2.0996,2.0865,2.0756,2.0745,2.0582,2.0156,2.0669,2.0658,2.0615,2.0713,2.0745,2.0713,2.0615,2.0571,2.0528,2.043,2.0398,2.0398,2.0408,2.0474,2.055,2.055,2.055,2.0506,2.0408,2.0278,2.0158,2.0039,2.0039,2.0039,2.0028,1.993,1.9876,1.9546,1.8111,1.6976,1.6469,1.5276,1.4291,1.4103,1.4103,1.4062,1.3981,1.3981,1.3981,1.3981,1.3981,1.3981,1.7639,1.8374,1.8825,1.9283,1.6945,1.4168,1.1816,0.8945,0.6052,0.3487,0.2999,0.2988,0.3018,0.3125,0.3717,0.4963,0.6283,0.8436,1.1634,1.4859,1.7566,2.0097,2.1934,2.3268,2.3768,2.3931,2.4029,2.4094,2.4094,2.4073,2.4018,2.3909,2.3812,2.3735,2.3735,2.3692,2.3627,2.3627,2.3583,2.3485,2.3583,2.3583,2.3485,2.3344,2.3279,2.3257,2.292,2.2681,2.2539,2.2463,2.23,2.2105,2.1963,2.1854,2.1746,2.155,2.1409,2.1311,2.1311,2.1224,2.1126,2.1093,2.1104,2.1093,2.0985,2.0909,2.0865,2.0865,2.08,2.0745,2.0843,2.0789,2.0702,2.0745,2.0756,2.0745,2.0702,2.0745,2.0756,2.0648,2.0745,2.0789,2.0648,2.0713,2.0756,2.0615,2.0593,2.055,2.0419,2.0365,2.0311,2.0267,2.0126,2.0071,2.0137,1.9984,1.9588,1.9353,1.8457,1.7326,1.6272,1.561,1.4918,1.4201,1.4201,1.416,1.4062,1.4062,1.403,1.3981,1.3981,1.3981,1.7034,1.8591,1.9166,1.9264,1.6467,1.3338,1.1402,0.8284,0.5046,0.3438,0.2977,0.2969,0.2988,0.3086,0.3225,0.3416,0.4594,0.6269,0.8414,1.1299,1.4338,1.6742,1.8823,2.0598,2.2153,2.3485,2.4203,2.416,2.4192,2.4203,2.416,2.4116,2.4007,2.3812,2.3812,2.3746,2.3627,2.3627,2.3594,2.3529,2.3594,2.3572,2.3453,2.3333,2.3257,2.3203,2.2964,2.2735,2.2561,2.2518,2.2376,2.2181,2.1963,2.1865,2.1811,2.1604,2.1463,2.1365,2.1365,2.1278,2.1169,2.1083,2.1083,2.1104,2.1028,2.0996,2.0996,2.0996,2.0996,2.0996,2.0996,2.093,2.0854,2.0811,2.0811,2.08,2.0767,2.0854,2.0909,2.0832,2.0985,2.1072,2.0898,2.0974,2.0985,2.0767,2.0745,2.0691,2.0528,2.0506,2.0474,2.0419,2.0278,2.0234,2.0321,2.0115,1.9695,1.9157,1.8569,1.7727,1.6674,1.6008,1.5311,1.4588,1.4588,1.4538,1.416,1.4421,1.4379,1.4021,1.3989,1.3989,1.4167,1.6837,1.938,1.9726,1.6666,1.333,1.2116,0.8731,0.5037,0.3408,0.2961,0.2961,0.2961,0.3037,0.3146,0.3299,0.3446,0.4628,0.8041,0.8736,1.0036,1.3144,1.3778,1.5258,1.8975,2.2391,2.429,2.417,2.4268,2.429,2.416,2.4268,2.417,2.3822,2.3812,2.3746,2.3627,2.3627,2.3507,2.3279,2.3507,2.3442,2.3105,2.3214,2.3203,2.3072,2.2833,2.267,2.2539,2.2431,2.23,2.2181,2.2061,2.1952,2.1822,2.1702,2.1572,2.1474,2.1474,2.1409,2.1311,2.1311,2.1224,2.1126,2.1126,2.1126,2.1126,2.1126,2.1126,2.1126,2.1126,2.1126,2.1093,2.0963,2.0941,2.0909,2.0789,2.0854,2.0941,2.0941,2.1039,2.1126,2.1126,2.1224,2.1267,2.1137,2.1126,2.1028,2.0789,2.0756,2.0658,2.043,2.0517,2.0593,2.0593,2.0365,2.0224,2.0224,1.9374,1.8529,1.8314,1.6787,1.5778,1.5574,1.5574,1.5224,1.425,1.505,1.499,1.4111,1.4021,1.403,1.1731,1.3096,1.3956,1.4816,1.2325,0.967,0.8983,0.6461,0.3878,0.323,0.2975,0.2966,0.2988,0.3067,0.3204,0.3435,0.3566,0.3963,0.5245,0.8687,1.1955,1.3845,1.8054,2.1168,2.1631,2.3557,2.454,2.441,2.4442,2.4453,2.441,2.429,2.4127,2.3931,2.3931,2.3833,2.3627,2.3627,2.3583,2.3507,2.3583,2.3529,2.3333,2.329,2.3159,2.2953,2.28,2.2616,2.242,2.23,2.2181,2.205,2.1854,2.1757,2.1702,2.1572,2.1507,2.1474,2.1474,2.1452,2.1409,2.1333,2.1333,2.1343,2.1278,2.1191,2.1137,2.1224,2.1246,2.1246,2.1246,2.118,2.1104,2.1083,2.1072,2.105,2.1006,2.1104,2.1169,2.1083,2.1224,2.1311,2.1148,2.1289,2.1322,2.1039,2.1137,2.1169,2.0909,2.0952,2.0941,2.0789,2.08,2.0756,2.0604,2.0365,2.0267,2.0354,1.9738,1.9216,1.8529,1.7539,1.6547,1.5875,1.5267,1.4888,1.443,1.4704,1.4629,1.4209,1.4119,1.4128,0.9458,1.1031,1.1838,1.2467,1.0251,0.788,0.7682,0.5392,0.3195,0.3024,0.2966,0.2953,0.2983,0.0,0.3174,0.3378,0.3517,0.3899,0.5099,0.8529,1.1637,1.4052,1.9199,2.2424,2.1819,2.3736,2.4725,2.4605,2.4551,2.4507,2.4453,2.4312,2.416,2.3986,2.3953,2.3822,2.3627,2.3627,2.3583,2.3496,2.3583,2.3485,2.3246,2.3257,2.3116,2.2833,2.2757,2.2583,0.0,2.2246,2.2126,2.1996,2.1757,2.1659,2.1648,2.1517,2.1474,2.1474,2.1528,2.1517,2.1474,2.1452,2.1463,2.1463,2.1387,2.1322,2.1278,2.1343,2.1376,2.1376,2.1376,2.1278,2.1191,2.1191,2.1148,2.1126,2.1126,2.1224,2.1278,2.1202,2.1343,2.143,2.1278,2.1376,2.1365,2.105,2.1137,2.1169,2.0963,2.1006,2.1039,2.1006,2.0963,2.0887,2.0735,2.0463,2.0321,2.0408,2.0115,1.9599,1.8631,1.7636,1.6974,1.6008,1.5403,1.5021,1.4569,1.4503,1.4688,1.4842,1.4488,1.4217,0.0,1.0151,1.1868,1.157,0.9736,0.77,0.7352,0.0,0.0,0.0,0.0,0.0,0.0,0.0,0.0,0.3198,0.3362,0.4457,0.693,0.8398,1.0709,1.4419,1.7874,2.0089,1.9873,2.3065,2.4845,2.4725,2.4605,2.4486,2.4366,2.4344,2.4214,2.3986,2.3866,2.3735,2.3627,2.3627,2.3507,2.329,2.3507,2.3377,2.292,2.3148,2.305,2.2713,2.2692,2.2572,2.2344,2.2224,2.2105,2.1985,2.1746,2.1648,2.1648,2.1528,2.1485,2.1507,2.1615,2.1572,2.1485,2.1604,2.1572,2.1474,2.1474,2.1474,2.1474,2.1474,2.1474,2.1474,2.1474,2.1387,2.1322,2.1322,2.1235,2.1148,2.1148,2.1235,2.1322,2.1322,2.1409,2.1474,2.1474,2.1474,2.1409,2.1169,2.1137,2.1104,2.0985,2.0963,2.1028,2.1126,2.1039,2.0952,2.0941,2.0615,2.0419,2.0419,2.0191,1.9695,1.8661,1.7723,1.7058,1.6034,1.6016,1.5666,1.4658,1.4487,1.4646,1.545,1.4859,1.4315,0.4855,0.0,0.5426,0.5287,0.4768,0.4458,0.0,0.0,0.0,0.0,0.0,0.0,0.0,0.0,0.0,0.0,0.3591,0.4429,0.6873,1.1967,0.0,1.827,2.1661,2.3055,2.1095,2.3335,2.4964,2.4845,2.4736,2.4649,2.4627,2.4268,2.4051,2.3986,2.3779,2.3649,2.3627,2.3627,2.3551,2.3398,2.3453,2.3333,2.305,2.3007,2.2855,2.2583,2.2496,2.2376,2.2224,2.2007,2.1909,2.1854,2.1615,2.1572,2.1659,2.1626,2.1615,2.1615,2.1648,2.1572,2.1474,2.1507,2.1507,2.1474,2.1474,2.1474,2.1474,2.1474,2.1474,2.1474,2.1474,2.1463,2.143,2.143,2.142,2.1387,2.1387,2.142,2.143,2.143,2.1463,2.1474,2.1474,2.1474,2.143,2.1278,2.1333,2.1343,2.1235,2.1289,2.1322,2.1267,2.1235,2.1137,2.0952,2.0702,2.055,2.055,2.0408,2.0267,1.9835,1.8259,1.7585,1.717,1.5857,1.5154,1.4756,1.4577,1.4471,1.4746,1.4986,1.5337,0.3518,0.347,0.3378,0.3326,0.3294,0.3255,0.3176,0.0,0.0,0.0,0.0,0.0,0.0,0.0,0.0,0.0,0.5204,0.7251,0.9357,1.4381,1.818,1.9658,2.2312,2.3588,2.2934,2.4384,2.4975,2.4964,2.4747,2.4627,2.4627,2.4268,2.4051,2.3986,2.3812,2.3681,2.3627,2.3572,2.3507,2.3442,2.3388,2.3268,2.3094,2.2964,2.2779,2.2539,2.2376,2.2224,2.2094,2.1854,2.1757,2.1746,2.155,2.1517,2.1572,2.1572,2.1572,2.1583,2.1648,2.1615,2.155,2.1485,2.1474,2.1474,2.1474,2.1474,2.1474,2.1474,2.1474,2.1474,2.1474,2.143,2.1409,2.1463,2.143,2.142,2.1463,2.1474,2.1474,2.1474,2.1474,2.1474,2.1474,2.1474,2.143,2.1322,2.1365,2.1376,2.1322,2.1365,2.1387,2.1387,2.1289,2.1169,2.1039,2.08,2.0648,2.0593,2.0474,2.0059,1.968,1.8723,1.8053,1.6997,1.5607,1.5204,1.5462,1.5013,1.4921,1.5778,1.5733,1.6053,0.3062,0.3433,0.3797,0.3367,0.3313,0.3253,0.3212,0.0,0.0,0.0,0.0,0.0,0.0,0.4759,0.0,0.0,0.7292,1.0875,1.2962,1.6211,1.8886,1.991,2.1792,2.3378,2.4577,2.4942,2.4921,2.5018,2.4725,2.4507,2.4497,2.4268,2.4073,2.3964,2.3822,2.3714,2.3627,2.3496,2.3431,2.3409,2.329,2.3148,2.304,2.2898,2.2713,2.2518,2.2279,2.2105,2.2337,2.2094,2.1995,2.1984,2.1851,2.1829,2.184,2.1507,2.1507,2.1517,2.1604,2.1626,2.1615,2.1507,2.1474,2.1474,2.1474,2.1474,2.1474,2.1474,2.1474,2.1474,2.1474,2.1409,2.1365,2.1452,2.1409,2.1365,2.1463,2.1474,2.1474,2.1474,2.1474,2.1474,2.1474,2.1474,2.1452,2.1343,2.1333,2.1333,2.1333,2.1333,2.1365,2.1463,2.1289,2.1169,2.1126,2.093,2.0756,2.0615,2.0517,2.0134,1.9161,1.913,1.8111,1.645,1.5346,1.5246,1.584,1.5154,1.5377,1.6796,1.6188,1.6161,0.3185,0.4796,0.5721,0.3595,0.3174,0.3179,0.0,0.0,0.0,0.0,0.0,0.0,0.0,0.4685,0.4396,0.0,0.906,1.2489,1.6273,1.9415,2.1302,2.1588,2.323,2.4063,2.3065,2.4223,2.4888,2.4899,2.466,2.4486,2.4366,2.4149,2.3964,2.3833,2.3605,2.354,2.3627,2.3496,2.3398,2.3301,2.3072,2.2898,2.2768,2.2561,2.2431,2.2387,2.2148,2.237,2.3008,2.2758,2.3339,2.3662,2.2853,2.2542,2.2633,2.1973,2.1626,2.1615,2.1528,2.1507,2.1507,2.1474,2.1474,2.1474,2.1474,2.1474,2.1474,2.1474,2.1474,2.1474,2.1474,2.1463,2.1452,2.1474,2.1463,2.1452,2.1474,2.1474,2.1474,2.1474,2.1474,2.1474,2.1474,2.1474,2.1474,2.1452,2.1452,2.1452,2.1452,2.1452,2.1463,2.1474,2.1452,2.1333,2.1137,2.1093,2.0974,2.0745,2.0713,2.0327,1.9273,1.8457,1.7413,1.645,1.5718,1.5001,1.4928,1.4912,1.4854,1.5079,1.5684,1.6016,0.3092,0.4021,0.4745,0.4906,0.5833,0.6531,0.0,0.0,0.0,0.0,0.0,0.0,0.0,0.0,0.8624,1.2347,1.3409,1.4571,1.6954,1.8867,2.0267,2.0621,2.22,2.3314,2.3673,2.4148,2.4638,2.4779,2.4562,2.4399,2.4344,2.4116,2.3931,2.3812,2.3572,2.3475,2.3529,2.3344,2.329,2.3355,2.2996,2.2811,2.2811,2.2518,2.268,2.2948,2.2712,2.3234,2.3829,2.3638,2.3901,2.4235,2.3829,2.3508,2.3567,2.2553,2.1885,2.155,2.1485,2.1474,2.1474,2.1474,2.1474,2.1474,2.1474,2.1474,2.1474,2.1474,2.1474,2.1474,2.1474,2.1474,2.1474,2.1474,2.1474,2.1474,2.1474,2.1474,2.1474,2.1474,2.1474,2.1474,2.1474,2.1474,2.1474,2.1474,2.1474,2.1474,2.1474,2.1474,2.1474,2.1474,2.142,2.1333,2.1235,2.1169,2.1028,2.0778,2.0756,2.0724,2.0038,1.9232,1.8198,1.7245,1.6774,1.6361,1.5692,1.5641,1.6184,1.6703,1.6703,1.7011,0.3054,0.354,0.4468,0.613,0.0,0.0,0.0,0.0,0.0,0.0,0.0,0.0,0.0,0.9135,1.2251,1.6502,1.6391,1.6406,1.8096,1.9187,2.0162,2.0546,2.1741,2.3146,2.4747,2.4562,2.4453,2.4605,2.442,2.4268,2.4214,2.4051,2.3877,2.3725,2.3507,2.3398,2.3751,2.3137,2.3105,2.3311,2.3243,2.3066,2.3132,2.3172,2.3316,2.3901,2.3643,2.3817,2.4718,2.4544,2.447,2.4802,2.447,2.4137,2.4137,2.3151,2.2462,2.214,2.1474,2.1474,2.1818,2.1474,2.1474,2.1474,2.1474,2.1474,2.1474,2.1474,2.1485,2.1517,2.1485,2.1507,2.1517,2.1474,2.1507,2.1507,2.1474,2.1507,2.1507,2.1474,2.1507,2.1507,2.1474,2.1474,2.1474,2.1474,2.1474,2.1474,2.1474,2.1474,2.1474,2.1474,2.1387,2.1333,2.1311,2.1191,2.1039,2.0854,2.0811,2.08,2.08,1.9696,1.8984,1.8023,1.7516,1.7116,1.6169,1.6379,1.6924,1.8092,1.7752,1.7704,0.3236,0.4745,0.6239,0.0,0.0,0.0,0.0,0.0,0.0,0.0,0.0,0.0,0.0,1.0699,1.1809,1.2939,1.5879,1.868,2.1597,2.2564,2.3131,2.3667,2.4301,2.4507,2.4703,2.4594,2.4464,2.4366,2.4247,2.4073,2.3866,2.3833,2.3714,2.3475,2.3344,2.364,2.4712,2.3287,2.2822,2.2953,2.3385,2.3903,2.38,2.434,2.4612,2.4932,2.4663,2.4879,2.5853,2.5582,2.5798,2.6462,2.5811,2.4802,2.4137,2.3151,2.3139,2.3805,2.214,2.214,2.2473,2.1818,2.1474,2.1474,2.1474,2.1474,2.1474,2.1474,2.1561,2.1615,2.1507,2.1561,2.1615,2.1507,2.1561,2.1615,2.1507,2.1561,2.1615,2.1507,2.1572,2.1604,2.1485,2.1474,2.1474,2.1474,2.1474,2.1474,2.1474,2.1474,2.1474,2.1474,2.1463,2.142,2.1322,2.1191,2.1104,2.1093,2.0996,2.093,2.093,1.9737,1.8984,1.8023,1.7282,1.6265,1.5312,1.6178,1.6441,1.6432,1.7263,1.7538,0.3095,0.4808,0.6431,0.0,0.0,0.0,0.0,0.0,0.0,0.0,0.0,0.0,0.0,0.0,1.6143,1.565,1.8499,2.1095,2.279,2.3344,2.379,2.4116,2.4247,2.4366,2.4584,2.441,2.4312,2.4344,2.4601,2.4842,2.4663,2.5255,2.5081,2.4533,2.4689,2.4944,2.4596,2.4639,2.4463,2.444,2.3915,2.4159,2.4447,2.4576,2.5114,2.5367,2.5179,2.5724,2.6289,2.6502,2.6462,2.6807,2.6475,2.5811,2.4802,2.447,2.447,2.3805,2.2806,2.2462,2.2806,2.1818,2.1474,2.1474,2.1474,2.1474,2.1474,2.1474,2.1561,2.1626,2.1507,2.1615,2.1724,2.1517,2.1572,2.1626,2.1507,2.1572,2.1615,2.1507,2.1572,2.1615,2.1507,2.1474,2.1474,2.1474,2.1474,2.1474,2.1474,2.1474,2.1474,2.1474,2.1474,2.1463,2.142,2.1365,2.1343,2.1343,2.1169,2.1028,2.0941,2.053,1.98,1.9094,1.8664,1.7966,1.6999,1.6591,1.6864,1.7171,1.769,1.7642,0.36,0.4694,0.6126,0.6856,0.0,0.0,0.0,0.0,0.0,0.0,0.0,0.0,0.0,0.0,1.8181,1.7666,2.0313,2.2616,2.3137,2.3583,2.3909,2.4029,2.4116,2.4214,2.4344,2.4203,2.4116,2.4546,2.5216,2.5486,2.5729,2.6252,2.6059,2.5213,2.5697,2.5552,2.5124,2.5239,2.5758,2.5982,2.5152,2.4721,2.5362,2.5505,2.6021,2.6216,2.6086,2.6289,2.6875,2.682,2.6807,2.6807,2.6807,2.6475,2.5798,2.5479,2.5134,2.4802,2.3472,2.3128,2.3139,2.214,2.1818,2.1474,2.1474,2.1474,2.1485,2.1517,2.1615,2.1702,2.1615,2.1746,2.1844,2.1583,2.1626,2.1681,2.1561,2.1626,2.1681,2.1604,2.1659,2.167,2.1561,2.1507,2.1474,2.1474,2.1474,2.1474,2.1474,2.1474,2.1474,2.1474,2.1474,2.1474,2.1474,2.1474,2.1474,2.1474,2.1322,2.118,2.1072,2.0985,2.0584,1.9528,1.9446,1.8752,1.775,1.7364,1.7318,1.7591,1.7488,1.7747,0.4653,0.4678,0.5372,0.7564,0.0,0.0,0.0,0.0,0.0,0.0,0.0,0.0,0.0,1.589,1.662,1.753,2.0486,2.2768,2.3355,2.3746,2.3953,2.3822,2.4018,2.4116,2.4007,2.3986,2.4314,2.5301,2.5289,2.5588,2.6557,2.6423,2.6288,2.6154,2.6007,2.6167,2.6962,2.5771,2.6318,2.7906,2.6726,2.624,2.6111,2.7132,2.739,2.7227,2.7078,2.7024,2.701,2.6875,2.6807,2.6807,2.6807,2.6807,2.6793,2.5798,2.613,2.6462,2.4802,2.4137,2.3805,2.3139,2.214,2.1474,2.1474,2.1474,2.1507,2.1626,2.1746,2.1844,2.1844,2.1941,2.1963,2.1713,2.1757,2.1811,2.1691,2.1757,2.1844,2.1844,2.1844,2.18,2.167,2.1561,2.1474,2.1474,2.1474,2.1474,2.1474,2.1474,2.1474,2.1474,2.1474,2.1474,2.1474,2.1474,2.1474,2.1474,2.1474,2.142,2.1311,2.1072,2.0616,1.964,1.964,1.8615,1.6883,1.7853,1.7806,1.6733,1.7591,1.813,0.3447,0.5504,0.0,0.0,0.0,0.0,0.0,0.0,0.0,0.0,0.0,1.6326,1.5944,1.7785,1.9426,1.8161,2.0639,2.2855,2.3366,2.3681,2.3844,2.3812,2.3953,2.4402,2.5102,2.5102,2.5451,2.6529,2.7096,2.7288,2.7514,2.7555,2.764,2.6789,2.7353,2.7235,2.6807,2.7013,2.7255,2.7906,2.7319,2.7172,2.7118,2.7363,2.7227,2.7078,2.6943,2.6875,2.6875,2.682,2.6807,2.6807,2.6807,2.6807,2.6807,2.6462,2.6462,2.6793,2.5466,2.4802,2.3805,2.3139,2.214,2.1474,2.1474,2.1474,2.1507,2.1626,2.1746,2.1854,2.1952,2.205,2.2083,2.1844,2.1811,2.1822,2.18,2.1887,2.192,2.1746,2.1778,2.1767,2.1561,2.1507,2.1474,2.1474,2.1474,2.1474,2.1474,2.1474,2.1474,2.1474,2.1474,2.1474,2.1474,2.1474,2.1474,2.1474,2.1474,2.142,2.1311,2.1235,2.083,1.9762,1.9681,1.8969,1.7965,1.8223,1.7843,1.6839,1.7712,1.7638,0.5475,0.0,0.0,0.0,0.0,0.0,0.0,0.0,0.0,0.0,0.0,1.8566,1.8233,1.9722,2.098,1.9966,2.166,2.3018,2.3453,2.3681,2.379,2.3735,2.4214,2.464,2.5335,2.5693,2.6396,2.7084,2.7667,2.8215,2.8726,2.876,2.8503,2.8016,2.8231,2.7761,2.7347,2.756,2.7784,2.7743,2.7485,2.735,2.7295,2.72,2.7078,2.6943,2.6834,2.6807,2.6807,2.6807,2.6807,2.6807,2.6807,2.6807,2.6807,2.6807,2.6462,2.6143,2.5811,2.4802,2.3472,2.2806,2.214,2.1474,2.1474,2.1507,2.1572,2.1702,2.1811,2.1941,2.2061,2.2105,2.2094,2.1952,2.1909,2.1898,2.1854,2.1898,2.1909,2.1757,2.1757,2.1713,2.1572,2.1507,2.1474,2.1474,2.1474,2.1474,2.1474,2.1474,2.1474,2.1474,2.1474,2.1474,2.1474,2.1474,2.1474,2.1474,2.1474,2.1452,2.1376,2.1333,2.0937,2.0533,2.0428,1.9681,1.8989,1.893,1.8242,1.6945,1.7815,1.7787,0.8956,0.0,0.0,0.0,0.0,0.0,0.0,0.0,2.0328,2.1419,0.0,2.1191,2.1517,2.1507,2.1659,2.2333,2.2811,2.3235,2.3583,2.3725,2.3746,2.3638,2.4829,2.5231,2.5459,2.6203,2.7238,2.7813,2.78,2.8379,2.9827,2.8965,2.88,2.9335,2.8498,2.8001,2.7865,2.7716,2.7594,2.7458,2.7295,2.716,2.7024,2.7024,2.6943,2.6807,2.6807,2.6807,2.6807,2.6807,2.6807,2.6807,2.6807,2.6807,2.6807,2.6807,2.6143,2.5479,2.5466,2.4482,2.2806,2.2806,2.214,2.1485,2.1474,2.1572,2.1702,2.1811,2.192,2.205,2.2159,2.2115,2.2039,2.2039,2.2018,2.1985,2.1865,2.1844,2.1844,2.1822,2.1724,2.1659,2.1648,2.155,2.1474,2.1474,2.1474,2.1474,2.1474,2.1474,2.1474,2.1474,2.1474,2.1474,2.1474,2.1474,2.1474,2.1474,2.1474,2.1474,2.1474,2.1376,2.1322,2.1322,2.1202,2.0755,1.9671,1.966,1.8673,1.7042,1.7927,1.8261,0.7,0.9272,0.0,0.0,1.7008,1.9511,2.0541,2.1108,2.1494,2.1844,2.2105,2.2333,2.2333,2.2376,2.2529,2.2877,2.3105,2.3333,2.3583,2.3649,2.4027,2.4727,2.5208,2.598,2.7288,2.7756,2.8032,2.8753,2.8726,2.8855,2.8663,2.8245,2.8055,2.8017,2.7634,2.7539,2.7377,2.735,2.7336,2.7295,2.7132,2.7065,2.7024,2.7024,2.6943,2.6807,2.6807,2.6807,2.6807,2.6807,2.6807,2.6807,2.6807,2.6807,2.6807,2.6807,2.6793,2.6475,2.5811,2.4802,2.3805,2.3139,2.2219,2.1604,2.1507,2.1626,2.1811,2.1822,2.192,2.205,2.2159,2.2181,2.2148,2.2148,2.2007,2.1865,2.1844,2.1844,2.1811,2.1713,2.167,2.1626,2.1528,2.1485,2.1474,2.1474,2.1474,2.1474,2.1474,2.1474,2.1474,2.1474,2.1474,2.1474,2.1474,2.1474,2.1474,2.1474,2.1474,2.1474,2.1474,2.1452,2.1108,2.0442,2.0991,2.0926,1.9905,2.047,1.9773,1.8133,1.8442,1.8058,0.8306,0.0,0.0,1.6347,0.0,2.1093,2.1409,2.18,2.2083,2.2018,2.23,2.2561,2.2561,2.2735,2.2964,2.3148,2.3333,2.3485,2.3605,2.3982,2.436,2.5093,2.5885,2.6997,2.8032,2.8385,2.8631,2.9059,2.8896,2.8625,2.886,2.8429,2.821,2.8151,2.7798,2.7404,2.7241,2.7173,2.7132,2.7132,2.6997,2.6929,2.6929,2.6929,2.6875,2.6807,2.6807,2.6807,2.6807,2.6807,2.6807,2.6807,2.6807,2.6807,2.6807,2.6807,2.6462,2.613,2.5811,2.447,2.3484,2.2887,2.223,2.1572,2.1561,2.1681,2.1822,2.1767,2.1887,2.2018,2.2018,2.2018,2.2018,2.2018,2.1985,2.1909,2.1854,2.18,2.1713,2.1583,2.1572,2.155,2.1485,2.1474,2.1474,2.1474,2.1474,2.1474,2.1474,2.1474,2.1474,2.1474,2.1474,2.1474,2.1474,2.1474,2.1474,2.1474,2.1474,2.1474,2.1474,2.1474,2.1141,2.0807,2.1023,2.0969,2.0649,2.0841,2.0491,1.9226,1.9445,1.9097,0.9756,0.0,1.3304,1.8649,2.0756,0.0,2.1615,2.1941,2.2192,2.2159,2.23,2.2474,2.2572,2.2877,2.3159,2.329,2.3485,2.3627,2.3627,2.436,2.5093,2.5459,2.6923,2.7994,2.8319,2.8927,2.9127,2.8896,2.8665,2.8745,2.9082,2.8292,2.8086,2.842,2.7757,2.735,2.7173,2.7051,2.6997,2.6997,2.6861,2.6807,2.6807,2.6807,2.6807,2.6807,2.6807,2.6807,2.6807,2.6807,2.6807,2.6807,2.6807,2.6807,2.6807,2.6807,2.6475,2.5811,2.5466,2.447,2.3163,2.2957,2.2599,2.1873,2.1659,2.1757,2.1811,2.1713,2.1844,2.1963,2.1865,2.1844,2.1844,2.1865,2.1941,2.1952,2.1844,2.1713,2.1604,2.1485,2.1474,2.1474,2.1474,2.1474,2.1474,2.1474,2.1474,2.1474,2.1474,2.1485,2.1507,2.1474,2.1485,2.1507,2.1474,2.1474,2.1474,2.1474,2.1474,2.1474,2.1474,2.1474,2.1474,2.1474,2.1365,2.1322,2.1333,2.1202,2.0884,1.9997,2.047,2.0459,0.6959,1.1099,1.6163,1.961,2.1072,2.1757,2.167,2.1941,2.2159,2.2061,2.2387,2.2681,2.2692,2.3007,2.329,2.3398,2.354,2.3627,2.3627,2.436,2.5471,2.6191,2.7276,2.828,2.8753,2.9072,2.8842,2.8299,2.8353,2.8163,2.7921,2.7797,2.7662,2.7105,2.7214,2.7132,2.6861,2.6834,2.6834,2.6834,2.682,2.6807,2.6807,2.6807,2.6807,2.6807,2.6807,2.6807,2.6807,2.6807,2.6807,2.6807,2.6807,2.6807,2.6807,2.6807,2.6793,2.6462,2.5811,2.5466,2.4827,2.3627,2.298,2.2656,2.2116,2.1822,2.1844,2.1822,2.1844,2.1854,2.1844,2.1844,2.1865,2.1963,2.192,2.1822,2.1713,2.1583,2.1485,2.1474,2.1474,2.1474,2.1474,2.1474,2.1474,2.1474,2.1474,2.1474,2.1474,2.1572,2.1583,2.1485,2.1572,2.1583,2.1485,2.1474,2.1474,2.1474,2.1474,2.1474,2.1474,2.1474,2.1474,2.1474,2.1365,2.1343,2.1452,2.1333,2.1012,2.0119,2.0089,1.9987,0.8429,1.2413,1.6473,1.9856,2.1083,2.1572,2.1724,2.1941,2.2105,2.2115,2.2333,2.2539,2.2616,2.292,2.3192,2.3235,2.3344,2.3806,2.4248,2.5342,2.6107,2.7276,2.8319,2.8927,2.9167,2.9005,2.8747,2.8299,2.8177,2.7933,2.7485,2.7512,2.7377,2.7051,2.7078,2.701,2.6807,2.6807,2.6766,2.6685,2.6766,2.6753,2.6685,2.6766,2.6807,2.6807,2.6807,2.6807,2.6807,2.6807,2.6807,2.6807,2.6807,2.6807,2.6807,2.6807,2.6807,2.6793,2.6475,2.5798,2.5505,2.4643,2.3961,2.3579,2.2712,2.2421,2.2398,2.1659,2.1681,2.1724,2.1659,2.1626,2.1681,2.1865,2.1767,2.1659,2.1746,2.1659,2.1561,2.1485,2.1474,2.1474,2.1474,2.1474,2.1474,2.1474,2.1474,2.1474,2.1474,2.1583,2.1615,2.1485,2.1583,2.1604,2.1485,2.1474,2.1474,2.1474,2.1474,2.1474,2.1474,2.1474,2.1474,2.1474,2.1365,2.1333,2.1376,2.1333,2.1001,2.0712,2.0712,2.0617,0.9115,1.203,1.454,1.8549,2.0006,2.0502,2.1637,2.1898,2.205,2.2137,2.2279,2.2398,2.2485,2.2811,2.305,2.3094,2.3552,2.4035,2.4885,2.5962,2.705,2.7839,2.8512,2.9154,2.8991,2.8815,2.8543,2.8177,2.7933,2.7662,2.739,2.7282,2.716,2.6983,2.701,2.6956,2.6807,2.6807,2.6725,2.6576,2.6725,2.6712,2.6576,2.6698,2.6766,2.6807,2.6807,2.6807,2.6807,2.6807,2.6807,2.6807,2.6807,2.6807,2.6807,2.6807,2.6807,2.6807,2.6807,2.6475,2.5824,2.5634,2.4928,2.4174,2.3674,2.3339,2.2945,2.2208,2.1896,2.1929,2.1507,2.1474,2.1528,2.1778,2.1702,2.1604,2.1724,2.167,2.1583,2.1485,2.1474,2.1474,2.1474,2.1474,2.1474,2.1474,2.1474,2.1474,2.1474,2.1583,2.1615,2.1485,2.1583,2.1604,2.1485,2.1474,2.1474,2.1474,2.1474,2.1474,2.1474,2.1474,2.1474,2.1474,2.1365,2.1311,2.1311,2.1278,2.1278,2.1311,2.1333,2.1278,0.6525,0.7874,0.9627,1.5133,1.6833,1.8266,2.098,2.1767,2.2018,2.2039,2.2224,2.2376,2.2387,2.267,2.2953,2.3072,2.3912,2.4746,2.4885,2.6252,2.7555,2.7426,2.8247,2.8828,2.8245,2.8313,2.8136,2.7567,2.7512,2.7363,2.7065,2.7173,2.7119,2.682,2.6956,2.6956,2.6807,2.6807,2.6725,2.6576,2.6725,2.6712,2.6576,2.6576,2.6658,2.6807,2.6807,2.6807,2.6807,2.6807,2.6807,2.6807,2.6807,2.6807,2.6807,2.6807,2.6807,2.6807,2.6807,2.6807,2.6502,2.5981,2.5582,2.5198,2.4792,2.4357,2.3841,2.3292,2.291,2.2485,2.1818,2.1474,2.1528,2.1778,2.1822,2.1757,2.155,2.1485,2.1485,2.1474,2.1474,2.1474,2.1474,2.1474,2.1474,2.1474,2.1474,2.1474,2.1474,2.1583,2.1615,2.1485,2.1583,2.1604,2.1485,2.1474,2.1474,2.1474,2.1474,2.1474,2.1474,2.1474,2.1474,2.1474,2.1365,2.1311,2.1311,2.1191,2.1191,2.1311,2.142,2.1409,0.6305,0.7452,0.851,1.2383,1.515,1.7011,1.8417,2.0152,2.1789,2.1789,2.1985,2.2181,2.2246,2.29,2.3486,2.2757,2.4331,2.5195,2.5601,2.6635,2.7692,2.8101,2.8338,2.853,2.8313,2.8163,2.7919,2.7512,2.7377,2.7187,2.6902,2.6929,2.6902,2.6807,2.6861,2.6861,2.6807,2.6698,2.6576,2.6427,2.659,2.6576,2.6427,2.6536,2.6603,2.6658,2.6658,2.6712,2.6807,2.6807,2.6807,2.6807,2.6807,2.6807,2.6807,2.6807,2.6807,2.6807,2.6807,2.6807,2.682,2.6529,2.6502,2.6156,2.5261,2.5223,2.4815,2.3865,2.3174,2.2806,2.2485,2.1873,2.1626,2.18,2.1844,2.18,2.1626,2.1583,2.1572,2.1485,2.1474,2.1474,2.1474,2.1474,2.1474,2.1474,2.1474,2.1474,2.1474,2.1583,2.1648,2.1604,2.1626,2.1648,2.1604,2.1517,2.1474,2.1474,2.1474,2.1474,2.1474,2.1474,2.1474,2.1474,2.1365,2.1311,2.1311,2.1267,2.1267,2.1311,2.142,2.142,0.5213,0.6005,0.7201,0.9959,1.2252,1.4121,1.6242,1.8506,2.0375,2.1343,2.1713,2.1996,2.2459,2.3441,2.3646,2.2911,2.41,2.5628,2.5677,2.67,2.7744,2.8503,2.8394,2.8231,2.8096,2.7933,2.7702,2.735,2.7227,2.7065,2.682,2.6807,2.678,2.6725,2.6725,2.6725,2.6725,2.6576,2.6454,2.6359,2.6454,2.6427,2.6291,2.6373,2.6454,2.6508,2.6454,2.6522,2.6658,2.6712,2.6725,2.6725,2.678,2.6807,2.6807,2.6807,2.6807,2.6807,2.6807,2.6807,2.6807,2.6807,2.6807,2.6793,2.613,2.5798,2.5811,2.4802,2.3805,2.3151,2.2853,2.2331,2.18,2.1887,2.1898,2.1865,2.1746,2.1659,2.1572,2.1485,2.1474,2.1474,2.1474,2.1474,2.1474,2.1474,2.1474,2.1474,2.1474,2.155,2.1604,2.1604,2.1604,2.1604,2.1604,2.1517,2.1485,2.1528,2.1507,2.1485,2.1528,2.1528,2.1528,2.1528,2.1463,2.142,2.142,2.1343,2.1311,2.1311,2.142,2.143,0.0,0.0,0.0,0.7281,0.7946,0.9506,1.4952,1.6519,1.7568,2.037,2.1376,2.2172,2.3338,2.3569,2.3441,2.2867,2.4299,2.5384,2.5518,2.7183,2.8069,2.7933,2.8041,2.7946,2.7512,2.7594,2.7512,2.7065,2.7024,2.6956,2.6807,2.6807,2.6725,2.6576,2.6576,2.6576,2.6576,2.6427,2.6359,2.6359,2.6359,2.6278,2.6129,2.6129,2.6224,2.6346,2.6196,2.6224,2.6359,2.6522,2.6576,2.659,2.6753,2.6807,2.6807,2.6807,2.6807,2.6807,2.6807,2.6807,2.6807,2.6807,2.6807,2.6807,2.6807,2.6807,2.6462,2.5811,2.4802,2.3829,2.3315,2.2522,2.2028,2.2018,2.2018,2.1985,2.1865,2.1648,2.1474,2.1474,2.1474,2.1474,2.1474,2.1474,2.1474,2.1474,2.1474,2.1474,2.1474,2.1474,2.1474,2.1474,2.1474,2.1474,2.1474,2.1474,2.1528,2.1648,2.155,2.1528,2.1659,2.1659,2.1659,2.1659,2.1659,2.1659,2.1659,2.142,2.1311,2.1322,2.142,2.1474,0.3513,0.0,0.0,0.0,0.0,0.0,1.0759,1.3481,1.6221,1.8701,1.9867,2.1045,2.3061,2.3303,2.3395,2.4209,2.5498,2.6369,2.6305,2.7308,2.7933,2.777,2.7702,2.7567,2.7336,2.7255,2.7173,2.7051,2.6929,2.6848,2.6807,2.6807,2.6725,2.6576,2.6468,2.6413,2.6413,2.6278,2.6196,2.6196,2.6196,2.6169,2.6129,2.6129,2.6142,2.6183,2.6142,2.6142,2.6224,2.6468,2.6576,2.659,2.6753,2.6807,2.6807,2.6807,2.6807,2.6807,2.6807,2.6807,2.6807,2.6807,2.6807,2.6807,2.6807,2.6807,2.6793,2.6462,2.5811,2.4865,2.3421,2.2929,2.2723,2.2126,2.2007,2.1876,2.1854,2.1648,2.1474,2.1474,2.1474,2.1474,2.1474,2.1474,2.1474,2.1474,2.1474,2.1474,2.1474,2.1561,2.1604,2.1604,2.1604,2.1604,2.1604,2.1528,2.1528,2.1648,2.155,2.1528,2.1659,2.1659,2.1659,2.1659,2.1746,2.1746,2.1659,2.1507,2.143,2.143,2.1463,2.1474,0.0,0.0,0.0,0.3937,0.0,0.0,0.9474,1.167,1.4133,1.7913,1.9495,2.104,2.2764,2.3436,2.3937,2.5465,2.6098,2.6304,2.6343,2.6977,2.7594,2.7526,2.7431,2.7309,2.7173,2.7078,2.6997,2.6943,2.6848,2.6807,2.6807,2.6753,2.6644,2.6481,2.6346,2.6278,2.6278,2.6115,2.6061,2.6129,2.6061,2.6047,2.6047,2.6047,2.6047,2.6047,2.6047,2.6047,2.6061,2.6291,2.6468,2.659,2.6685,2.6753,2.6807,2.6807,2.6807,2.6807,2.6807,2.6807,2.6807,2.6807,2.6807,2.6807,2.6807,2.6807,2.682,2.6875,2.6302,2.5427,2.419,2.3631,2.3384,2.2779,2.2271,2.1767,2.1767,2.1615,2.1474,2.1474,2.1474,2.1474,2.1474,2.1474,2.1474,2.1474,2.1474,2.1474,2.1474,2.1583,2.1648,2.1583,2.1626,2.1648,2.1583,2.1561,2.1583,2.1659,2.1583,2.1604,2.1724,2.1724,2.1757,2.1811,2.1887,2.1822,2.1659,2.1583,2.1528,2.1474,2.1474,2.1474,0.0,0.0,0.0,0.0,0.3998,0.0,0.9737,1.0633,1.2078,1.7053,1.9091,2.0682,2.231,2.3111,2.3776,2.5939,2.5589,2.5621,2.6021,2.6659,2.7241,2.7227,2.7227,2.716,2.701,2.701,2.6943,2.682,2.678,2.678,2.678,2.6603,2.6468,2.6305,2.6183,2.6101,2.6074,2.5952,2.5966,2.6101,2.5966,2.5898,2.5898,2.5898,2.5898,2.5898,2.5898,2.5925,2.5939,2.6061,2.6278,2.6522,2.6549,2.6658,2.678,2.6807,2.6807,2.6807,2.6807,2.6807,2.6807,2.6807,2.6807,2.6807,2.6807,2.6807,2.6834,2.6956,2.6553,2.6072,2.4916,2.4311,2.3737,2.3395,2.2533,2.167,2.167,2.1572,2.1474,2.1474,2.1474,2.1474,2.1474,2.1474,2.1474,2.1474,2.1474,2.1474,2.1474,2.1583,2.1615,2.1507,2.1583,2.1615,2.1517,2.1583,2.1648,2.167,2.1659,2.1702,2.1844,2.1844,2.1898,2.1996,2.2007,2.1887,2.1659,2.1648,2.1583,2.1474,2.1474,2.1474,0.0,0.0,0.0,0.0,0.4863,0.0,0.7191,0.8133,0.9765,1.3361,1.4838,1.6456,1.9472,2.0299,2.0791,2.1787,2.3223,2.4884,2.677,2.7255,2.72,2.7078,2.7065,2.701,2.6861,2.6848,2.6834,2.6807,2.6698,2.6631,2.6631,2.6359,2.6156,2.5993,2.5952,2.5884,2.5776,2.5871,2.5925,2.5952,2.5925,2.5898,2.5898,2.5898,2.5898,2.5898,2.5898,2.5966,2.6074,2.5993,2.6061,2.6237,2.6481,2.659,2.6631,2.6753,2.6807,2.6807,2.6807,2.6807,2.6807,2.6807,2.6807,2.6807,2.6807,2.6807,2.6807,2.6834,2.7146,2.7105,2.5918,2.5732,2.525,2.3877,2.3338,2.2815,2.18,2.1626,2.1474,2.1474,2.1474,2.1474,2.1474,2.1474,2.1474,2.1474,2.1474,2.1474,2.1474,2.1583,2.1648,2.1626,2.1648,2.1681,2.1757,2.1615,2.1604,2.18,2.1615,2.1615,2.1822,2.1844,2.1854,2.1876,2.1876,2.18,2.1659,2.1561,2.1507,2.1474,2.1474,2.1474,0.0,0.0,0.0,0.5362,0.5345,0.0,0.0,0.7956,0.9093,1.2646,1.399,1.5244,1.7933,1.873,1.9444,2.0133,2.2088,2.3499,2.4296,2.5993,2.6997,2.6929,2.6929,2.6888,2.6807,2.6807,2.6807,2.6807,2.6658,2.6576,2.6576,2.6291,2.6061,2.5898,2.5898,2.583,2.5694,2.583,2.5898,2.5898,2.5898,2.5898,2.5898,2.5993,2.5966,2.5898,2.5993,2.6006,2.6006,2.5939,2.5993,2.6142,2.6373,2.6508,2.659,2.6753,2.6807,2.6807,2.6807,2.6807,2.6807,2.6807,2.6807,2.6807,2.6807,2.6861,2.6902,2.6902,2.7132,2.7363,2.6672,2.6386,2.5783,2.448,2.3678,2.2838,2.2094,2.1659,2.155,2.1485,2.1474,2.1474,2.1474,2.1474,2.1474,2.1474,2.1474,2.1474,2.1474,2.1583,2.1659,2.1659,2.1659,2.1713,2.1822,2.167,2.1615,2.1746,2.1626,2.1615,2.1746,2.1811,2.1865,2.192,2.1865,2.1778,2.1659,2.1659,2.1583,2.1474,2.1528,2.1528,0.0,0.0,0.0,0.6094,0.6157,0.6438,0.0,0.0,0.0,1.2507,1.3618,1.4579,1.6443,1.7209,1.7831,1.8687,2.0218,2.1215,2.074,2.3377,2.5711,2.5819,2.6359,2.6481,2.6468,2.6373,2.6427,2.6658,2.6332,2.6183,2.64,2.6183,2.5952,2.5776,2.5803,2.5762,2.5654,2.5803,2.5871,2.5898,2.5898,2.5925,2.5952,2.6074,2.6061,2.5952,2.6074,2.6047,2.5898,2.5939,2.6006,2.6115,2.6291,2.6454,2.659,2.6712,2.678,2.6807,2.6766,2.678,2.6807,2.6807,2.6807,2.6807,2.6807,2.6902,2.7024,2.6997,2.7105,2.7255,2.7363,2.6633,2.5918,2.538,2.4275,2.3141,2.205,2.1659,2.1583,2.1485,2.1474,2.1474,2.1474,2.1474,2.1474,2.1474,2.1474,2.1474,2.1474,2.1561,2.1626,2.1659,2.1626,2.1681,2.1854,2.1746,2.167,2.1691,2.1702,2.1681,2.1659,2.1757,2.1865,2.1985,2.1865,2.1746,2.1626,2.1767,2.1713,2.1474,2.1604,2.1583,0.0,0.8337,0.8366,0.6639,0.7972,0.8986,0.7023,0.0,0.8807,0.9873,0.0,1.2235,1.3722,0.0,0.0,1.41,1.6144,1.7708,1.7613,1.9898,2.1787,2.2872,2.4452,2.5355,2.5233,2.4867,2.507,2.6129,2.5084,2.4813,2.5749,2.5762,2.5599,2.5315,2.545,2.5505,2.5477,2.564,2.5776,2.5898,2.5898,2.5966,2.6115,2.6129,2.6115,2.6115,2.6129,2.6047,2.5925,2.6047,2.6047,2.5952,2.6251,2.6454,2.6576,2.659,2.6685,2.678,2.6644,2.6698,2.6807,2.6807,2.6807,2.6807,2.6807,2.6902,2.6997,2.6875,2.7024,2.7227,2.7105,2.7173,2.6944,2.6072,2.5229,2.4058,2.3153,2.2331,2.1485,2.1474,2.1474,2.1474,2.1474,2.1474,2.1474,2.1474,2.1474,2.1474,2.1474,2.1485,2.1528,2.1648,2.1561,2.1626,2.1963,2.1789,2.1702,2.1811,2.1822,2.1767,2.1659,2.167,2.1746,2.1854,2.1746,2.1615,2.1507,2.1724,2.1713,2.1474,2.1604,2.1583,1.07,1.0568,1.085,0.9356,1.0266,1.0844,0.8836,0.8635,0.9432,1.0595,0.0,0.0,0.0,0.0,0.0,0.0,1.5077,1.6227,1.5635,1.7766,1.9854,2.1253,2.2297,2.334,2.4189,2.446,2.484,2.5437,2.4786,2.465,2.5274,2.5369,2.5369,2.5233,2.5369,2.5423,2.5342,2.5654,2.5803,2.5776,2.5952,2.6061,2.6129,2.6129,2.6129,2.6129,2.6129,2.6047,2.5898,2.5966,2.6061,2.6183,2.6305,2.64,2.6468,2.6644,2.6753,2.678,2.6725,2.6753,2.6807,2.6807,2.6807,2.6807,2.6807,2.6848,2.6902,2.6929,2.6956,2.701,2.7119,2.7132,2.685,2.6386,2.5669,2.4928,2.3631,2.2815,2.2342,2.1594,2.1517,2.1474,2.1474,2.1474,2.1474,2.1474,2.1474,2.1474,2.1474,2.1474,2.1517,2.1648,2.155,2.1626,2.1996,2.1724,2.1626,2.1822,2.1713,2.1648,2.1659,2.1583,2.1615,2.1724,2.1681,2.1626,2.1583,2.1822,2.1854,2.1681,2.167,2.1583,1.3351,1.3195,1.3241,1.1359,1.1763,1.213,1.0167,1.0045,1.0533,1.1381,1.1677,0.0,0.0,0.0,1.2873,1.3417,0.0,1.4827,1.4037,1.5601,1.7574,1.8919,2.0146,2.1513,2.3022,2.351,2.3931,2.4365,2.4012,2.4053,2.4691,2.4935,2.507,2.5111,2.5301,2.5342,2.5233,2.5545,2.5708,2.5694,2.5898,2.6061,2.6129,2.6129,2.6129,2.6129,2.6183,2.6115,2.5966,2.6061,2.6196,2.6359,2.64,2.64,2.64,2.6644,2.6766,2.6807,2.6753,2.6766,2.6807,2.6807,2.6807,2.6807,2.6807,2.6807,2.682,2.6943,2.6888,2.6848,2.7065,2.7078,2.6756,2.6659,2.6386,2.5707,2.4347,2.39,2.3107,2.2297,2.1873,2.1818,2.1474,2.1474,2.1474,2.1474,2.1474,2.1474,2.1474,2.1474,2.1507,2.1604,2.1561,2.1648,2.1952,2.1757,2.1713,2.192,2.1648,2.1572,2.18,2.1583,2.155,2.1702,2.1648,2.1626,2.1659,2.18,2.1844,2.1778,2.1724,2.1648,1.586,1.5796,1.5574,1.1831,1.201,1.2447,1.0215,1.0987,1.1968,1.1996,1.331,1.4363,1.4156,1.3809,0.0,0.0,1.3363,0.0,0.0,1.3298,1.3857,1.5404,1.8171,2.0375,2.1665,2.1367,2.1597,2.2764,2.2181,2.2398,2.3863,2.4351,2.465,2.4813,2.5084,2.5233,2.5233,2.5247,2.541,2.5694,2.5708,2.5844,2.6129,2.6129,2.6129,2.6129,2.6291,2.6278,2.6142,2.6427,2.6481,2.6373,2.6522,2.6481,2.6386,2.6522,2.6685,2.678,2.6631,2.6685,2.6807,2.6807,2.6807,2.6807,2.6807,2.6807,2.6807,2.6807,2.6807,2.6807,2.682,2.6929,2.7065,2.72,2.6567,2.5892,2.5905,2.5116,2.3974,2.2841,2.2806,2.2462,2.1807,2.1474,2.1474,2.1474,2.1474,2.1474,2.1474,2.1474,2.1474,2.1474,2.1583,2.1702,2.1844,2.1941,2.205,2.2181,2.1746,2.1681,2.2148,2.1724,2.1583,2.1822,2.1604,2.155,2.1659,2.155,2.155,2.167,2.1778,2.1767,1.8676,1.9253,1.9229,1.6103,1.5889,1.5874,1.301,1.2818,1.3227,1.2771,1.3787,1.4494,1.4091,0.0,0.0,0.0,0.0,1.3265,0.0,1.2764,1.3418,1.4669,1.6577,1.8439,1.9847,2.0566,2.1218,2.1706,2.1706,2.2113,2.3103,2.3687,2.4134,2.4487,2.4786,2.4989,2.5084,2.5287,2.545,2.5545,2.5749,2.5939,2.6129,2.602,2.6047,2.6129,2.6074,2.6074,2.6129,2.6237,2.6359,2.6508,2.6549,2.6603,2.6644,2.659,2.6603,2.6658,2.6712,2.6766,2.6807,2.6807,2.6807,2.6807,2.6807,2.6807,2.6807,2.6807,2.6807,2.6807,2.6807,2.6834,2.6943,2.7187,2.6823,2.6474,2.5995,2.5516,2.4656,2.328,2.2864,2.2462,2.1807,2.1474,2.1474,2.1474,2.1474,2.1474,2.1474,2.1474,2.1507,2.1583,2.1626,2.1746,2.1941,2.1996,2.2007,2.1963,2.1811,2.1778,2.1952,2.18,2.1713,2.1713,2.1648,2.1659,2.1778,2.1659,2.1746,2.2007,2.1811,2.1659,2.0507,2.1151,2.1521,1.9004,1.8564,1.8039,1.5248,1.5067,1.528,1.4742,1.4851,1.5248,1.5794,1.4899,0.0,0.0,0.0,1.3047,0.0,1.2455,1.3087,1.4152,1.576,1.724,1.8694,1.9481,2.0132,2.0539,2.0716,2.1231,2.2249,2.2981,2.3646,2.4243,2.4663,2.4921,2.5016,2.522,2.5355,2.5464,2.5654,2.583,2.5966,2.5925,2.5898,2.5898,2.5898,2.5993,2.6129,2.6183,2.6359,2.6576,2.6522,2.6522,2.6576,2.6631,2.6658,2.6658,2.6766,2.6807,2.6807,2.6807,2.6807,2.6807,2.6807,2.6807,2.6861,2.7119,2.701,2.6861,2.7132,2.7051,2.6929,2.7119,2.7132,2.681,2.6593,2.6151,2.5673,2.3615,2.3198,2.2806,2.1807,2.1474,2.1474,2.1474,2.1474,2.1474,2.1474,2.1474,2.1517,2.1648,2.1702,2.1822,2.2061,2.205,2.2007,2.1963,2.1876,2.1876,2.1963,2.1876,2.1898,2.2039,2.1822,2.1865,2.2148,2.1865,2.1844,2.2061,2.1822,2.1626]}]]